[[{"header":{"parameterUnit":"m.s-1","parameterCategory":1,"la1":31.0,"la2":29.5877,"lo1":-88.7671,"lo2":-86.6584,"dy":0.0162,"dx":0.0185,"nx":115,"ny":88,"refTime":"2023-08-04T00:00:00:Z","depth":0,"parameterNumber":2,"parameterNumberName":"U-component_of_WINDS"},"data":[0.0,0.0,0.0,0.0,0.0,0.0,0.0,0.0,0.0,0.0,0.0,0.0,0.0,0.0,0.0,0.0,0.0,0.0,0.0,0.0,0.0,0.0,0.0,0.0,0.0,0.0,0.0,0.0,0.0,0.0,0.0,0.0,0.0,0.0,0.0,0.0,0.0,0.0,0.0,0.0,0.0,0.0,0.0,0.0,0.0,0.0,0.0,0.0,0.0,0.0,0.0,0.0,0.0,0.0,0.0,0.0,0.0,0.0,0.0,0.0,0.0,0.0,0.0,0.0,0.0,0.0,0.0,0.0,0.0,0.0,0.0,0.0,0.0,0.0,0.0,0.0,0.0,0.0,0.0,0.0,0.0,0.0,0.0,0.0,0.0,0.0,0.0,0.0,0.0,0.0,0.0,0.0,0.0,0.0,0.0,0.0,0.0,0.0,0.0,0.0,0.0,0.0,0.0,0.0,0.0,0.0,0.0,0.0,0.0,0.0,0.0,0.0,0.0,0.0,0.0,0.0,0.0,0.0,0.0,0.0,0.0,0.0,0.0,0.0,0.0,0.0,0.0,0.0,0.0,0.0,0.0,0.0,0.0,0.0,0.0,0.0,0.0,0.0,0.0,0.0,0.0,0.0,0.0,0.0,0.0,0.0,0.0,0.0,0.0,0.0,0.0,0.0,0.0,0.0,0.0,0.0,0.0,0.0,0.0,0.0,0.0,0.0,0.0,0.0,0.0,0.0,0.0,0.0,0.0,0.0,0.0,0.0,0.0,0.0,0.0,0.0,0.0,0.0,0.0,0.0,0.0,0.0,0.0,0.0,0.0,0.0,0.0,0.0,0.0,0.0,0.0,0.0,0.0,0.0,0.0,0.0,0.0,0.0,0.0,0.0,0.0,0.0,0.0,0.0,0.0,0.0,0.0,0.0,0.0,0.0,0.0,0.0,0.0,0.0,0.0,0.0,0.0,0.0,0.0,0.0,0.0,0.0,0.0,0.0,0.0,0.0,0.0,0.0,0.0,0.0,0.0,0.0,0.0,0.0,0.0,0.0,0.0,0.0,0.0,0.0,0.0,0.0,0.0,0.0,0.0,0.0,0.0,0.0,0.0,0.0,0.0,0.0,0.0,0.0,0.0,0.0,0.0,0.0,0.0,0.0,0.0,0.0,0.0,0.0,0.0,0.0,0.0,0.0,0.0,0.0,0.0,0.0,0.0,0.0,0.0,0.0,0.0,0.0,0.0,0.0,0.0,0.0,0.0,0.0,0.0,0.0,0.0,0.0,0.0,0.0,0.0,0.0,0.0,0.0,0.0,0.0,0.0,0.0,0.0,0.0,0.0,0.0,0.0,0.0,0.0,0.0,0.0,0.0,0.0,0.0,0.0,0.0,0.0,0.0,0.0,0.0,0.0,0.0,0.0,0.0,0.0,0.0,0.0,0.0,0.0,0.0,0.0,0.0,0.0,0.0,0.0,0.0,0.0,0.0,0.0,0.0,0.0,0.0,0.0,0.0,0.0,0.0,0.0,0.0,0.0,0.0,0.0,0.0,0.0,0.0,0.0,0.0,0.0,0.0,0.0,0.0,0.0,0.0,0.0,0.0,0.0,0.0,0.0,0.0,0.0,0.0,0.0,0.0,0.0,0.0,0.0,0.0,0.0,0.0,0.0,0.0,0.0,0.0,0.0,0.0,0.0,0.0,0.0,0.0,0.0,0.0,0.0,0.0,0.0,0.0,0.0,0.0,0.0,0.0,0.0,0.0,0.0,0.0,0.0,0.0,0.0,0.0,0.0,0.0,0.0,0.0,0.0,0.0,0.0,0.0,0.0,0.0,0.0,0.0,0.0,0.0,0.0,0.0,0.0,0.0,0.0,0.0,0.0,0.0,0.0,0.0,0.0,0.0,0.0,0.0,0.0,0.0,0.0,0.0,0.0,0.0,0.0,0.0,0.0,0.0,0.0,0.0,0.0,0.0,0.0,0.0,0.0,0.0,0.0,0.0,0.0,0.0,0.0,0.0,0.0,0.0,0.0,0.0,0.0,0.0,0.0,0.0,0.0,0.0,0.0,0.0,0.0,0.0,0.0,0.0,0.0,0.0,0.0,0.0,0.0,0.0,0.0,0.0,0.0,0.0,0.0,0.0,0.0,0.0,0.0,0.0,0.0,0.0,0.0,0.0,0.0,0.0,0.0,0.0,0.0,0.0,0.0,0.0,0.0,0.0,0.0,0.0,0.0,0.0,0.0,0.0,0.0,0.0,0.0,0.0,0.0,0.0,0.0,0.0,0.0,0.0,0.0,0.0,0.0,0.0,0.0,0.0,0.0,0.0,0.0,0.0,0.0,0.0,0.0,0.0,0.0,0.0,0.0,0.0,0.0,0.0,0.0,0.0,0.0,0.0,0.0,0.0,0.0,0.0,0.0,0.0,0.0,0.0,0.0,0.0,0.0,0.0,0.0,0.0,0.0,0.0,0.0,0.0,0.0,0.0,0.0,0.0,0.0,0.0,0.0,0.0,0.0,0.0,0.0,0.0,0.0,0.0,0.0,0.0,0.0,0.0,0.0,0.0,0.0,0.0,0.0,0.0,0.0,0.0,0.0,0.0,0.0,0.0,0.0,0.0,0.0,0.0,0.0,0.0,0.0,0.0,0.0,0.0,0.0,0.0,0.0,0.0,0.0,0.0,0.0,0.0,0.0,0.0,0.0,0.0,0.0,0.0,0.0,0.0,0.0,0.0,0.0,0.0,0.0,0.0,0.0,0.0,0.0,0.0,0.0,0.0,0.0,0.0,0.0,0.0,0.0,0.0,0.0,0.0,0.0,0.0,0.0,0.0,0.0,0.0,0.0,0.0,0.0,0.0,0.0,0.0,0.0,0.0,0.0,0.0,0.0,0.0,0.0,0.0,0.0,0.0,0.0,0.0,0.0,0.0,0.0,0.0,0.0,0.0,0.0,0.0,0.0,0.0,0.0,0.0,0.0,0.0,0.0,0.0,0.0,0.0,0.0,0.0,0.0,0.0,0.0,0.0,0.0,0.0,0.0,0.0,0.0,0.0,0.0,0.0,0.0,0.0,0.0,0.0,0.0,0.0,0.0,0.0,0.0,0.0,0.0,0.0,0.0,0.0,0.0,0.0,0.0,0.0,0.0,0.0,0.0,0.0,0.0,0.0,0.0,0.0,0.0,0.0,0.0,0.0,0.0,0.0,0.0,0.0,0.0,0.0,0.0,0.0,0.0,0.0,0.0,0.0,0.0,0.0,0.0,0.0,0.0,0.0,0.0,0.0,0.0,0.0,0.0,0.0,0.0,0.0,0.0,0.0,0.0,0.0,0.0,0.0,0.0,0.0,0.0,0.0,0.0,0.0,0.0,0.0,0.0,0.0,0.0,0.0,0.0,0.0,0.0,0.0,0.0,0.0,0.0,0.0,0.0,0.0,0.0,0.0,0.0,0.0,0.0,0.0,0.0,0.0,0.0,0.0,0.0,0.0,0.0,0.0,0.0,0.0,0.0,0.0,0.0,0.0,0.0,0.0,0.0,0.0,0.0,0.0,0.0,0.0,0.0,0.0,0.0,0.0,0.0,0.0,0.0,0.0,0.0,0.0,0.0,0.0,0.0,0.0,0.0,0.0,0.0,0.0,0.0,0.0,0.0,0.0,0.0,0.0,0.0,0.0,0.0,0.0,0.0,0.0,0.0,0.0,0.0,0.0,0.0,0.0,0.0,0.0,0.0,0.0,0.0,0.0,0.0,0.0,0.0,0.0,0.0,0.0,0.0,0.0,0.0,0.0,0.0,0.0,0.0,0.0,0.0,0.0,0.0,0.0,0.0,0.0,0.0,0.0,0.0,0.0,0.0,0.0,0.0,0.0,0.0,0.0,0.0,0.0,0.0,0.0,0.0,0.0,0.0,0.0,0.0,0.0,0.0,0.0,0.0,0.0,0.0,0.0,0.0,0.0,0.0,0.0,0.0,0.0,0.0,0.0,0.0,0.0,0.0,0.0,0.0,0.0,0.0,0.0,0.0,0.0,0.0,0.0,0.0,0.0,0.0,0.0,0.0,0.0,0.0,0.0,0.0,0.0,0.0,0.0,0.0,0.0,0.0,0.0,0.0,0.0,0.0,0.0,0.0,0.0,0.0,0.0,0.0,0.0,0.0,0.0,0.0,0.0,0.0,0.0,0.0,0.0,0.0,0.0,0.0,0.0,0.0,0.0,0.0,0.0,0.0,0.0,0.0,0.0,0.0,0.0,0.0,0.0,0.0,0.0,0.0,0.0,0.0,0.0,-5.302,0.0,0.0,0.0,0.0,0.0,0.0,0.0,0.0,0.0,0.0,0.0,0.0,0.0,0.0,0.0,0.0,0.0,0.0,0.0,0.0,0.0,0.0,0.0,0.0,0.0,0.0,0.0,0.0,0.0,0.0,0.0,0.0,0.0,0.0,0.0,0.0,0.0,0.0,0.0,0.0,0.0,0.0,0.0,0.0,0.0,0.0,0.0,0.0,0.0,0.0,0.0,0.0,0.0,0.0,0.0,0.0,0.0,0.0,0.0,0.0,0.0,0.0,0.0,0.0,0.0,0.0,0.0,0.0,0.0,0.0,0.0,0.0,0.0,0.0,0.0,0.0,0.0,0.0,0.0,0.0,0.0,0.0,0.0,0.0,0.0,0.0,0.0,0.0,0.0,0.0,0.0,0.0,0.0,0.0,0.0,0.0,0.0,0.0,0.0,0.0,0.0,0.0,0.0,0.0,0.0,0.0,0.0,0.0,0.0,0.0,-5.2016,-5.2034,-5.2784,-5.3185,-5.3185,0.0,0.0,0.0,0.0,0.0,0.0,0.0,0.0,0.0,0.0,0.0,0.0,0.0,0.0,0.0,0.0,0.0,0.0,0.0,0.0,0.0,0.0,0.0,0.0,0.0,0.0,0.0,0.0,0.0,0.0,0.0,0.0,0.0,0.0,0.0,0.0,0.0,0.0,0.0,0.0,0.0,0.0,0.0,0.0,0.0,0.0,0.0,0.0,0.0,0.0,0.0,0.0,0.0,0.0,0.0,0.0,0.0,0.0,0.0,0.0,0.0,0.0,0.0,0.0,0.0,0.0,0.0,0.0,0.0,0.0,0.0,0.0,0.0,0.0,0.0,0.0,0.0,0.0,0.0,0.0,0.0,0.0,0.0,0.0,0.0,0.0,0.0,0.0,0.0,0.0,0.0,0.0,0.0,0.0,0.0,0.0,0.0,0.0,0.0,0.0,0.0,0.0,0.0,0.0,0.0,0.0,0.0,0.0,0.0,0.0,0.0,0.0,-5.2876,-5.3185,-5.3185,0.0,0.0,0.0,0.0,0.0,0.0,0.0,0.0,0.0,0.0,0.0,0.0,0.0,0.0,0.0,0.0,0.0,0.0,0.0,0.0,0.0,0.0,0.0,0.0,0.0,0.0,0.0,0.0,0.0,0.0,0.0,0.0,0.0,0.0,0.0,0.0,0.0,0.0,0.0,0.0,0.0,0.0,0.0,0.0,0.0,0.0,0.0,0.0,0.0,0.0,0.0,0.0,0.0,0.0,0.0,0.0,0.0,0.0,0.0,0.0,0.0,0.0,0.0,0.0,0.0,0.0,0.0,0.0,0.0,0.0,0.0,0.0,0.0,0.0,0.0,0.0,0.0,0.0,0.0,0.0,0.0,0.0,0.0,0.0,0.0,0.0,0.0,0.0,0.0,0.0,0.0,0.0,0.0,0.0,0.0,0.0,0.0,0.0,0.0,0.0,0.0,0.0,0.0,0.0,0.0,0.0,0.0,0.0,0.0,0.0,-5.3093,-5.3115,-5.3148,0.0,-5.3185,0.0,0.0,0.0,0.0,0.0,0.0,0.0,0.0,0.0,0.0,0.0,0.0,0.0,0.0,0.0,0.0,0.0,0.0,0.0,0.0,0.0,0.0,0.0,0.0,0.0,0.0,0.0,0.0,0.0,0.0,0.0,0.0,0.0,0.0,0.0,0.0,0.0,0.0,0.0,0.0,0.0,0.0,0.0,0.0,0.0,0.0,0.0,0.0,0.0,0.0,0.0,0.0,0.0,0.0,0.0,0.0,0.0,0.0,0.0,0.0,0.0,0.0,0.0,0.0,0.0,0.0,0.0,0.0,0.0,0.0,0.0,0.0,0.0,0.0,0.0,0.0,0.0,0.0,0.0,0.0,0.0,0.0,0.0,0.0,0.0,0.0,0.0,0.0,0.0,0.0,0.0,0.0,0.0,0.0,0.0,0.0,0.0,0.0,0.0,0.0,0.0,0.0,0.0,0.0,0.0,0.0,0.0,0.0,0.0,0.0,-5.3185,-5.3185,-5.3185,-5.3185,0.0,0.0,0.0,0.0,0.0,0.0,0.0,0.0,0.0,0.0,0.0,0.0,0.0,0.0,0.0,0.0,0.0,0.0,0.0,0.0,0.0,0.0,0.0,0.0,0.0,0.0,0.0,0.0,0.0,0.0,0.0,0.0,0.0,0.0,0.0,0.0,0.0,0.0,0.0,0.0,0.0,0.0,0.0,0.0,0.0,0.0,0.0,0.0,0.0,0.0,0.0,0.0,0.0,0.0,0.0,0.0,0.0,0.0,0.0,0.0,0.0,0.0,0.0,0.0,0.0,0.0,0.0,0.0,0.0,0.0,0.0,0.0,0.0,0.0,0.0,0.0,0.0,0.0,0.0,0.0,0.0,0.0,0.0,0.0,0.0,0.0,0.0,0.0,0.0,0.0,0.0,0.0,0.0,0.0,0.0,0.0,0.0,0.0,0.0,0.0,0.0,0.0,0.0,0.0,0.0,0.0,0.0,0.0,0.0,0.0,-5.3185,-5.3185,-5.3185,-5.3185,-5.3103,-5.2915,0.0,0.0,0.0,0.0,0.0,0.0,0.0,0.0,0.0,0.0,0.0,0.0,0.0,0.0,0.0,0.0,0.0,0.0,0.0,0.0,0.0,0.0,0.0,0.0,0.0,0.0,0.0,0.0,0.0,0.0,0.0,0.0,0.0,0.0,0.0,0.0,0.0,0.0,0.0,0.0,0.0,0.0,0.0,0.0,0.0,0.0,0.0,0.0,0.0,0.0,0.0,0.0,0.0,0.0,0.0,0.0,0.0,0.0,0.0,0.0,0.0,0.0,0.0,0.0,0.0,0.0,0.0,0.0,0.0,0.0,0.0,0.0,0.0,0.0,0.0,0.0,0.0,0.0,0.0,0.0,0.0,0.0,0.0,0.0,0.0,0.0,0.0,0.0,0.0,0.0,0.0,0.0,0.0,0.0,0.0,0.0,0.0,0.0,0.0,0.0,0.0,0.0,0.0,0.0,0.0,0.0,0.0,0.0,-5.3185,-5.3185,-5.3185,-5.3185,-5.3185,-5.2875,0.0,0.0,0.0,0.0,0.0,0.0,0.0,0.0,0.0,0.0,0.0,0.0,0.0,0.0,0.0,0.0,0.0,0.0,0.0,0.0,0.0,0.0,0.0,0.0,0.0,0.0,0.0,0.0,0.0,0.0,0.0,0.0,0.0,0.0,0.0,0.0,0.0,0.0,0.0,0.0,0.0,0.0,0.0,0.0,0.0,0.0,0.0,0.0,0.0,0.0,0.0,0.0,0.0,0.0,0.0,0.0,0.0,0.0,0.0,0.0,0.0,0.0,0.0,0.0,0.0,0.0,0.0,0.0,0.0,0.0,0.0,0.0,0.0,0.0,0.0,0.0,0.0,0.0,0.0,0.0,0.0,0.0,0.0,0.0,0.0,0.0,0.0,0.0,0.0,0.0,0.0,0.0,0.0,0.0,0.0,0.0,0.0,0.0,0.0,0.0,0.0,0.0,0.0,0.0,0.0,0.0,0.0,0.0,0.0,-5.3185,-5.3185,-5.3185,-5.3203,-5.2729,-5.2381,0.0,0.0,0.0,0.0,0.0,0.0,0.0,0.0,0.0,0.0,0.0,0.0,0.0,0.0,0.0,0.0,0.0,0.0,0.0,0.0,0.0,0.0,0.0,0.0,0.0,0.0,0.0,0.0,0.0,0.0,0.0,0.0,0.0,0.0,0.0,0.0,0.0,0.0,0.0,0.0,0.0,0.0,0.0,0.0,0.0,0.0,0.0,0.0,0.0,0.0,0.0,0.0,0.0,0.0,0.0,0.0,0.0,0.0,0.0,0.0,0.0,0.0,0.0,0.0,0.0,0.0,0.0,0.0,0.0,0.0,0.0,0.0,0.0,0.0,0.0,0.0,0.0,0.0,0.0,0.0,0.0,0.0,0.0,0.0,0.0,0.0,0.0,0.0,0.0,0.0,0.0,0.0,0.0,0.0,0.0,0.0,0.0,0.0,0.0,0.0,0.0,0.0,0.0,0.0,0.0,0.0,0.0,0.0,0.0,-5.3185,0.0,-5.3185,-5.3164,-5.249,-5.2,0.0,0.0,0.0,0.0,0.0,0.0,0.0,0.0,0.0,0.0,0.0,0.0,0.0,0.0,0.0,0.0,0.0,0.0,0.0,0.0,0.0,0.0,0.0,0.0,0.0,0.0,0.0,0.0,0.0,0.0,0.0,0.0,0.0,0.0,0.0,0.0,0.0,0.0,0.0,0.0,0.0,0.0,0.0,0.0,0.0,0.0,0.0,0.0,0.0,0.0,0.0,0.0,0.0,0.0,0.0,0.0,0.0,0.0,0.0,0.0,0.0,0.0,0.0,0.0,0.0,0.0,0.0,0.0,0.0,0.0,0.0,0.0,0.0,0.0,0.0,0.0,0.0,0.0,0.0,0.0,0.0,0.0,0.0,0.0,0.0,0.0,0.0,0.0,0.0,0.0,0.0,0.0,0.0,0.0,0.0,0.0,0.0,0.0,0.0,0.0,0.0,0.0,0.0,0.0,0.0,0.0,0.0,0.0,-5.3164,-5.3164,-5.3143,-5.3082,-5.3146,-5.2422,-5.1741,0.0,0.0,0.0,0.0,0.0,0.0,0.0,0.0,0.0,0.0,0.0,0.0,0.0,0.0,0.0,0.0,0.0,0.0,0.0,0.0,0.0,0.0,0.0,0.0,0.0,0.0,0.0,0.0,0.0,0.0,0.0,0.0,0.0,0.0,0.0,0.0,0.0,0.0,0.0,0.0,0.0,0.0,0.0,0.0,0.0,0.0,0.0,0.0,0.0,0.0,0.0,0.0,0.0,0.0,0.0,0.0,0.0,0.0,0.0,0.0,0.0,0.0,0.0,0.0,0.0,0.0,0.0,0.0,0.0,0.0,0.0,0.0,0.0,0.0,0.0,0.0,0.0,0.0,0.0,0.0,0.0,0.0,0.0,0.0,0.0,0.0,0.0,0.0,0.0,0.0,0.0,0.0,0.0,0.0,0.0,0.0,0.0,0.0,0.0,0.0,0.0,0.0,0.0,0.0,0.0,0.0,0.0,0.0,0.0,-5.1752,-5.1752,-5.1752,-5.171,-5.1034,-5.0554,0.0,0.0,0.0,0.0,0.0,0.0,0.0,0.0,0.0,0.0,0.0,0.0,0.0,0.0,0.0,0.0,0.0,0.0,0.0,0.0,0.0,0.0,0.0,0.0,0.0,0.0,0.0,0.0,0.0,0.0,0.0,0.0,0.0,0.0,0.0,0.0,0.0,0.0,0.0,0.0,0.0,0.0,0.0,0.0,0.0,0.0,0.0,0.0,0.0,0.0,0.0,0.0,0.0,0.0,0.0,0.0,0.0,0.0,0.0,0.0,0.0,0.0,0.0,0.0,0.0,0.0,0.0,0.0,0.0,0.0,0.0,0.0,0.0,0.0,0.0,0.0,0.0,0.0,0.0,0.0,0.0,0.0,0.0,0.0,0.0,0.0,0.0,0.0,0.0,0.0,0.0,0.0,0.0,0.0,0.0,0.0,0.0,0.0,0.0,0.0,0.0,0.0,0.0,0.0,0.0,0.0,0.0,0.0,0.0,-5.0324,-5.0841,-5.1086,-5.1086,-5.0362,-4.9987,-4.9959,0.0,0.0,0.0,0.0,0.0,0.0,0.0,0.0,0.0,0.0,0.0,0.0,0.0,0.0,0.0,0.0,0.0,0.0,0.0,0.0,0.0,0.0,0.0,0.0,0.0,0.0,0.0,0.0,0.0,0.0,0.0,0.0,0.0,0.0,0.0,0.0,0.0,0.0,0.0,0.0,0.0,0.0,0.0,0.0,0.0,0.0,0.0,0.0,0.0,0.0,0.0,0.0,0.0,0.0,0.0,0.0,0.0,0.0,0.0,0.0,0.0,0.0,0.0,0.0,0.0,0.0,0.0,0.0,0.0,0.0,0.0,0.0,0.0,0.0,0.0,0.0,0.0,0.0,0.0,0.0,0.0,0.0,0.0,0.0,0.0,0.0,0.0,0.0,0.0,0.0,0.0,0.0,0.0,0.0,0.0,0.0,0.0,0.0,0.0,0.0,0.0,0.0,0.0,0.0,0.0,0.0,0.0,0.0,-4.9001,-5.0269,-5.0955,-5.0929,-5.0297,-4.9947,0.0,0.0,0.0,0.0,0.0,0.0,0.0,0.0,0.0,0.0,0.0,0.0,0.0,0.0,0.0,0.0,0.0,0.0,0.0,0.0,0.0,0.0,0.0,0.0,0.0,0.0,0.0,0.0,0.0,0.0,0.0,0.0,0.0,0.0,0.0,0.0,0.0,0.0,0.0,0.0,0.0,0.0,0.0,0.0,0.0,0.0,0.0,0.0,0.0,0.0,0.0,0.0,0.0,0.0,0.0,0.0,0.0,0.0,0.0,0.0,0.0,0.0,0.0,0.0,0.0,0.0,0.0,0.0,0.0,0.0,0.0,0.0,0.0,0.0,0.0,0.0,0.0,0.0,0.0,0.0,0.0,0.0,0.0,0.0,0.0,0.0,0.0,0.0,0.0,0.0,0.0,0.0,0.0,0.0,0.0,0.0,0.0,0.0,0.0,0.0,0.0,0.0,0.0,0.0,0.0,0.0,0.0,0.0,0.0,-4.9032,-4.9376,-4.9568,-4.9551,-4.9359,-4.9256,0.0,0.0,0.0,0.0,0.0,0.0,0.0,0.0,0.0,0.0,0.0,0.0,0.0,0.0,0.0,0.0,0.0,0.0,0.0,0.0,0.0,0.0,0.0,0.0,0.0,0.0,0.0,0.0,0.0,0.0,0.0,0.0,0.0,0.0,0.0,0.0,0.0,0.0,0.0,0.0,0.0,0.0,0.0,0.0,0.0,0.0,0.0,0.0,0.0,0.0,0.0,0.0,0.0,0.0,0.0,0.0,0.0,0.0,0.0,0.0,0.0,0.0,0.0,0.0,0.0,0.0,0.0,0.0,0.0,0.0,0.0,0.0,0.0,0.0,0.0,0.0,0.0,0.0,0.0,0.0,0.0,0.0,0.0,0.0,0.0,0.0,0.0,0.0,0.0,0.0,0.0,0.0,0.0,0.0,0.0,0.0,0.0,0.0,0.0,0.0,0.0,0.0,0.0,0.0,0.0,0.0,0.0,0.0,-4.9018,-4.9018,-4.9018,-4.9018,-4.9018,-4.9018,-4.9018,0.0,0.0,0.0,0.0,0.0,0.0,0.0,0.0,0.0,0.0,0.0,0.0,0.0,0.0,0.0,0.0,0.0,0.0,0.0,0.0,0.0,0.0,0.0,0.0,0.0,0.0,0.0,0.0,0.0,0.0,0.0,0.0,0.0,0.0,0.0,0.0,0.0,0.0,0.0,0.0,0.0,0.0,0.0,0.0,0.0,0.0,0.0,0.0,0.0,0.0,0.0,0.0,0.0,0.0,0.0,0.0,0.0,0.0,0.0,0.0,0.0,0.0,0.0,0.0,0.0,0.0,0.0,0.0,0.0,0.0,0.0,0.0,0.0,0.0,0.0,0.0,0.0,0.0,0.0,0.0,0.0,0.0,0.0,0.0,0.0,0.0,0.0,0.0,0.0,0.0,0.0,0.0,0.0,0.0,0.0,0.0,0.0,0.0,0.0,0.0,0.0,0.0,0.0,0.0,0.0,0.0,0.0,0.0,-4.9018,-4.9018,-4.9018,-4.9018,-4.9018,-4.9018,-4.9018,0.0,0.0,0.0,0.0,0.0,0.0,0.0,0.0,0.0,0.0,0.0,0.0,0.0,0.0,0.0,0.0,0.0,0.0,0.0,0.0,0.0,0.0,0.0,0.0,0.0,0.0,0.0,0.0,0.0,0.0,0.0,0.0,0.0,0.0,0.0,0.0,0.0,0.0,0.0,0.0,0.0,0.0,0.0,0.0,0.0,0.0,0.0,0.0,0.0,0.0,0.0,0.0,0.0,0.0,0.0,0.0,0.0,0.0,0.0,0.0,0.0,0.0,0.0,0.0,0.0,0.0,0.0,0.0,0.0,0.0,0.0,0.0,0.0,0.0,0.0,0.0,0.0,0.0,0.0,0.0,0.0,0.0,0.0,0.0,0.0,0.0,0.0,0.0,0.0,0.0,0.0,0.0,0.0,0.0,0.0,0.0,0.0,0.0,0.0,0.0,0.0,0.0,0.0,0.0,0.0,0.0,0.0,0.0,-4.9018,-4.9018,-4.9018,-4.9018,-4.9018,-4.9018,-4.9018,0.0,0.0,0.0,0.0,0.0,0.0,0.0,0.0,0.0,0.0,0.0,0.0,0.0,0.0,0.0,0.0,0.0,0.0,0.0,0.0,0.0,0.0,0.0,0.0,0.0,0.0,0.0,0.0,0.0,0.0,0.0,0.0,0.0,0.0,0.0,0.0,0.0,0.0,0.0,0.0,0.0,0.0,0.0,0.0,0.0,0.0,0.0,0.0,-3.9388,0.0,0.0,0.0,0.0,0.0,0.0,0.0,0.0,0.0,0.0,0.0,0.0,0.0,0.0,0.0,0.0,0.0,0.0,0.0,0.0,0.0,0.0,0.0,0.0,0.0,0.0,0.0,0.0,0.0,0.0,0.0,0.0,0.0,0.0,0.0,0.0,0.0,0.0,0.0,0.0,0.0,0.0,0.0,0.0,0.0,0.0,0.0,0.0,0.0,0.0,0.0,0.0,0.0,0.0,0.0,0.0,0.0,0.0,0.0,-4.9018,-4.9018,-4.9018,-4.9018,-4.9018,-4.9018,-4.9018,0.0,0.0,0.0,0.0,0.0,0.0,0.0,0.0,0.0,0.0,0.0,0.0,0.0,0.0,0.0,0.0,0.0,0.0,0.0,0.0,0.0,0.0,0.0,0.0,0.0,0.0,0.0,0.0,0.0,0.0,0.0,0.0,0.0,0.0,0.0,0.0,0.0,0.0,0.0,0.0,0.0,0.0,0.0,0.0,0.0,0.0,0.0,0.0,0.0,0.0,0.0,0.0,0.0,0.0,0.0,0.0,0.0,0.0,0.0,0.0,0.0,0.0,0.0,0.0,0.0,0.0,0.0,0.0,0.0,0.0,0.0,0.0,0.0,0.0,0.0,0.0,0.0,0.0,0.0,0.0,0.0,0.0,0.0,0.0,0.0,0.0,0.0,0.0,0.0,0.0,0.0,0.0,0.0,0.0,0.0,0.0,0.0,0.0,0.0,0.0,0.0,0.0,0.0,0.0,0.0,0.0,0.0,-4.9018,-4.9018,-4.9018,-4.9018,-4.9018,-4.9018,-4.9018,-4.9018,-4.9018,0.0,0.0,0.0,0.0,0.0,0.0,0.0,0.0,0.0,0.0,0.0,0.0,0.0,0.0,0.0,0.0,0.0,0.0,0.0,0.0,0.0,0.0,0.0,0.0,0.0,0.0,0.0,0.0,0.0,0.0,0.0,0.0,0.0,0.0,0.0,0.0,0.0,0.0,-3.7464,-3.8631,0.0,0.0,0.0,0.0,0.0,0.0,0.0,0.0,-3.9499,0.0,0.0,0.0,0.0,0.0,0.0,0.0,0.0,0.0,0.0,0.0,0.0,0.0,0.0,0.0,0.0,0.0,0.0,0.0,0.0,0.0,0.0,0.0,0.0,0.0,0.0,0.0,0.0,0.0,0.0,0.0,0.0,0.0,0.0,0.0,0.0,0.0,0.0,0.0,0.0,0.0,0.0,0.0,0.0,0.0,0.0,0.0,0.0,0.0,0.0,0.0,0.0,0.0,0.0,0.0,0.0,-4.9018,-4.9018,-4.9018,-4.9018,-4.9018,-4.9018,-4.9018,-4.9018,-4.9018,-4.9018,0.0,0.0,0.0,0.0,0.0,0.0,0.0,0.0,0.0,0.0,0.0,0.0,0.0,0.0,0.0,0.0,0.0,0.0,0.0,0.0,0.0,0.0,0.0,0.0,0.0,0.0,0.0,0.0,0.0,0.0,0.0,0.0,0.0,0.0,0.0,0.0,0.0,0.0,0.0,-3.8916,-3.9388,0.0,0.0,0.0,0.0,0.0,0.0,0.0,0.0,-4.0247,0.0,0.0,0.0,0.0,0.0,0.0,0.0,0.0,0.0,0.0,0.0,0.0,0.0,0.0,0.0,0.0,0.0,0.0,0.0,0.0,0.0,0.0,0.0,0.0,0.0,0.0,0.0,0.0,0.0,0.0,0.0,0.0,0.0,0.0,0.0,0.0,0.0,0.0,0.0,0.0,0.0,0.0,0.0,0.0,0.0,0.0,0.0,0.0,0.0,0.0,0.0,0.0,0.0,0.0,0.0,-4.9018,-4.9018,-4.9018,-4.9018,-4.9018,-4.9018,-4.9018,-4.9018,-4.9018,0.0,0.0,0.0,0.0,0.0,0.0,0.0,0.0,0.0,0.0,0.0,0.0,0.0,0.0,0.0,0.0,0.0,0.0,0.0,0.0,0.0,0.0,0.0,0.0,0.0,0.0,0.0,0.0,0.0,0.0,0.0,0.0,0.0,0.0,0.0,0.0,0.0,0.0,0.0,0.0,-3.9215,-3.9388,-3.9388,0.0,0.0,0.0,0.0,0.0,0.0,-4.0187,-4.0636,0.0,0.0,0.0,0.0,0.0,0.0,0.0,0.0,0.0,0.0,0.0,0.0,0.0,0.0,0.0,0.0,0.0,0.0,0.0,0.0,0.0,0.0,0.0,0.0,0.0,0.0,0.0,0.0,0.0,0.0,0.0,0.0,0.0,0.0,0.0,0.0,0.0,0.0,0.0,0.0,0.0,0.0,0.0,0.0,0.0,0.0,0.0,0.0,0.0,0.0,0.0,0.0,0.0,0.0,0.0,-4.9018,-4.9018,-4.9018,-4.9018,-4.9018,-4.9018,-4.9018,-4.9018,-4.8892,0.0,0.0,0.0,0.0,0.0,0.0,0.0,0.0,0.0,0.0,0.0,0.0,0.0,0.0,0.0,0.0,0.0,0.0,0.0,0.0,0.0,0.0,0.0,0.0,0.0,0.0,0.0,0.0,0.0,0.0,0.0,0.0,0.0,0.0,0.0,0.0,0.0,0.0,0.0,0.0,0.0,-3.9388,-3.9388,-3.9388,0.0,0.0,0.0,0.0,-4.0127,-4.0412,0.0,0.0,0.0,0.0,0.0,0.0,0.0,0.0,0.0,0.0,0.0,0.0,0.0,0.0,0.0,0.0,0.0,0.0,0.0,0.0,0.0,0.0,0.0,0.0,0.0,0.0,0.0,0.0,0.0,0.0,0.0,0.0,0.0,0.0,0.0,0.0,0.0,0.0,0.0,0.0,0.0,0.0,0.0,0.0,0.0,0.0,0.0,0.0,0.0,0.0,0.0,0.0,0.0,0.0,0.0,0.0,-4.9018,-4.9018,-4.9018,-4.9018,-4.9018,-4.9018,-4.9018,-4.9018,-4.8608,0.0,0.0,0.0,0.0,0.0,0.0,0.0,0.0,0.0,0.0,0.0,0.0,0.0,0.0,0.0,0.0,0.0,0.0,0.0,0.0,0.0,0.0,0.0,0.0,0.0,0.0,0.0,0.0,0.0,0.0,0.0,0.0,0.0,0.0,0.0,0.0,0.0,0.0,0.0,0.0,0.0,-3.9388,-3.9388,-3.9388,-3.9388,0.0,0.0,-3.9439,-3.9514,-4.0502,0.0,0.0,0.0,0.0,0.0,0.0,0.0,0.0,0.0,0.0,0.0,0.0,0.0,0.0,0.0,0.0,0.0,0.0,0.0,0.0,0.0,0.0,0.0,0.0,0.0,0.0,0.0,0.0,0.0,0.0,0.0,0.0,0.0,0.0,0.0,0.0,0.0,0.0,0.0,0.0,0.0,0.0,0.0,0.0,0.0,0.0,0.0,0.0,0.0,0.0,0.0,0.0,0.0,0.0,0.0,-4.9018,-4.9018,-4.9018,-4.9018,-4.9018,-4.9018,-4.9018,-4.9001,-4.8482,-4.8015,0.0,0.0,0.0,0.0,0.0,0.0,0.0,0.0,0.0,0.0,0.0,0.0,0.0,0.0,0.0,0.0,0.0,0.0,0.0,0.0,0.0,0.0,0.0,0.0,0.0,0.0,0.0,0.0,0.0,0.0,0.0,0.0,0.0,0.0,0.0,0.0,0.0,0.0,0.0,0.0,0.0,0.0,-3.7648,-3.761,0.0,0.0,0.0,-3.7739,-3.8097,0.0,0.0,0.0,0.0,0.0,0.0,0.0,0.0,0.0,0.0,0.0,0.0,0.0,0.0,0.0,0.0,0.0,0.0,0.0,0.0,0.0,0.0,0.0,0.0,0.0,0.0,0.0,0.0,0.0,0.0,0.0,0.0,0.0,0.0,0.0,0.0,0.0,0.0,0.0,0.0,0.0,0.0,0.0,0.0,0.0,0.0,0.0,0.0,0.0,0.0,0.0,0.0,0.0,0.0,0.0,0.0,0.0,-4.9018,-4.9018,-4.9018,-4.9018,-4.9018,-4.8909,-4.8656,-4.7982,0.0,0.0,0.0,0.0,0.0,0.0,0.0,0.0,0.0,0.0,0.0,0.0,0.0,0.0,0.0,0.0,0.0,0.0,0.0,0.0,0.0,0.0,0.0,0.0,0.0,0.0,0.0,-3.898,0.0,0.0,0.0,0.0,0.0,0.0,0.0,0.0,0.0,0.0,0.0,0.0,0.0,0.0,-3.7098,-3.6316,-3.6198,-3.6198,0.0,0.0,-3.6419,-3.7054,-3.7662,-3.813,0.0,0.0,0.0,0.0,0.0,0.0,0.0,0.0,0.0,0.0,0.0,0.0,0.0,0.0,0.0,0.0,0.0,0.0,0.0,0.0,0.0,0.0,0.0,0.0,0.0,0.0,0.0,0.0,0.0,0.0,0.0,0.0,0.0,0.0,0.0,0.0,0.0,0.0,0.0,0.0,0.0,0.0,0.0,0.0,0.0,0.0,0.0,0.0,0.0,0.0,0.0,0.0,0.0,0.0,0.0,-4.9018,-4.9001,-4.9001,-4.9001,-4.9018,-4.8576,-4.7721,-4.7622,-4.6763,0.0,0.0,0.0,0.0,0.0,0.0,0.0,0.0,0.0,0.0,0.0,0.0,0.0,0.0,0.0,0.0,0.0,0.0,0.0,0.0,0.0,0.0,0.0,0.0,0.0,0.0,0.0,0.0,0.0,0.0,0.0,0.0,0.0,0.0,0.0,0.0,0.0,0.0,0.0,0.0,0.0,-3.6277,-3.6198,-3.6198,-3.6198,0.0,0.0,-3.6419,-3.7014,-3.7662,-3.7878,-3.7321,0.0,0.0,0.0,0.0,0.0,0.0,0.0,0.0,0.0,0.0,0.0,0.0,0.0,0.0,0.0,0.0,0.0,0.0,0.0,0.0,0.0,0.0,0.0,0.0,0.0,0.0,0.0,0.0,0.0,0.0,0.0,0.0,0.0,0.0,0.0,0.0,0.0,0.0,0.0,0.0,0.0,0.0,0.0,0.0,0.0,0.0,0.0,0.0,0.0,0.0,0.0,0.0,0.0,-4.9018,-4.9018,-4.845,-4.8129,-4.8129,-4.7572,-4.7104,-4.6747,-4.6205,-4.5541,0.0,0.0,0.0,0.0,0.0,0.0,0.0,0.0,0.0,0.0,0.0,0.0,0.0,0.0,0.0,0.0,0.0,0.0,0.0,0.0,0.0,0.0,0.0,0.0,0.0,0.0,0.0,0.0,-3.6436,-3.6422,-3.54,0.0,0.0,0.0,0.0,0.0,0.0,0.0,0.0,0.0,0.0,-3.5181,-3.4803,-3.4783,0.0,0.0,-3.5249,-3.534,-3.5618,-3.6126,-3.6404,-3.6153,-3.6652,0.0,0.0,0.0,0.0,0.0,0.0,0.0,0.0,0.0,0.0,0.0,0.0,0.0,0.0,0.0,0.0,0.0,0.0,0.0,0.0,0.0,0.0,0.0,0.0,0.0,0.0,0.0,0.0,0.0,0.0,0.0,0.0,0.0,0.0,0.0,0.0,0.0,0.0,0.0,0.0,0.0,0.0,0.0,0.0,0.0,0.0,0.0,0.0,0.0,0.0,0.0,0.0,-4.8593,-4.8593,-4.7655,-4.7205,-4.7155,-4.6523,-4.6083,-4.5762,-4.5153,-4.4662,0.0,0.0,0.0,0.0,0.0,0.0,0.0,0.0,0.0,0.0,0.0,0.0,0.0,0.0,0.0,0.0,0.0,0.0,0.0,0.0,0.0,0.0,0.0,0.0,0.0,0.0,0.0,0.0,-3.5047,-3.5007,-3.4304,0.0,0.0,0.0,0.0,0.0,0.0,0.0,0.0,0.0,0.0,-3.4353,-3.3966,-3.4048,-3.4274,-3.4663,-3.468,-3.4743,-3.4906,-3.5257,-3.5545,-3.5721,0.0,0.0,0.0,0.0,0.0,0.0,0.0,0.0,0.0,0.0,0.0,0.0,0.0,0.0,0.0,0.0,0.0,0.0,0.0,0.0,0.0,0.0,0.0,0.0,0.0,0.0,0.0,0.0,0.0,0.0,-5.6964,0.0,0.0,0.0,0.0,0.0,0.0,0.0,0.0,0.0,0.0,0.0,0.0,0.0,0.0,0.0,0.0,0.0,0.0,0.0,0.0,0.0,0.0,-4.7671,-4.7638,-4.6728,-4.624,-4.624,-4.6189,-4.5773,-4.4918,-4.4827,-4.4335,-4.3409,0.0,0.0,0.0,0.0,0.0,0.0,0.0,0.0,0.0,0.0,0.0,0.0,0.0,0.0,0.0,0.0,0.0,0.0,0.0,0.0,0.0,0.0,0.0,0.0,0.0,0.0,-3.4733,-3.3797,-3.3197,0.0,0.0,0.0,0.0,0.0,0.0,0.0,0.0,0.0,0.0,-3.3589,-3.3928,-3.3922,-3.4374,-3.4726,-3.4751,-3.4718,-3.4926,-3.5408,-3.5495,-3.5683,0.0,0.0,0.0,0.0,0.0,0.0,0.0,0.0,0.0,0.0,0.0,0.0,0.0,0.0,0.0,0.0,0.0,0.0,0.0,0.0,0.0,0.0,0.0,0.0,0.0,0.0,0.0,-5.754,-5.7886,0.0,0.0,0.0,0.0,0.0,0.0,0.0,0.0,0.0,0.0,0.0,-5.3078,-5.2553,0.0,0.0,0.0,0.0,0.0,0.0,0.0,0.0,0.0,0.0,0.0,0.0,-4.782,-4.8163,-4.6681,-4.6072,-4.6472,-4.592,-4.5456,-4.5127,-4.4703,-4.4122,-4.3344,0.0,0.0,0.0,0.0,0.0,0.0,0.0,0.0,0.0,0.0,0.0,0.0,0.0,0.0,0.0,0.0,0.0,0.0,0.0,0.0,0.0,0.0,0.0,0.0,0.0,-3.4774,0.0,0.0,0.0,0.0,0.0,0.0,0.0,0.0,0.0,0.0,0.0,-3.3621,-3.3621,-3.4098,-3.4575,-3.4893,-3.5107,-3.5391,0.0,0.0,0.0,0.0,0.0,0.0,0.0,0.0,0.0,0.0,0.0,0.0,0.0,0.0,-3.6417,-3.6417,-3.6417,-3.6417,-3.6417,0.0,0.0,0.0,0.0,0.0,0.0,0.0,0.0,0.0,0.0,0.0,0.0,0.0,0.0,-5.7184,0.0,-5.6268,0.0,0.0,0.0,0.0,0.0,0.0,0.0,0.0,-5.3518,-5.3518,-5.3484,-5.2959,-5.2723,0.0,-5.1961,-5.1352,0.0,0.0,0.0,0.0,0.0,0.0,0.0,0.0,-4.7804,-4.8402,-4.6557,-4.5773,-4.6162,-4.5589,-4.5289,-4.5289,-4.4661,-4.4107,-4.3648,-4.3409,-4.3305,0.0,0.0,0.0,0.0,0.0,0.0,0.0,0.0,0.0,0.0,0.0,0.0,0.0,0.0,0.0,0.0,0.0,0.0,0.0,0.0,0.0,0.0,0.0,-3.3869,0.0,0.0,0.0,0.0,0.0,0.0,0.0,0.0,0.0,-3.3357,-3.3671,-3.3972,-3.4161,-3.4618,-3.5094,-3.5445,0.0,0.0,0.0,0.0,0.0,0.0,0.0,-3.6417,-3.6417,-3.6417,-3.6417,-3.6417,-3.6417,-3.6417,-3.6417,0.0,0.0,-3.6417,-3.6417,-3.6417,-3.6417,-3.6081,-3.5931,-3.6329,-3.6069,-3.5931,0.0,0.0,0.0,0.0,0.0,0.0,0.0,0.0,-5.7159,-5.6861,0.0,-5.5948,0.0,0.0,0.0,0.0,0.0,-5.3501,0.0,0.0,-5.3518,-5.3518,-5.3518,-5.3501,-5.3501,-5.345,-5.2706,-5.2317,-5.2198,-5.0845,0.0,0.0,0.0,0.0,0.0,0.0,-4.7593,-4.8248,-4.6367,-4.5376,-4.5421,-4.5379,-4.5349,-4.5319,-4.4736,-4.4377,-4.4287,-4.3678,-4.3319,-4.3305,-4.3305,0.0,0.0,0.0,0.0,0.0,0.0,0.0,0.0,0.0,0.0,0.0,0.0,0.0,0.0,0.0,0.0,0.0,0.0,0.0,0.0,-3.3124,0.0,0.0,0.0,0.0,0.0,0.0,0.0,0.0,0.0,0.0,-3.3972,-3.3972,-3.4148,-3.4675,0.0,0.0,0.0,0.0,-3.643,-3.6455,-3.6455,-3.6468,-3.648,-3.648,-3.648,-3.648,0.0,0.0,-3.6417,-3.6417,-3.6417,-3.6417,-3.6417,-3.6417,-3.6417,-3.6417,-3.6417,-3.6417,-3.6392,-3.6405,-3.6405,-3.6238,-3.6178,-5.7978,0.0,0.0,0.0,0.0,-5.7978,-5.7703,-5.7159,-5.6394,-5.6031,-5.5966,-5.4699,0.0,0.0,0.0,0.0,0.0,0.0,-5.3518,-5.3518,-5.3518,-5.3518,-5.3518,-5.3518,-5.3518,-5.3501,-5.3281,-5.2875,-5.23,-5.1877,-5.1302,-5.0591,0.0,0.0,0.0,0.0,-4.8333,-4.8839,-4.7048,-4.6262,-4.6726,-4.6726,-4.6501,-4.6037,-4.5843,-4.5304,-4.4306,-4.4137,-4.3768,-4.3319,-4.3305,0.0,0.0,0.0,0.0,0.0,0.0,0.0,0.0,0.0,0.0,0.0,0.0,0.0,0.0,0.0,0.0,0.0,0.0,0.0,-3.3197,-3.3124,-3.3124,0.0,0.0,0.0,0.0,0.0,0.0,0.0,0.0,0.0,-3.4981,-3.5077,-3.5082,0.0,0.0,-3.6132,-3.6132,-3.6596,-3.6996,-3.6948,-3.7274,0.0,0.0,-3.7525,-3.7538,-3.7538,-3.7211,-3.6822,-3.648,-3.6417,-3.6417,-3.6417,-3.6417,-3.6417,-3.6417,-3.6417,-3.6417,-3.6417,-3.6417,-3.6417,-3.637,-3.5667,-3.4981,-5.8309,-5.7978,-5.7978,-5.7978,-5.7978,-5.7978,-5.7589,-5.6843,-5.6049,-5.5535,-5.5173,-5.4044,-5.375,-5.4121,-5.3701,0.0,0.0,0.0,-5.3518,-5.3518,-5.3518,-5.3518,-5.3518,-5.3518,-5.3518,-5.3518,-5.3518,-5.3264,-5.2773,-5.279,-5.2553,-5.2064,0.0,0.0,-5.1011,-4.9469,-4.8811,-4.9032,-4.752,-4.6905,-4.7309,-4.7309,-4.7115,-4.6726,-4.6456,-4.5933,-4.514,-4.4586,-4.4082,-4.3708,-4.3439,-4.3305,0.0,0.0,0.0,0.0,0.0,0.0,0.0,0.0,0.0,0.0,0.0,-3.8069,0.0,0.0,0.0,0.0,-3.4664,-3.3797,-3.3167,-3.3124,0.0,0.0,0.0,0.0,0.0,0.0,0.0,-3.406,-3.4638,-3.5207,-3.5746,-3.6056,-3.6147,-3.6194,-3.6483,-3.682,-3.7033,0.0,-3.7513,-3.7513,-3.7801,-3.8002,-3.8002,-3.8002,-3.8002,-3.8002,-3.7739,-3.7425,-3.7086,-3.701,-3.7059,-3.701,-3.701,-3.6853,-3.6247,-3.6149,-3.6232,-3.6351,-3.6417,-3.6263,-3.5727,-3.4933,-3.4288,-5.8859,-5.8198,-5.818,-5.8107,-5.7997,-5.7978,-5.7589,-5.6843,-5.6031,-5.5291,-5.4575,-5.3832,-5.3518,-5.3501,-5.3518,0.0,-5.3518,-5.3518,-5.3518,-5.3518,-5.3518,-5.3518,-5.3518,-5.3518,-5.3518,-5.3518,-5.3518,-5.3518,-5.3501,-5.3501,-5.3518,-5.3467,-5.1981,-5.1145,-5.0832,-4.9907,-4.9203,-4.8769,-4.7792,-4.7309,-4.7309,-4.7309,-4.7309,-4.7294,-4.6711,-4.6367,-4.6249,-4.514,-4.4436,-4.4377,-4.3723,-4.3379,-4.3349,0.0,0.0,0.0,0.0,0.0,0.0,0.0,0.0,0.0,0.0,0.0,0.0,0.0,0.0,0.0,-3.3751,0.0,-3.3206,-3.325,0.0,0.0,0.0,-3.4173,-3.4618,-3.4705,-3.4931,-3.5445,0.0,0.0,-3.6405,-3.6908,-3.7211,-3.7312,-3.7274,-3.7425,-3.7927,-3.8027,-3.8078,-3.8078,-3.8128,-3.8153,-3.8253,-3.8228,-3.8216,-3.814,-3.8078,-3.8052,-3.7952,-3.7952,-3.799,-3.7927,-3.799,-3.7606,-3.6213,-3.6114,-3.6038,-3.6314,-3.6175,-3.5755,-3.4662,-3.4181,-3.3684,-6.0015,-5.9832,-5.9832,-5.9116,-5.7997,-5.7978,-5.7589,-5.6843,-5.6031,-5.5291,-5.4558,-5.3849,-5.3518,-5.3518,-5.3518,-5.3518,-5.3518,-5.3518,-5.3518,-5.3518,-5.3518,-5.3518,-5.3518,-5.3518,-5.3518,-5.3518,-5.3518,-5.3518,-5.3518,-5.3518,-5.3518,-5.345,-5.2312,-5.1723,-5.1622,-5.0634,-4.9678,-4.8784,-4.7807,-4.7309,-4.7309,-4.7309,-4.7309,-4.7309,-4.716,-4.6845,-4.6294,-4.5965,-4.5603,-4.508,-4.4436,-4.4092,-4.4077,-4.2985,0.0,0.0,0.0,0.0,0.0,0.0,0.0,0.0,0.0,-3.7805,-3.7805,0.0,-3.4718,0.0,-3.411,-3.3884,-3.4286,-3.4336,0.0,0.0,-3.4525,-3.4575,-3.4713,-3.5056,-3.5357,-3.547,-3.5906,-3.637,-3.691,-3.7147,-3.75,-3.8366,-3.809,-3.7852,-3.8002,-3.8391,-3.8668,-3.8693,-3.9007,-3.9295,-3.9245,-3.9295,-3.9132,-3.873,-3.8668,-3.8517,-3.8078,-3.8002,-3.8002,-3.8002,-3.8002,-3.7854,-3.7518,-3.7494,-3.7008,-3.6126,-3.5071,-3.4177,-3.3826,-3.298,-3.2189,-6.0713,-6.0401,-6.0401,-5.9905,-5.9038,-5.8695,-5.8115,-5.735,-5.6211,-5.5278,-5.4537,-5.3854,-5.3518,-5.3518,-5.3518,-5.3518,-5.3518,-5.3518,-5.3518,-5.3518,-5.3518,-5.3518,-5.3518,-5.3518,-5.3518,-5.3518,-5.3518,-5.3518,-5.3518,-5.3518,-5.3518,-5.345,-5.2435,-5.1704,-5.1208,-5.0188,-4.915,-4.8141,-4.7566,-4.7309,-4.7309,-4.7309,-4.7309,-4.7309,-4.7309,-4.713,-4.677,-4.6471,-4.6157,-4.5753,-4.4825,-4.4317,-4.4302,-4.3344,-4.2791,0.0,0.0,0.0,0.0,0.0,0.0,0.0,0.0,0.0,0.0,0.0,-3.4702,-3.4715,-3.4413,-3.4387,-3.4655,-3.468,-3.4768,-3.5019,-3.5044,-3.519,-3.5416,-3.5717,-3.5994,-3.6245,-3.6546,-3.6935,-3.7475,-3.7776,-3.8202,-3.8844,-3.8806,-3.8755,-3.8781,-3.9044,-3.9233,-3.9309,-3.9496,-3.9697,-3.9697,-3.9697,-3.9597,-3.9372,-3.9233,-3.912,-3.8818,-3.8755,-3.8755,-3.8755,-3.8755,-3.8541,-3.7945,-3.7191,-3.6336,-3.4887,-3.3388,-3.2593,-3.2674,-3.2104,-3.1475,-6.1355,-6.0713,-6.0597,-6.053,-6.0463,-5.9582,-5.8805,-5.8131,-5.6526,-5.5424,-5.4702,-5.4059,-5.3788,-5.3788,-5.3788,-5.3788,-5.3788,-5.3771,-5.3788,-5.3788,-5.3788,-5.3788,-5.3788,-5.3788,-5.3788,-5.3788,-5.3788,-5.3788,-5.3788,-5.3788,-5.3703,-5.3516,-5.2506,-5.1468,-5.0436,-4.9322,-4.826,-4.7309,-4.7309,-4.7309,-4.7309,-4.7309,-4.7309,-4.7309,-4.7309,-4.7309,-4.7294,-4.6756,-4.6441,-4.6411,-4.5259,-4.4571,-4.4541,-4.3828,-4.3424,0.0,-4.2851,0.0,0.0,0.0,0.0,0.0,0.0,0.0,0.0,-3.5302,-3.4751,-3.4768,-3.4826,-3.4851,-3.4881,-3.4939,-3.5127,-3.5545,-3.5671,-3.5897,-3.6395,-3.6568,-3.6747,-3.7236,-3.7287,-3.75,-3.8052,-3.8567,-3.8919,-3.907,-3.9358,-3.9572,-3.9659,-3.9647,-3.9647,-3.9697,-3.9697,-3.9697,-3.9697,-3.9697,-3.9697,-3.9685,-3.9659,-3.9645,-3.9312,-3.9531,-3.9556,-3.9156,-3.9055,-3.8807,-3.7477,-3.614,-3.4869,-3.35,-3.2297,-3.1533,-3.1556,-3.1536,-3.1123,-6.2493,-6.229,-6.1622,-6.1362,-6.1263,-5.9766,-5.9072,-5.8878,-5.7298,-5.6196,-5.5497,-5.5326,-5.5276,-5.5259,-5.5294,-5.531,-5.5259,-5.5294,-5.531,-5.5259,-5.531,-5.531,-5.5294,-5.5294,-5.5294,-5.5294,-5.5294,-5.5259,-5.5294,-5.531,-5.4804,-5.3906,-5.2898,-5.1837,-5.0689,0.0,0.0,0.0,-4.7309,-4.7309,-4.7309,-4.7309,-4.7309,-4.7309,-4.7309,0.0,-4.7309,-4.7189,-4.713,-4.71,-4.6367,0.0,0.0,0.0,0.0,0.0,0.0,0.0,0.0,0.0,0.0,0.0,-3.8732,-3.759,-3.6411,-3.5315,-3.4914,-3.5295,-3.5345,-3.5579,-3.6006,-3.6091,-3.6094,-3.6254,-3.6609,-3.691,-3.7023,-3.7412,-3.7751,-3.7826,-3.7839,-3.8078,-3.8605,-3.8856,-3.9095,-3.9433,-3.9622,-3.9685,-3.9697,-3.9697,-3.9697,-3.9697,-3.9697,-3.9697,-3.9697,-3.9697,-3.9697,-3.9697,-3.9697,-3.9258,-3.84,-3.8961,-3.8699,-3.6888,-3.7091,-3.7477,-3.6042,-3.5453,-3.4792,-3.335,-3.2851,-3.2374,-3.1279,-3.1019,-3.0971,-6.3796,0.0,-6.2522,-6.1965,0.0,-5.9797,-5.9102,-5.9037,-5.7472,-5.6405,-5.5716,-5.5681,-5.5681,-5.5681,-5.5681,-5.5681,-5.5681,-5.5681,-5.5681,-5.5681,-5.5681,-5.5681,-5.5681,-5.5681,-5.5681,-5.5681,-5.5681,-5.5681,-5.5681,-5.5118,-5.4559,-5.3987,-5.2421,-5.1388,-5.077,-4.9457,-4.8341,-4.7309,-4.7309,-4.7309,-4.7309,-4.7309,-4.7309,-4.7309,0.0,0.0,0.0,0.0,0.0,0.0,0.0,0.0,0.0,0.0,0.0,-4.4796,-4.4481,-4.4112,-4.3773,-4.2188,-4.0841,-3.9956,-3.827,-3.6998,-3.6386,-3.5826,-3.5655,-3.5906,-3.5956,-3.6182,-3.6744,-3.682,-3.692,-3.7149,-3.7425,-3.7588,-3.7613,-3.7839,-3.8115,-3.8391,-3.8429,-3.8642,-3.9195,-3.927,-3.9383,-3.9647,-3.9697,-3.9697,-3.9697,-3.9697,-3.9697,-3.9697,-3.9697,-3.9697,-3.9697,-3.9697,-3.9697,-3.9697,-3.9697,-3.9413,-3.8739,-3.8582,-3.8084,-3.6661,-3.6433,-3.6108,-3.5453,-3.4736,-3.3957,-3.3237,-3.253,-3.1883,-3.1005,-3.0898,-3.0898,-6.4581,-6.3774,-6.2908,-6.2164,-6.1437,-5.9768,-5.8995,-5.8789,0.0,0.0,0.0,-5.6105,-5.6105,-5.6105,-5.6105,-5.6105,-5.6105,-5.6105,-5.6122,-5.6105,-5.6105,-5.6105,-5.6105,-5.6105,-5.6089,-5.6089,-5.6105,-5.6105,-5.6053,-5.4941,-5.4273,-5.395,-5.2134,-5.0978,-5.0641,-4.9883,-4.885,-4.7713,-4.7534,-4.7414,-4.7309,-4.7309,-4.7309,-4.7309,-4.7309,-4.7309,-4.7309,-4.7309,-4.7309,-4.7294,-4.6785,-4.6459,-4.6444,-4.5858,-4.5469,-4.5469,-4.5364,-4.5065,-4.4485,-4.2467,-4.0891,-3.998,-3.7911,-3.6656,-3.6568,-3.6556,-3.6606,-3.6694,-3.6694,-3.6883,-3.7274,-3.7324,-3.75,-3.7965,-3.8103,-3.8165,-3.8165,-3.8266,-3.8542,-3.8919,-3.9019,-3.9182,-3.9597,-3.9672,-3.9697,-3.9697,-3.9697,-3.9697,-3.9697,-3.9697,-3.9697,-3.9697,-3.9697,-3.9697,-3.9697,-3.9697,-3.9697,-3.9697,-3.9697,-3.9645,-3.9193,-3.8295,-3.7412,-3.6422,-3.5672,-3.4902,-3.4481,-3.3473,-3.2747,-3.269,-3.1767,-3.0898,-3.0898,-3.0898,-3.0898,-6.3615,-6.2742,-6.1956,-6.1551,-6.1292,-5.9707,-5.8676,-5.8065,-5.7836,-5.7679,-5.7577,-5.7594,-5.7577,-5.7577,-5.7594,-5.7577,-5.7577,-5.7577,-5.7577,0.0,-5.7594,-5.7594,-5.7577,-5.7577,-5.7594,-5.7577,-5.7577,-5.7577,-5.7468,-5.6424,-5.5404,-5.4459,-5.3244,-5.1812,-5.0381,-5.0138,-4.9733,-4.9045,-4.8431,-4.7878,-4.7324,-4.7309,-4.7309,-4.7309,-4.7309,-4.7309,-4.7309,-4.7309,-4.7309,-4.7309,-4.7234,-4.716,-4.7145,-4.6531,-4.613,-4.6115,-4.5618,-4.5244,-4.517,-4.3961,-4.2247,-4.0114,-3.8601,-3.7575,-3.7123,-3.7061,-3.7262,-3.7701,-3.7726,-3.7789,-3.7889,-3.7889,-3.7939,-3.8052,-3.8467,-3.8755,-3.8806,-3.9132,-3.9421,-3.9521,-3.9584,-3.9572,-3.9659,-3.9697,-3.9697,-3.9697,-3.9697,-3.9697,-3.9697,-3.9697,-3.9697,-3.9697,-3.9697,-3.9697,-3.9697,-3.9697,-3.9697,-3.9697,-3.9697,-3.931,-3.8137,-3.7624,-3.653,-3.4225,-3.3687,-3.3031,-3.1998,-3.1383,-3.1334,-3.1383,-3.1054,-3.0898,-3.0898,-3.0898,-3.0898,-6.4009,-6.3173,-6.237,-6.1796,-6.1275,-6.0118,-5.9421,-5.9049,-5.8676,-5.8271,-5.7898,-5.7881,-5.7881,-5.7881,-5.7881,-5.7881,-5.7881,-5.7881,-5.7881,-5.7881,-5.7881,-5.7881,-5.7881,-5.7881,-5.7881,-5.7881,-5.7881,-5.7881,-5.7755,-5.6181,-5.5068,-5.4505,-5.2856,-5.1576,-5.0795,-5.0734,-5.0436,-4.9793,-4.9149,-4.855,-4.7863,-4.7833,-4.7668,-4.7324,-4.7309,-4.7309,-4.7309,-4.7309,-4.7309,-4.7309,-4.7309,-4.7309,-4.7294,-4.701,-4.6845,-4.6845,-4.6561,-4.6217,-4.5858,-4.3791,-4.1817,-4.0059,-3.8736,-3.8052,-3.8103,-3.7814,-3.7739,-3.7965,-3.8002,-3.814,-3.8429,-3.8479,-3.8592,-3.8894,-3.917,-3.9308,-3.9384,-3.9521,-3.9697,-3.9697,-3.9697,-3.9697,-3.9697,-3.9697,-3.9697,-3.9697,-3.9697,-3.9697,-3.9697,-3.9697,-3.9697,-3.9697,-3.9697,-3.9697,-3.9697,-3.9697,-3.9697,-3.9697,-3.9697,-3.9089,-3.7743,-3.6972,-3.5442,-3.3575,-3.254,-3.171,-3.0947,-3.0898,-3.0898,-3.0898,-3.0898,-3.0898,-3.0898,-3.0898,-3.0898,-6.4229,-6.3413,-6.2818,-6.2115,-6.1335,-6.0653,-6.0266,-6.0047,-5.9505,-5.8846,-5.8186,-5.7966,-5.7881,-5.7881,-5.7881,-5.7881,-5.7881,-5.7881,-5.7881,-5.7881,-5.7881,-5.7881,-5.7881,-5.7881,-5.7881,-5.7881,-5.7881,-5.7881,-5.7628,-5.5651,-5.4321,-5.3699,-5.2063,-5.1229,-5.1229,-5.1229,-5.096,-5.042,-4.9957,-4.9359,-4.858,-4.8371,-4.8027,-4.7563,-4.7384,-4.7309,-4.7309,-4.7309,-4.7309,-4.7309,-4.7309,-4.7309,-4.7309,-4.7309,-4.7309,-4.7309,-4.7309,-4.7085,-4.6448,-4.4045,-4.2003,-4.079,-3.9547,-3.8892,-3.8994,-3.8655,-3.8391,-3.8391,-3.8429,-3.8605,-3.8969,-3.9057,-3.9233,-3.9647,-3.9697,-3.9672,-3.9685,-3.9697,-3.9697,-3.9697,-3.9697,-3.9697,-3.9697,-3.9697,-3.9697,-3.9697,-3.9697,-3.9697,-3.9697,-3.9697,-3.9697,-3.9697,-3.9697,-3.9697,-3.9697,-3.9697,-3.9697,-3.9697,-3.9362,-3.8635,-3.7465,-3.6097,-3.457,-3.3191,-3.193,-3.117,-3.0947,-3.0898,-3.0898,-3.0898,-3.0898,-3.0898,-3.0898,-3.0898,-3.0898,-6.3336,-6.2595,-6.2462,-6.1995,-6.1367,-6.1218,-6.0808,-6.0182,-6.003,-5.959,-5.893,-5.8186,-5.7915,-5.7881,-5.7881,-5.7881,-5.7881,-5.7881,-5.7881,-5.7881,-5.7881,-5.7881,-5.7881,-5.7881,-5.7881,-5.7881,-5.7881,-5.7881,-5.7755,-5.5651,-5.3585,-5.1727,-5.1308,-5.1229,-5.1229,-5.1229,-5.1137,-5.1139,-5.1079,-5.0421,-4.9269,-4.8596,-4.8252,-4.8207,-4.7608,-4.7309,-4.7309,-4.7309,-4.7309,-4.7309,-4.7309,-4.7309,-4.7309,-4.7309,-4.7309,-4.7309,-4.7309,-4.7264,-4.7118,-4.5886,-4.4369,-4.3243,-4.1794,-4.0637,-3.9726,-3.9546,-3.9534,-3.9484,-3.9496,-3.9496,-3.9609,-3.9597,-3.9597,-3.9672,-3.9697,-3.9697,-3.9697,-3.9697,-3.9697,-3.9697,-3.9697,-3.9697,-3.9697,-3.9697,-3.9697,-3.9697,-3.9697,-3.9697,-3.9697,-3.9697,-3.9697,-3.9697,-3.9697,-3.9697,-3.9697,-3.9697,-3.9697,-3.9594,-3.8582,-3.7796,-3.6918,-3.5211,-3.3191,-3.2747,-3.1872,-3.1005,-3.0898,-3.0898,-3.0898,-3.0898,-3.0898,-3.0898,-3.0898,-3.0898,-3.0898,-6.2719,-6.2398,-6.2398,-6.2212,-6.1958,-6.1941,-6.1755,-6.1434,-6.0994,-6.0655,-6.03,-5.9539,-5.8727,-5.7898,-5.7881,-5.7881,-5.7881,-5.7881,-5.7881,-5.7881,-5.7881,-5.7881,-5.7881,-5.7881,-5.7881,-5.7881,-5.7881,-5.7881,-5.75,-5.5667,-5.3455,-5.1433,-5.1229,-5.1229,-5.1229,-5.1229,-5.1229,-5.1229,-5.1229,-5.096,-5.0421,-4.9793,-4.9075,-4.8356,-4.8012,-4.7683,-4.7354,-4.7309,-4.7309,-4.7309,-4.7309,-4.7309,-4.7309,-4.7309,-4.7309,-4.7309,-4.7309,-4.696,-4.6196,-4.4978,-4.374,-4.2461,-4.1206,-4.0224,-3.98,-3.9697,-3.9697,-3.9697,-3.9697,-3.9697,-3.9697,-3.9697,-3.9697,-3.9697,-3.9697,-3.9697,-3.9697,-3.9697,-3.9697,-3.9697,-3.9697,-3.9697,-3.9697,-3.9697,-3.9697,-3.9697,-3.9697,-3.9697,-3.9697,-3.9697,-3.9697,-3.9697,-3.9697,-3.9697,-3.9697,-3.9697,-3.9697,-3.9478,-3.8465,-3.7412,-3.6097,-3.4615,-3.2907,-3.2035,-3.1383,-3.0947,-3.0898,-3.0898,-3.0898,-3.0898,-3.0898,-3.0898,-3.0898,-3.0898,-3.0898,-6.2398,-6.2398,-6.2398,-6.2398,-6.2398,-6.2398,-6.2398,-6.2347,-6.1806,-6.1501,-6.1247,-6.0672,-5.9708,-5.8575,-5.8304,-5.8101,-5.7898,-5.7881,-5.7881,-5.7881,-5.7881,-5.7881,-5.7881,-5.7881,-5.7881,-5.7881,-5.7881,-5.7608,-5.6887,-5.5109,-5.3105,-5.1479,-5.1229,-5.1229,-5.1229,-5.1229,-5.1229,-5.1229,-5.1229,-5.1229,-5.1139,-5.0704,-4.9883,-4.8686,-4.8371,-4.7982,-4.7339,-4.7309,-4.7309,-4.7309,-4.7309,-4.7309,-4.7309,-4.7309,-4.7309,-4.7309,-4.7309,-4.6916,-4.5973,-4.4734,-4.3456,-4.2217,-4.0932,-4.0083,-3.9788,-3.9697,-3.9697,-3.9697,-3.9697,-3.9697,-3.9697,-3.9697,-3.9697,-3.9697,-3.9697,-3.9697,-3.9697,-3.9697,-3.9697,-3.9697,-3.9697,-3.9697,-3.9697,-3.9697,-3.9697,-3.9697,-3.9697,-3.9697,-3.9697,-3.9697,-3.9697,-3.9697,-3.9697,-3.9697,-3.9697,-3.9697,-3.9697,-3.9258,-3.8255,-3.6433,-3.5288,-3.3856,-3.2416,-3.1383,-3.1064,-3.0898,-3.0898,-3.0898,-3.0898,-3.0898,-3.0898,-3.0898,-3.0898,-3.0898,-3.0898,-6.2398,-6.2398,-6.2398,-6.2398,-6.2398,-6.2398,-6.2398,-6.2381,-6.233,-6.1941,-6.1383,-6.1281,-6.0791,-5.9945,-5.9319,-5.8592,-5.7966,-5.7932,-5.7915,-5.7898,-5.7881,-5.7881,-5.7881,-5.7881,-5.7881,-5.7881,-5.7755,-5.6756,-5.4838,-5.3613,-5.235,-5.1261,-5.1229,-5.1229,-5.1229,-5.1229,-5.1229,-5.1229,-5.1229,-5.1229,-5.1229,-5.1137,-5.0496,-4.9314,-4.8626,-4.8027,-4.7399,-4.7309,-4.7309,-4.7309,-4.7309,-4.7309,-4.7309,-4.7309,-4.7309,-4.7309,-4.7309,-4.7251,-4.6975,-4.5824,-4.4549,-4.3361,-4.1923,-4.0932,-3.9839,-3.9697,-3.9697,-3.9697,-3.9697,-3.9697,-3.9697,-3.9697,-3.9697,-3.9697,-3.9697,-3.9697,-3.9697,-3.9697,-3.9697,-3.9697,-3.9697,-3.9697,-3.9697,-3.9697,-3.9697,-3.9697,-3.9697,-3.9697,-3.9697,-3.9697,-3.9697,-3.9697,-3.9697,-3.9697,-3.9697,-3.9697,-3.9697,-3.8973,-3.737,-3.5453,-3.4359,-3.3258,-3.1883,-3.0947,-3.0947,-3.0898,-3.0898,-3.0898,-3.0898,-3.0898,-3.0898,-3.0898,-3.0898,-3.0898,-3.0898,-6.2398,-6.2398,-6.2398,-6.2398,-6.2398,-6.2398,-6.2398,-6.2398,-6.2398,-6.2245,-6.2026,-6.1992,-6.1586,-6.0842,-6.0605,-5.9793,-5.8676,-5.8609,-5.8355,-5.7932,-5.7881,-5.7881,-5.7881,-5.7881,-5.7881,-5.7792,-5.7151,-5.5658,-5.3699,-5.3077,-5.232,-5.1386,-5.1229,-5.1229,-5.1229,-5.1229,-5.1229,-5.1229,-5.1229,-5.1229,-5.1229,-5.1229,-5.0601,-4.9404,-4.9075,-4.8401,-4.7339,-4.7309,-4.7309,-4.7309,-4.7309,-4.7309,-4.7309,-4.7309,-4.7309,-4.7309,-4.7309,-4.6975,-4.6121,-4.4932,-4.3646,-4.2363,-4.1119,-4.0275,-3.9788,-3.9697,-3.9697,-3.9697,-3.9697,-3.9697,-3.9697,-3.9697,-3.9697,-3.9697,-3.9697,-3.9697,-3.9697,-3.9697,-3.9697,-3.9697,-3.9697,-3.9697,-3.9697,-3.9697,-3.9697,-3.9697,-3.9697,-3.9697,-3.9697,-3.9697,-3.9697,-3.9697,-3.9697,-3.9697,-3.9697,-3.9697,-3.9413,-3.8149,-3.6649,-3.5057,-3.38,-3.2436,-3.1054,-3.0947,-3.0898,-3.0898,-3.0898,-3.0898,-3.0898,-3.0898,-3.0898,-3.0898,-3.0898,-3.0898,-3.0898,-6.2398,-6.2398,-6.2398,-6.2398,-6.2398,-6.2398,-6.2398,-6.2398,-6.2398,-6.2398,-6.2398,-6.2398,-6.211,-6.1704,-6.167,-6.0977,-5.9759,-5.9268,-5.8744,-5.8271,-5.8,-5.7881,-5.7881,-5.7881,-5.7881,-5.7628,-5.6376,-5.4681,-5.3017,-5.253,-5.1926,-5.1261,-5.1229,-5.1229,-5.1229,-5.1229,-5.1229,-5.1229,-5.1229,-5.1229,-5.1229,-5.1229,-5.0601,-4.9524,-4.9299,-4.8656,-4.7384,-4.7309,-4.7309,-4.7309,-4.7309,-4.7309,-4.7309,-4.7309,-4.7309,-4.7309,-4.7309,-4.6916,-4.5973,-4.4456,-4.3156,-4.2217,-4.0655,-3.9697,-3.9697,-3.9697,-3.9697,-3.9697,-3.9697,-3.9697,-3.9697,-3.9697,-3.9697,-3.9697,-3.9697,-3.9697,-3.9697,-3.9697,-3.9697,-3.9697,-3.9697,-3.9697,-3.9697,-3.9697,-3.9697,-3.9697,-3.9697,-3.9697,-3.9697,-3.9697,-3.9697,-3.9697,-3.9697,-3.9697,-3.9478,-3.9193,-3.8804,-3.7583,-3.5715,-3.4292,-3.3201,-3.1767,-3.1005,-3.0947,-3.0898,-3.0898,-3.0898,-3.0898,-3.0898,-3.0898,-3.0898,-3.0898,-3.0898,-3.0898,-3.0898,-6.2398,-6.2398,-6.2398,-6.2398,-6.2398,-6.2398,-6.2398,-6.2398,-6.2398,-6.2398,-6.2398,-6.2398,-6.2364,-6.2347,-6.2262,-6.1907,-6.0977,-5.9725,-5.9011,-5.8863,-5.8203,-5.7881,-5.7881,-5.7881,-5.7718,-5.7463,-5.5627,-5.4041,-5.2783,-5.185,-5.1308,-5.1229,-5.1229,-5.1229,-5.1229,-5.1229,-5.1229,-5.1229,-5.1229,-5.1229,-5.1229,-5.1229,-5.0601,-4.9464,-4.9299,-4.8656,-4.7369,-4.7309,-4.7309,-4.7309,-4.7309,-4.7309,-4.7309,-4.7309,-4.7309,-4.7309,-4.7309,-4.7266,-4.6887,-4.4826,-4.3442,-4.2786,-4.1082,-3.9697,-3.9697,-3.9697,-3.9697,-3.9697,-3.9697,-3.9697,-3.9697,-3.9697,-3.9697,-3.9697,-3.9697,-3.9697,-3.9697,-3.9697,-3.9697,-3.9697,-3.9697,-3.9697,-3.9697,-3.9697,-3.9697,-3.9697,-3.9697,-3.9697,-3.9697,-3.9697,-3.9697,-3.9697,-3.9697,-3.9697,-3.9193,-3.857,-3.7902,-3.7026,-3.4936,-3.3191,-3.2587,-3.1498,-3.1064,-3.0898,-3.0898,-3.0898,-3.0898,-3.0898,-3.0898,-3.0898,-3.0898,-3.0898,-3.0898,-3.0898,-3.0898,-6.2398,-6.2398,-6.2398,-6.2398,-6.2398,-6.2398,-6.2398,-6.2398,-6.2398,-6.2398,-6.2398,-6.2398,-6.2398,-6.2398,-6.2381,-6.1975,-6.1231,-6.0216,-5.9505,-5.8947,-5.8237,-5.7881,-5.7881,-5.7881,-5.7093,-5.577,-5.4961,-5.3569,-5.1972,-5.1386,-5.1229,-5.1229,-5.1229,-5.1229,-5.1229,-5.1229,-5.1229,-5.1229,-5.1229,-5.1229,-5.1229,-5.1214,-5.0571,-4.9479,-4.9299,-4.8641,-4.7414,-4.7309,-4.7309,-4.7309,-4.7309,-4.7309,-4.7309,-4.7309,-4.7309,-4.7309,-4.7309,-4.6829,-4.5913,-4.4503,-4.3109,-4.2168,-4.0655,-3.9839,-3.9697,-3.9697,-3.9697,-3.9697,-3.9697,-3.9697,-3.9697,-3.9697,-3.9697,-3.9697,-3.9697,-3.9697,-3.9697,-3.9697,-3.9697,-3.9697,-3.9697,-3.9697,-3.9697,-3.9697,-3.9697,-3.9697,-3.9697,-3.9697,-3.9697,-3.9697,-3.9697,-3.9697,-3.9697,-3.9645,-3.9245,-3.8084,-3.6703,-3.5988,-3.4236,-3.253,-3.193,-3.1556,-3.1112,-3.0898,-3.0898,-3.0898,-3.0898,-3.0898,-3.0898,-3.0898,-3.0898,-3.0898,-3.0898,-3.0898,-3.0898,-6.2398,-6.2398,-6.2398,-6.2398,-6.2398,-6.2398,-6.2398,-6.2398,-6.2398,-6.2398,-6.2398,-6.2398,-6.2398,-6.2398,-6.2398,-6.1975,-6.1247,-6.0469,-5.9708,-5.8981,-5.8237,-5.7881,-5.7881,-5.7881,-5.6773,-5.4961,-5.4589,-5.3412,-5.1308,-5.1229,-5.1229,-5.1229,-5.1229,-5.1229,-5.1229,-5.1229,-5.1229,-5.1229,-5.1229,-5.1229,-5.1169,-5.0943,-5.0361,-4.9449,-4.9075,-4.8401,-4.7399,-4.7309,-4.7309,-4.7309,-4.7309,-4.7309,-4.7309,-4.7309,-4.7309,-4.7309,-4.7207,-4.6726,-4.5494,-4.4256,-4.293,-4.1703,-4.0402,-3.9736,-3.9697,-3.9697,-3.9697,-3.9697,-3.9697,-3.9697,-3.9697,-3.9697,-3.9697,-3.9697,-3.9697,-3.9697,-3.9697,-3.9697,-3.9697,-3.9697,-3.9697,-3.9697,-3.9697,-3.9697,-3.9697,-3.9697,-3.9697,-3.9697,-3.9697,-3.9697,-3.9697,-3.9697,-3.9697,-3.9581,-3.9426,-3.782,-3.5672,-3.4626,-3.3586,-3.2207,-3.1276,-3.117,-3.0898,-3.0898,-3.0898,-3.0898,-3.0898,-3.0898,-3.0898,-3.0898,-3.0898,-3.0898,-3.0898,-3.0898,-3.0898,-6.2398,-6.2398,-6.2398,-6.2398,-6.2398,-6.2398,-6.2398,-6.2398,-6.2398,-6.2398,-6.2398,-6.2398,-6.2347,-6.2313,-6.2212,-6.1755,-6.1112,-6.0317,-5.9539,-5.8846,-5.822,-5.7845,-5.7645,-5.7591,-5.6393,-5.463,-5.4379,-5.3237,-5.1308,-5.1229,-5.1229,-5.1229,-5.1229,-5.1229,-5.1229,-5.1229,-5.1229,-5.1229,-5.1229,-5.1214,-5.1048,-5.0554,-4.9898,-4.9239,-4.8641,-4.8027,-4.7429,-4.7309,-4.7309,-4.7309,-4.7309,-4.7309,-4.7309,-4.7309,-4.7309,-4.7309,-4.7309,-4.6491,-4.5403,-4.4163,-4.2834,-4.1419,-4.0351,-3.9697,-3.9697,-3.9697,-3.9697,-3.9697,-3.9697,-3.9697,-3.9697,-3.9697,-3.9697,-3.9697,-3.9697,-3.9697,-3.9697,-3.9697,-3.9697,-3.9697,-3.9697,-3.9697,-3.9697,-3.9697,-3.9697,-3.9697,-3.9697,-3.9697,-3.9697,-3.9697,-3.9697,-3.9697,-3.9697,-3.9645,-3.953,-3.7329,-3.5398,-3.4637,-3.3371,-3.1835,-3.1005,-3.0947,-3.0898,-3.0898,-3.0898,-3.0898,-3.0898,-3.0898,-3.0898,-3.0898,-3.0898,-3.0898,-3.0898,-3.0898,-3.0898,-6.2398,-6.2398,-6.2398,-6.2398,-6.2398,-6.2398,-6.2381,-6.2381,-6.2381,-6.2347,-6.2381,-6.2398,-6.2042,-6.162,-6.1569,-6.0875,-5.9894,-5.9455,-5.8913,-5.8254,-5.8017,-5.7372,-5.6778,-5.6608,-5.5538,-5.3656,-5.3412,-5.2604,-5.1308,-5.1229,-5.1229,-5.1229,-5.1229,-5.1229,-5.1229,-5.1229,-5.1229,-5.1229,-5.1214,-5.0913,-5.0495,-5.0285,-4.9628,-4.8626,-4.8356,-4.7938,-4.7384,-4.7309,-4.7309,-4.7309,-4.7309,-4.7309,-4.7309,-4.7309,-4.7309,-4.7309,-4.7164,-4.6255,-4.4503,-4.3693,-4.2461,-4.0516,-3.9929,-3.9697,-3.9697,-3.9697,-3.9697,-3.9697,-3.9697,-3.9697,-3.9697,-3.9697,-3.9697,-3.9697,-3.9697,-3.9697,-3.9697,-3.9697,-3.9697,-3.9697,-3.9697,-3.9697,-3.9697,-3.9697,-3.9697,-3.9697,-3.9697,-3.9697,-3.9697,-3.9697,-3.9697,-3.9697,-3.9697,-3.9697,-3.9037,-3.6888,-3.5343,-3.4803,-3.3371,-3.1392,-3.0947,-3.0947,-3.0898,-3.0898,-3.0898,-3.0898,-3.0898,-3.0898,-3.0898,-3.0898,-3.0898,-3.0898,-3.0898,-3.0898,-3.0898,-6.1738,-6.1434,-6.1434,-6.1434,-6.1417,-6.1434,-6.1603,-6.189,-6.1941,-6.1941,-6.1924,-6.1941,-6.1518,-6.0858,-6.0791,-6.0165,-5.9116,-5.8998,-5.8609,-5.791,-5.7389,-5.6794,-5.6321,-5.6165,-5.5052,-5.3105,-5.29,-5.226,-5.1386,-5.1229,-5.1229,-5.1229,-5.1229,-5.1229,-5.1229,-5.1229,-5.1214,-5.1169,-5.0928,-5.0554,-5.0211,-4.9673,-4.9105,-4.8312,-4.8057,-4.7653,-4.7354,-4.7309,-4.7309,-4.7309,-4.7309,-4.7309,-4.7309,-4.7309,-4.7309,-4.7251,-4.6829,-4.5539,-4.3882,-4.3026,-4.1789,-4.0173,-3.9697,-3.9697,-3.9697,-3.9697,-3.9697,-3.9697,-3.9697,-3.9697,-3.9697,-3.9697,-3.9697,-3.9697,-3.9697,-3.9697,-3.9697,-3.9697,-3.9697,-3.9697,-3.9697,-3.9697,-3.9697,-3.9697,-3.9697,-3.9697,-3.9697,-3.9697,-3.9697,-3.9697,-3.9697,-3.9697,-3.9697,-3.9645,-3.8868,-3.6888,-3.5134,-3.4581,-3.3042,-3.1054,-3.0898,-3.0898,-3.0898,-3.0898,-3.0898,-3.0898,-3.0898,-3.0898,-3.0898,-3.0898,-3.0898,-3.0898,-3.0898,-3.0898,-3.0898,-6.0757,-6.0097,-6.0097,-6.0097,-6.0165,-6.0131,-6.0605,-6.1078,-6.1163,-6.1163,-6.1163,-6.118,-6.0723,-6.0013,-5.9996,-5.9573,-5.8863,-5.8761,-5.8292,-5.7523,-5.6778,-5.607,-5.5498,-5.5417,-5.4389,-5.2767,-5.2694,-5.2109,-5.1401,-5.1229,-5.1229,-5.1229,-5.1229,-5.1229,-5.1169,-5.1124,-5.1109,-5.093,-5.0421,-4.9986,-4.9703,-4.8985,-4.8401,-4.8072,-4.7653,-4.7414,-4.7324,-4.7309,-4.7309,-4.7309,-4.7309,-4.7309,-4.7309,-4.7309,-4.7309,-4.7077,-4.6211,-4.4978,-4.3598,-4.2412,-4.1132,-3.9981,-3.9697,-3.9697,-3.9697,-3.9697,-3.9697,-3.9697,-3.9697,-3.9697,-3.9697,-3.9697,-3.9697,-3.9697,-3.9697,-3.9697,-3.9697,-3.9697,-3.9697,-3.9697,-3.9697,-3.9697,-3.9697,-3.9697,-3.9697,-3.9697,-3.9697,-3.9697,-3.9697,-3.9697,-3.9697,-3.9697,-3.9645,-3.9594,-3.8425,-3.7049,-3.5409,-3.4146,-3.2379,-3.0889,-3.0889,-3.0898,-3.0898,-3.0898,-3.0898,-3.0898,-3.0898,-3.0898,-3.0898,-3.0898,-3.0898,-3.0898,-3.0898,-3.0898,-3.0898,-6.025,-6.0097,-6.0097,-6.0097,-6.0097,-6.0097,-6.0182,-6.0351,-6.0368,-6.0368,-6.0368,-6.0368,-5.9928,-5.9252,-5.9218,-5.8829,-5.8237,-5.8096,-5.7581,-5.6597,-5.6376,-5.5093,-5.4052,-5.3726,-5.29,-5.185,-5.1603,-5.1433,-5.1229,-5.1229,-5.1229,-5.1229,-5.1229,-5.1214,-5.1078,-5.0674,-5.039,-5.0285,-4.9808,-4.9239,-4.8865,-4.8491,-4.8012,-4.7623,-4.7399,-4.7324,-4.7309,-4.7309,-4.7309,-4.7309,-4.7309,-4.7309,-4.7309,-4.7309,-4.7309,-4.6975,-4.6062,-4.478,-4.3537,-4.2266,-4.1032,-3.989,-3.9697,-3.9697,-3.9697,-3.9697,-3.9697,-3.9697,-3.9697,-3.9697,-3.9697,-3.9697,-3.9697,-3.9697,-3.9697,-3.9697,-3.9697,-3.9697,-3.9697,-3.9697,-3.9697,-3.9697,-3.9697,-3.9697,-3.9697,-3.9697,-3.9697,-3.9697,-3.9697,-3.9697,-3.9697,-3.9697,-3.9697,-3.9478,-3.7979,-3.6433,-3.4581,-3.3371,-3.1825,-3.0947,-3.0889,-3.0898,-3.0898,-3.0898,-3.0898,-3.0898,-3.0898,-3.0898,-3.0898,-3.0898,-3.0898,-3.0898,-3.0898,-3.0898,-3.0898,-5.937,-5.9066,-5.9066,-5.9066,-5.9066,-5.9082,-5.9268,-5.9539,-5.959,-5.959,-5.9607,-5.9607,-5.9184,-5.8507,-5.8473,-5.8237,-5.7839,-5.7297,-5.6794,-5.6008,-5.5256,-5.3983,-5.3061,-5.235,-5.1727,-5.1214,-5.1229,-5.1229,-5.1229,-5.1229,-5.1229,-5.1229,-5.1214,-5.099,-5.0749,-5.0315,-5.0092,-4.9703,-4.9149,-4.8611,-4.8327,-4.7952,-4.7728,-4.7384,-4.7309,-4.7309,-4.7309,-4.7309,-4.7309,-4.7309,-4.7309,-4.7309,-4.7309,-4.7309,-4.7309,-4.7062,-4.5448,-4.441,-4.3313,-4.1789,-4.0402,-3.9788,-3.9697,-3.9697,-3.9697,-3.9697,-3.9697,-3.9697,-3.9697,-3.9697,-3.9697,-3.9697,-3.9697,-3.9697,-3.9697,-3.9697,-3.9697,-3.9697,-3.9697,-3.9697,-3.9697,-3.9697,-3.9697,-3.9697,-3.9697,-3.9697,-3.9697,-3.9697,-3.9697,-3.9697,-3.9697,-3.9697,-3.9697,-3.9089,-3.753,-3.5715,-3.3473,-3.2322,-3.1392,-3.0889,-3.0898,-3.0898,-3.0898,-3.0898,-3.0898,-3.0898,-3.0898,-3.0898,-3.0889,-3.0889,-3.0889,-3.0889,-3.0869,-3.082,-3.084,-5.8473,-5.7881,-5.7881,-5.7881,-5.7881,-5.7932,-5.8304,-5.8795,-5.8846,-5.8846,-5.8846,-5.8863,-5.8507,-5.8017,-5.7949,-5.7862,-5.7372,-5.6739,-5.6109,-5.5174,-5.394,-5.3033,-5.2395,-5.1727,-5.1339,-5.1229,-5.1229,-5.1229,-5.1229,-5.1199,-5.1109,-5.1079,-5.105,-5.0646,-5.0212,-4.9927,-4.9583,-4.9075,-4.8476,-4.8117,-4.8027,-4.7608,-4.7369,-4.7324,-4.7309,-4.7309,-4.7309,-4.7309,-4.7309,-4.7309,-4.7309,-4.7309,-4.7309,-4.7309,-4.7121,-4.6975,-4.4826,-4.3598,-4.2751,-4.1182,-3.9788,-3.9697,-3.9697,-3.9697,-3.9697,-3.9697,-3.9697,-3.9697,-3.9697,-3.9697,-3.9697,-3.9697,-3.9697,-3.9697,-3.9697,-3.9697,-3.9697,-3.9697,-3.9697,-3.9697,-3.9697,-3.9697,-3.9697,-3.9697,-3.9697,-3.9697,-3.9697,-3.9697,-3.9697,-3.9697,-3.9697,-3.9362,-3.9193,-3.7595,-3.5934,-3.4482,-3.2291,-3.1687,-3.082,-3.082,-3.0801,-3.0703,-3.0684,-3.0869,-3.0898,-3.0859,-3.0859,-3.0898,-3.0889,-3.0889,-3.0762,-3.0635,-3.0644,-3.0713,-3.0674,-5.8,-5.7881,-5.7881,-5.7881,-5.7881,-5.7881,-5.7966,-5.8051,-5.8135,-5.8068,-5.8101,-5.8084,-5.8051,-5.7898,-5.7881,-5.7426,-5.6701,-5.6031,-5.5093,-5.3924,-5.29,-5.244,-5.1696,-5.1433,-5.1229,-5.1229,-5.1169,-5.1139,-5.1214,-5.1199,-5.09,-5.048,-5.036,-5.0062,-4.9434,-4.894,-4.8716,-4.8431,-4.7878,-4.7593,-4.7519,-4.7414,-4.7309,-4.7309,-4.7309,-4.7309,-4.7309,-4.7309,-4.7309,-4.7309,-4.7309,-4.7309,-4.7309,-4.7309,-4.6873,-4.5928,-4.4627,-4.3409,-4.2266,-4.0794,-3.9839,-3.9697,-3.9697,-3.9697,-3.9697,-3.9697,-3.9697,-3.9697,-3.9697,-3.9697,-3.9697,-3.9697,-3.9697,-3.9697,-3.9697,-3.9697,-3.9697,-3.9697,-3.9697,-3.9697,-3.9697,-3.9697,-3.9697,-3.9697,-3.9697,-3.9697,-3.9697,-3.9697,-3.9697,-3.9633,-3.9633,-3.9129,-3.8518,-3.6368,-3.4058,-3.2649,-3.1139,-3.1116,-3.0654,-3.0644,-3.0586,-3.042,-3.0439,-3.0518,-3.0654,-3.0684,-3.0732,-3.0752,-3.0713,-3.0576,-3.0449,-3.0322,-3.0283,-3.0244,-3.0039,-5.7881,-5.7881,-5.7881,-5.7881,-5.7881,-5.7881,-5.7881,-5.7881,-5.7881,-5.7881,-5.7881,-5.7881,-5.7881,-5.7881,-5.7881,-5.7243,-5.6243,-5.4831,-5.394,-5.29,-5.2275,-5.1804,-5.1229,-5.1229,-5.1229,-5.1124,-5.0868,-5.0883,-5.1154,-5.0794,-5.048,-5.0226,-4.9942,-4.9404,-4.885,-4.8491,-4.8102,-4.7818,-4.7489,-4.7309,-4.7309,-4.7309,-4.7309,-4.7309,-4.7309,-4.7309,-4.7309,-4.7309,-4.7309,-4.7309,-4.7309,-4.7309,-4.7309,-4.7207,-4.7004,-4.6255,-4.5115,-4.3882,-4.2641,-4.1406,-4.0503,-3.98,-3.9697,-3.9697,-3.9697,-3.9697,-3.9697,-3.9697,-3.9697,-3.9697,-3.9697,-3.9697,-3.9697,-3.9697,-3.9697,-3.9697,-3.9697,-3.9697,-3.9697,-3.9697,-3.9697,-3.9697,-3.9697,-3.9697,-3.9697,-3.9697,-3.9697,-3.9697,-3.9697,-3.939,-3.9173,-3.7669,-3.6737,-3.4963,-3.2864,-3.1623,-3.0556,-3.042,-3.0381,-3.0371,-3.0244,-3.0029,-2.998,-3.0029,-3.0185,-3.0215,-3.0195,-3.0088,-3.0166,-3.0234,-3.0029,-2.9873,-2.9824,-2.9783,-2.9587,-5.7554,-5.7591,-5.7792,-5.7881,-5.7881,-5.7881,-5.7881,-5.7881,-5.7881,-5.7881,-5.7881,-5.7881,-5.7881,-5.7881,-5.7755,-5.7168,-5.585,-5.3983,-5.3237,-5.235,-5.1727,-5.1214,-5.1214,-5.1199,-5.1124,-5.0779,-5.0539,-5.0465,-5.072,-5.0346,-5.0002,-4.9628,-4.9224,-4.879,-4.8192,-4.8012,-4.7683,-4.7489,-4.7309,-4.7309,-4.7309,-4.7309,-4.7309,-4.7309,-4.7309,-4.7309,-4.7309,-4.7309,-4.7309,-4.7309,-4.7309,-4.7309,-4.7309,-4.7309,-4.7309,-4.7077,-4.5883,-4.4503,-4.3122,-4.1775,-4.0453,-3.9788,-3.9697,-3.9697,-3.9697,-3.9697,-3.9697,-3.9697,-3.9697,-3.9697,-3.9697,-3.9697,-3.9697,-3.9697,-3.9697,-3.9697,-3.9697,-3.9697,-3.9697,-3.9697,-3.9697,-3.9659,-3.9622,-3.9697,-3.9697,-3.9697,-3.9697,-3.9697,-3.9608,-3.8753,-3.7995,-3.6036,-3.4523,-3.3145,-3.1762,-3.0896,-3.0133,-2.9922,-2.9902,-2.9902,-2.9746,-2.9551,-2.9551,-2.9521,-2.9316,-2.9326,-2.9365,-2.956,-2.9775,-2.9814,-2.957,-2.9434,-2.9404,-2.9258,-2.9053,-5.6398,-5.6476,-5.7463,-5.7881,-5.7845,-5.7881,-5.7881,-5.7881,-5.7881,-5.7881,-5.7881,-5.7881,-5.7881,-5.7755,-5.7718,-5.6603,-5.515,-5.411,-5.2989,-5.1727,-5.1354,-5.1184,-5.1184,-5.1229,-5.0765,-5.0345,-5.0136,-5.0226,-5.0091,-4.9628,-4.9119,-4.8716,-4.8521,-4.8102,-4.7623,-4.7578,-4.7384,-4.7324,-4.7309,-4.7309,-4.7309,-4.7309,-4.7309,-4.7309,-4.7309,-4.7309,-4.7309,-4.7309,-4.7309,-4.7309,-4.7309,-4.7309,-4.7309,-4.7309,-4.7309,-4.6594,-4.5161,-4.3156,-4.2119,-4.1069,-4.016,-3.9839,-3.9697,-3.9697,-3.9697,-3.9697,-3.9697,-3.9697,-3.9697,-3.9697,-3.9697,-3.9697,-3.9697,-3.9697,-3.9697,-3.9659,-3.9647,-3.9459,-3.9484,-3.9346,-3.9233,-3.9396,-3.9471,-3.9597,-3.9697,-3.9697,-3.9672,-3.9609,-3.9098,-3.7993,-3.6844,-3.4929,-3.3008,-3.1595,-3.0878,-2.9984,-2.9679,-2.947,-2.9385,-2.9385,-2.9258,-2.9101,-2.9033,-2.8955,-2.874,-2.8779,-2.9082,-2.9316,-2.9492,-2.9385,-2.9131,-2.9033,-2.8984,-2.8809,-2.8643,-5.4723,-5.5377,-5.6509,-5.6908,-5.7039,-5.7591,-5.7881,-5.7881,-5.7881,-5.7881,-5.7881,-5.7881,-5.7554,-5.7076,-5.6354,-5.515,-5.3785,-5.3105,-5.2275,-5.1403,-5.1169,-5.1005,-5.0659,-5.0584,-5.0316,-4.9748,-4.9329,-4.9045,-4.9015,-4.8895,-4.8521,-4.8282,-4.7923,-4.7653,-4.7309,-4.7309,-4.7309,-4.7309,-4.7309,-4.7309,-4.7309,-4.7309,-4.7309,-4.7309,-4.7309,-4.7309,-4.7309,-4.7309,-4.7309,-4.7309,-4.7309,-4.7309,-4.7077,-4.6682,-4.6196,-4.6018,-4.3834,-4.2606,-4.2558,-4.1356,-4.0503,-3.9839,-3.9697,-3.9697,-3.9697,-3.9697,-3.9697,-3.9697,-3.9697,-3.9685,-3.9672,-3.9697,-3.9697,-3.9672,-3.9521,-3.9371,-3.9283,-3.922,-3.9107,-3.8931,-3.8793,-3.8906,-3.9007,-3.9032,-3.9094,-3.9157,-3.8918,-3.868,-3.7745,-3.6359,-3.5184,-3.3872,-3.2027,-3.0244,-2.9833,-2.9245,-2.9104,-2.8877,-2.876,-2.876,-2.875,-2.8662,-2.8652,-2.8603,-2.8496,-2.8623,-2.8877,-2.8896,-2.8906,-2.8809,-2.8691,-2.8672,-2.8662,-2.8574,-2.8437,-5.2989,-5.3871,-5.5215,-5.5952,-5.6265,-5.7114,-5.7628,-5.7881,-5.7881,-5.7881,-5.7881,-5.7881,-5.7426,-5.6586,-5.5674,-5.4739,-5.3412,-5.2154,-5.139,-5.1113,-5.09,-5.0556,-5.0182,-4.9957,-4.9658,-4.9075,-4.8686,-4.8341,-4.8117,-4.8027,-4.8027,-4.8012,-4.7608,-4.7369,-4.7324,-4.7309,-4.7309,-4.7309,-4.7309,-4.7309,-4.7309,-4.7309,-4.7309,-4.7309,-4.7309,-4.7309,-4.7309,-4.7309,-4.7309,-4.7309,-4.7309,-4.7164,-4.6638,-4.6018,-4.5298,-4.4734,-4.2834,-4.2133,-4.2133,-4.1555,-4.0743,-4.0083,-3.9697,-3.9697,-3.9697,-3.9697,-3.9697,-3.9697,-3.9697,-3.9622,-3.9509,-3.9459,-3.9283,-3.9195,-3.9132,-3.8956,-3.8781,-3.8693,-3.8617,-3.8504,-3.8354,-3.8228,-3.8304,-3.8341,-3.8429,-3.8555,-3.8279,-3.7816,-3.6547,-3.5093,-3.3745,-3.2547,-3.0867,-2.9342,-2.908,-2.8721,-2.8516,-2.8447,-2.834,-2.832,-2.8437,-2.8437,-2.8418,-2.834,-2.8301,-2.8379,-2.8594,-2.8437,-2.8301,-2.8408,-2.8476,-2.8398,-2.834,-2.8301,-2.8301,-5.1339,-5.1588,-5.3785,-5.5215,-5.6126,-5.6265,-5.6963,-5.7755,-5.7828,-5.7881,-5.7881,-5.7792,-5.7628,-5.7206,-5.6008,-5.5011,-5.4253,-5.3296,-5.1788,-5.0665,-5.0196,-4.9912,-4.9538,-4.9239,-4.9,-4.8461,-4.8147,-4.7848,-4.7549,-4.7549,-4.7459,-4.7354,-4.7369,-4.7324,-4.7309,-4.7309,-4.7309,-4.7309,-4.7309,-4.7309,-4.7309,-4.7309,-4.7309,-4.7309,-4.7309,-4.7309,-4.7309,-4.7309,-4.7309,-4.7309,-4.7309,-4.6931,-4.6314,-4.5448,-4.4734,-4.3773,-4.2266,-4.1604,-4.1406,-4.0831,-4.0032,-3.9749,-3.9697,-3.9697,-3.9697,-3.9697,-3.9697,-3.9622,-3.9534,-3.9333,-3.9107,-3.8894,-3.873,-3.8605,-3.853,-3.8366,-3.8203,-3.8115,-3.8052,-3.8015,-3.7864,-3.7651,-3.7563,-3.7588,-3.7826,-3.7965,-3.774,-3.723,-3.574,-3.4229,-3.2572,-3.1145,-2.9632,-2.8652,-2.8481,-2.834,-2.8369,-2.8379,-2.832,-2.8301,-2.833,-2.8301,-2.8301,-2.8301,-2.8301,-2.8301,-2.8301,-2.8301,-2.8301,-2.8301,-2.8301,-2.8301,-2.8301,-2.8301,-2.8301,-5.1229,-5.1308,-5.2184,-5.3149,-5.4263,-5.5618,-5.6454,-5.6963,-5.7591,-5.7881,-5.7845,-5.7168,-5.647,-5.577,-5.4697,-5.3554,-5.2498,-5.1666,-5.0834,-5.0335,-4.9838,-4.9284,-4.8865,-4.8566,-4.8341,-4.7848,-4.7683,-4.7623,-4.7369,-4.7309,-4.7309,-4.7309,-4.7309,-4.7309,-4.7309,-4.7309,-4.7309,-4.7309,-4.7309,-4.7309,-4.7309,-4.7309,-4.7309,-4.7309,-4.7309,-4.7309,-4.7309,-4.7309,-4.7309,-4.7309,-4.7309,-4.6873,-4.6121,-4.5101,-4.4102,-4.3252,-4.1654,-4.0693,-4.0554,-4.0019,-3.9749,-3.9697,-3.9697,-3.9685,-3.9647,-3.9672,-3.9471,-3.9346,-3.9182,-3.8944,-3.8467,-3.8341,-3.8253,-3.8065,-3.7902,-3.7739,-3.7626,-3.7538,-3.74,-3.7324,-3.7111,-3.6933,-3.6822,-3.6857,-3.7111,-3.7362,-3.7039,-3.6501,-3.5072,-3.3623,-3.2097,-3.0652,-2.9195,-2.8451,-2.8291,-2.8301,-2.8301,-2.8301,-2.8301,-2.8301,-2.8301,-2.8301,-2.8301,-2.8301,-2.8301,-2.8301,-2.8301,-2.8301,-2.8301,-2.8301,-2.8301,-2.8301,-2.8301,-2.8301,-2.8301,-5.1229,-5.1229,-5.1229,-5.185,-5.3105,-5.4929,-5.5913,-5.636,-5.7426,-5.7628,-5.7335,-5.6204,-5.5353,-5.4374,-5.3189,-5.237,-5.1485,-5.0593,-4.9944,-4.9508,-4.9105,-4.8581,-4.8207,-4.7952,-4.7788,-4.7369,-4.7309,-4.7309,-4.7309,-4.7309,-4.7309,-4.7309,-4.7309,-4.7309,-4.7309,-4.7309,-4.7309,-4.7309,-4.7309,-4.7309,-4.7309,-4.7309,-4.7309,-4.7309,-4.7309,-4.7309,-4.7309,-4.7309,-4.7309,-4.7309,-4.7266,-4.7077,-4.6121,-4.4932,-4.3551,-4.2363,-4.1169,-3.9788,-3.9697,-3.9697,-3.9697,-3.9697,-3.9697,-3.9609,-3.9496,-3.9433,-3.9157,-3.8693,-3.8592,-3.8379,-3.7852,-3.7764,-3.7575,-3.7362,-3.7262,-3.7123,-3.7036,-3.6983,-3.6807,-3.6669,-3.6531,-3.6556,-3.6568,-3.6593,-3.6719,-3.6945,-3.6784,-3.6107,-3.4796,-3.3354,-3.1913,-3.0557,-2.9164,-2.8654,-2.8301,-2.8301,-2.8301,-2.8301,-2.8301,-2.8301,-2.8301,-2.8301,-2.8301,-2.8301,-2.8301,-2.8301,-2.8301,-2.8301,-2.8301,-2.8301,-2.8301,-2.8301,-2.8301,-2.8301,-2.8301,-5.1229,-5.1229,-5.1229,-5.185,-5.2856,-5.4126,-5.5174,-5.6087,-5.7206,-5.7168,-5.6165,-5.5109,-5.4566,-5.3962,-5.2495,-5.1609,-5.1099,-4.9959,-4.9075,-4.8641,-4.8416,-4.7923,-4.7623,-4.7429,-4.7474,-4.7354,-4.7309,-4.7309,-4.7309,-4.7309,-4.7309,-4.7309,-4.7309,-4.7309,-4.7309,-4.7309,-4.7309,-4.7309,-4.7309,-4.7309,-4.7309,-4.7309,-4.7309,-4.7309,-4.7309,-4.7309,-4.7309,-4.7309,-4.7309,-4.7309,-4.7309,-4.6829,-4.5644,-4.4396,-4.3074,-4.1838,-4.0554,-3.9788,-3.9672,-3.9672,-3.9609,-3.9572,-3.9496,-3.9346,-3.9007,-3.8831,-3.8642,-3.8128,-3.8027,-3.7764,-3.7437,-3.7174,-3.6971,-3.6845,-3.6782,-3.6732,-3.6656,-3.6619,-3.6505,-3.6455,-3.643,-3.643,-3.643,-3.643,-3.6443,-3.6493,-3.6443,-3.5607,-3.4276,-3.2855,-3.1327,-3.0162,-2.8847,-2.8654,-2.8301,-2.8301,-2.8301,-2.8301,-2.8301,-2.8301,-2.8301,-2.8301,-2.8301,-2.8301,-2.8301,-2.8301,-2.8301,-2.8301,-2.8301,-2.8301,-2.8301,-2.8301,-2.8301,-2.8301,-2.8301,-5.1229,-5.1229,-5.1229,-5.1433,-5.1941,-5.2989,-5.411,-5.5231,-5.6165,-5.6165,-5.5052,-5.394,-5.3185,-5.2468,-5.1488,-5.0561,-5.0032,-4.934,-4.8356,-4.8267,-4.7893,-4.7578,-4.7339,-4.7309,-4.7309,-4.7309,-4.7309,-4.7309,-4.7309,-4.7309,-4.7309,-4.7309,-4.7309,-4.7309,-4.7309,-4.7309,-4.7309,-4.7309,-4.7309,-4.7309,-4.7309,-4.7309,-4.7309,-4.7309,-4.7309,-4.7309,-4.7309,-4.7309,-4.7309,-4.7266,-4.7266,-4.658,-4.5403,-4.4163,-4.2882,-4.1654,-4.0389,-3.9548,-3.9283,-3.9132,-3.9145,-3.9132,-3.9107,-3.8881,-3.8404,-3.8316,-3.799,-3.7626,-3.7475,-3.7161,-3.6832,-3.6719,-3.6568,-3.6556,-3.6518,-3.6518,-3.6468,-3.6468,-3.6417,-3.643,-3.6417,-3.6417,-3.6417,-3.631,-3.631,-3.5715,-3.5511,-3.4545,-3.3254,-3.1785,-3.0307,-2.9398,-2.8495,-2.8398,-2.8301,-2.8301,-2.8301,-2.8301,-2.8301,-2.8301,-2.8301,-2.8301,-2.8301,-2.8301,-2.8301,-2.8301,-2.8301,-2.8301,-2.8301,-2.8301,-2.8301,-2.8301,-2.8301,-2.8301,-2.8301,-5.1229,-5.1229,-5.1229,-5.1229,-5.1401,-5.2395,-5.3526,-5.4489,-5.4929,-5.4528,-5.3539,-5.244,-5.1585,-5.0859,-5.0034,-4.9419,-4.8895,-4.8252,-4.7938,-4.7893,-4.7549,-4.7369,-4.7324,-4.7309,-4.7309,-4.7309,-4.7309,-4.7309,-4.7309,-4.7309,-4.7309,-4.7309,-4.7309,-4.7309,-4.7309,-4.7309,-4.7309,-4.7309,-4.7309,-4.7309,-4.7309,-4.7309,-4.7309,-4.7309,-4.7309,-4.7309,-4.7309,-4.7309,-4.7309,-4.7207,-4.6785,-4.6285,-4.5161,-4.3787,-4.2593,-4.1455,-4.0247,-3.9385,-3.9045,-3.8617,-3.8517,-3.8253,-3.8429,-3.8278,-3.7864,-3.7739,-3.7412,-3.7098,-3.6996,-3.6795,-3.6518,-3.6417,-3.6417,-3.6417,-3.6417,-3.6417,-3.6417,-3.6417,-3.6417,-3.6417,-3.6417,-3.6417,-3.637,-3.6263,-3.6216,-3.5367,-3.452,-3.3403,-3.2292,-3.0968,-2.9755,-2.89,-2.8344,-2.8291,-2.8301,-2.8301,-2.8301,-2.8301,-2.8301,-2.8301,-2.8301,-2.8301,-2.8301,-2.8301,-2.8301,-2.8301,-2.8301,-2.8301,-2.8301,-2.8301,-2.8301,-2.8301,-2.8301,-2.8301,-2.8301,-5.1167,-5.1199,-5.1199,-5.1124,-5.1296,-5.2091,-5.3227,-5.4305,-5.3365,-5.257,-5.1809,-5.0804,-5.005,-4.9329,-4.8626,-4.8356,-4.8207,-4.7638,-4.7489,-4.7414,-4.7339,-4.7309,-4.7309,-4.7309,-4.7309,-4.7309,-4.7309,-4.7309,-4.7309,-4.7309,-4.7309,-4.7309,-4.7309,-4.7309,-4.7309,-4.7309,-4.7309,-4.7309,-4.7309,-4.7309,-4.7309,-4.7309,-4.7309,-4.7309,-4.7309,-4.7309,-4.7309,-4.7309,-4.7207,-4.6829,-4.6107,-4.5524,-4.4489,-4.2869,-4.207,-4.0987,-3.9651,-3.9184,-3.8617,-3.814,-3.7751,-3.7462,-3.7651,-3.7538,-3.7349,-3.7197,-3.6983,-3.6744,-3.6593,-3.6531,-3.6417,-3.6417,-3.6417,-3.6417,-3.6417,-3.6417,-3.6417,-3.6417,-3.6417,-3.6417,-3.6417,-3.6417,-3.631,-3.6216,-3.5463,-3.4666,-3.3662,-3.2493,-3.148,-3.0577,-2.946,-2.8698,-2.8291,-2.8291,-2.8301,-2.8301,-2.8301,-2.8301,-2.8301,-2.8301,-2.8301,-2.8301,-2.8301,-2.8301,-2.8301,-2.8301,-2.8301,-2.8301,-2.8301,-2.8301,-2.8301,-2.8301,-2.8301,-2.8301,-2.8301,-5.0945,-5.048,-5.048,-5.0272,-4.9898,-5.0216,-5.1045,-5.2078,-5.2098,-5.1654,-5.0623,-4.9915,-4.9179,-4.8566,-4.8356,-4.8012,-4.7683,-4.7414,-4.7354,-4.7309,-4.7309,-4.7309,-4.7309,-4.7309,-4.7309,-4.7309,-4.7309,-4.7309,-4.7309,-4.7309,-4.7309,-4.7309,-4.7309,-4.7309,-4.7309,-4.7309,-4.7309,-4.7309,-4.7309,-4.7309,-4.7309,-4.7309,-4.7309,-4.7309,-4.7309,-4.7309,-4.7309,-4.7207,-4.6887,-4.5973,-4.5629,-4.4872,-4.2544,-4.191,-4.1314,-3.9751,-3.9045,-3.863,-3.7888,-3.7525,-3.7211,-3.6797,-3.6895,-3.6807,-3.6681,-3.6669,-3.6606,-3.6493,-3.6417,-3.6417,-3.6417,-3.6417,-3.6417,-3.6417,-3.6417,-3.6417,-3.6417,-3.6417,-3.6417,-3.637,-3.637,-3.6013,-3.6013,-3.521,-3.4422,-3.3773,-3.2855,-3.1633,-3.0669,-2.9765,-2.9207,-2.8495,-2.8301,-2.8301,-2.8301,-2.8301,-2.8301,-2.8301,-2.8301,-2.8301,-2.8301,-2.8301,-2.8301,-2.8301,-2.8301,-2.8301,-2.8301,-2.8301,-2.8301,-2.8301,-2.8301,-2.8301,-2.8301,-2.8301,-2.8301,-5.0227,-4.9868,-4.9853,-4.9613,-4.9344,-4.9299,-4.9763,-5.0424,-5.0771,-5.0319,-4.9464,-4.906,-4.8565,-4.7952,-4.7848,-4.7683,-4.7369,-4.7339,-4.7309,-4.7309,-4.7309,-4.7309,-4.7309,-4.7309,-4.7309,-4.7309,-4.7309,-4.7309,-4.7309,-4.7309,-4.7309,-4.7309,-4.7309,-4.7309,-4.7309,-4.7309,-4.7309,-4.7309,-4.7309,-4.7309,-4.7309,-4.7309,-4.7309,-4.7309,-4.7309,-4.7309,-4.7207,-4.7019,-4.6151,-4.5161,-4.4886,-4.3313,-4.1426,-4.1023,-4.0356,-3.8982,-3.8353,-3.7976,-3.741,-3.7033,-3.6744,-3.6518,-3.6417,-3.6443,-3.6468,-3.648,-3.6468,-3.6417,-3.6417,-3.6417,-3.6417,-3.6417,-3.6417,-3.6417,-3.6417,-3.6417,-3.6417,-3.6417,-3.637,-3.631,-3.6013,-3.5619,-3.5066,-3.4166,-3.3216,-3.2303,-3.1491,-3.0618,-2.9755,-2.9049,-2.8751,-2.8398,-2.8301,-2.8301,-2.8301,-2.8301,-2.8301,-2.8301,-2.8301,-2.8301,-2.8301,-2.8301,-2.8301,-2.8301,-2.8301,-2.8301,-2.8301,-2.8301,-2.8301,-2.8301,-2.8301,-2.8301,-2.8301,-2.8301,-2.8301,-4.9299,-4.9224,-4.9179,-4.9045,-4.9149,-4.9015,-4.9105,-4.9149,-4.9179,-4.8865,-4.8401,-4.8252,-4.7893,-4.7519,-4.7444,-4.7429,-4.7309,-4.7309,-4.7309,-4.7309,-4.7309,-4.7309,-4.7309,-4.7309,-4.7309,-4.7309,-4.7309,-4.7309,-4.7309,-4.7309,-4.7309,-4.7309,-4.7309,-4.7309,-4.7309,-4.7309,-4.7309,-4.7309,-4.7309,-4.7309,-4.7309,-4.7309,-4.7309,-4.7309,-4.7309,-4.7266,-4.7019,-4.6403,-4.5434,-4.4503,-4.3504,-4.2119,-4.0783,-3.9875,-3.907,-3.8554,-3.7863,-3.7436,-3.7059,-3.6732,-3.6556,-3.6443,-3.6417,-3.6417,-3.6417,-3.6417,-3.6417,-3.6417,-3.6417,-3.6417,-3.6417,-3.6417,-3.6417,-3.6417,-3.6417,-3.6417,-3.6417,-3.6417,-3.6417,-3.6263,-3.6013,-3.5571,-3.4617,-3.3773,-3.2493,-3.1133,-3.0068,-2.9398,-2.9049,-2.8441,-2.8344,-2.8301,-2.8301,-2.8301,-2.8301,-2.8301,-2.8301,-2.8301,-2.8301,-2.8301,-2.8301,-2.8301,-2.8301,-2.8301,-2.8301,-2.8301,-2.8301,-2.8291,-2.8291,-2.8301,-2.8301,-2.8301,-2.8281,-2.8213,-2.8262,-4.9015,-4.8476,-4.7982,-4.7773,-4.7773,-4.7773,-4.7803,-4.7773,-4.7773,-4.8012,-4.8147,-4.7788,-4.7504,-4.7354,-4.7309,-4.7309,-4.7309,-4.7309,-4.7309,-4.7309,-4.7309,-4.7309,-4.7309,-4.7309,-4.7309,-4.7309,-4.7309,-4.7309,-4.7309,-4.7309,-4.7309,-4.7309,-4.7309,-4.7309,-4.7309,-4.7309,-4.7309,-4.7309,-4.7309,-4.7309,-4.7309,-4.7309,-4.7309,-4.7251,-4.7251,-4.7149,-4.7004,-4.6873,-4.5494,-4.4163,-4.3598,-4.1892,-3.97,-3.8704,-3.8089,-3.7626,-3.7349,-3.7033,-3.6744,-3.6531,-3.6443,-3.6417,-3.6417,-3.6417,-3.6417,-3.6417,-3.6417,-3.6417,-3.6417,-3.6417,-3.6417,-3.6417,-3.6417,-3.6417,-3.6417,-3.6417,-3.6417,-3.6417,-3.6417,-3.6216,-3.6013,-3.5223,-3.4276,-3.3105,-3.1836,-3.0566,-2.9303,-2.8644,-2.8644,-2.8344,-2.8344,-2.8301,-2.8301,-2.8301,-2.8301,-2.8301,-2.8301,-2.8301,-2.8301,-2.8301,-2.8291,-2.8301,-2.8301,-2.8301,-2.8301,-2.8262,-2.8242,-2.8271,-2.8271,-2.8144,-2.8086,-2.7998,-2.7988,-2.7949,-2.8086,-4.8192,-4.7818,-4.7459,-4.7309,-4.7309,-4.7309,-4.7309,-4.7309,-4.7309,-4.7504,-4.7773,-4.7489,-4.7309,-4.7309,-4.7309,-4.7309,-4.7309,-4.7309,-4.7309,-4.7309,-4.7309,-4.7309,-4.7309,-4.7309,-4.7309,-4.7309,-4.7309,-4.7309,-4.7309,-4.7309,-4.7309,-4.7309,-4.7309,-4.7309,-4.7309,-4.7309,-4.7309,-4.7309,-4.7309,-4.7309,-4.7309,-4.7309,-4.7309,-4.7251,-4.6858,-4.6668,-4.6196,-4.5929,-4.4305,-4.2528,-4.1389,-4.0402,-3.8727,-3.7989,-3.755,-3.7249,-3.6973,-3.6732,-3.6505,-3.6417,-3.6417,-3.6417,-3.6417,-3.6417,-3.6417,-3.6417,-3.6417,-3.6417,-3.6417,-3.6417,-3.6417,-3.6417,-3.6417,-3.6417,-3.6417,-3.6417,-3.6417,-3.6417,-3.6417,-3.6358,-3.5655,-3.4459,-3.3365,-3.1988,-3.0773,-2.9608,-2.8441,-2.8344,-2.8291,-2.8301,-2.8301,-2.8301,-2.8301,-2.8301,-2.8301,-2.8301,-2.8301,-2.8301,-2.8281,-2.8252,-2.8232,-2.8271,-2.8301,-2.8193,-2.8144,-2.8144,-2.8144,-2.8047,-2.7812,-2.7578,-2.7598,-2.7637,-2.7637,-2.7617,-2.7607,-4.7354,-4.7309,-4.7309,-4.7309,-4.7309,-4.7309,-4.7309,-4.7309,-4.7309,-4.7309,-4.7354,-4.7339,-4.7309,-4.7309,-4.7309,-4.7309,-4.7309,-4.7309,-4.7309,-4.7309,-4.7309,-4.7309,-4.7309,-4.7309,-4.7309,-4.7309,-4.7309,-4.7309,-4.7309,-4.7309,-4.7309,-4.7309,-4.7309,-4.7309,-4.7309,-4.7309,-4.7309,-4.7309,-4.7309,-4.7309,-4.7309,-4.7309,-4.7309,-4.6873,-4.6299,-4.5629,-4.5115,-4.4273,-4.2779,-4.0962,-3.9485,-3.8556,-3.796,-3.74,-3.7174,-3.6885,-3.6719,-3.6531,-3.6417,-3.6417,-3.6417,-3.6417,-3.6417,-3.6417,-3.6417,-3.6417,-3.6417,-3.6417,-3.6417,-3.6417,-3.6417,-3.6417,-3.6417,-3.6417,-3.6417,-3.6417,-3.6417,-3.6417,-3.6358,-3.6358,-3.521,-3.397,-3.2543,-3.1173,-2.9964,-2.8804,-2.8301,-2.8301,-2.8301,-2.8301,-2.8301,-2.8301,-2.8301,-2.8301,-2.8291,-2.8262,-2.8252,-2.8223,-2.8193,-2.8174,-2.8096,-2.79,-2.7842,-2.7959,-2.792,-2.7803,-2.7705,-2.7526,-2.7273,-2.7058,-2.7236,-2.7334,-2.7226,-2.7178,-2.7021,-4.7309,-4.7309,-4.7309,-4.7309,-4.7309,-4.7309,-4.7309,-4.7309,-4.7309,-4.7309,-4.7309,-4.7309,-4.7309,-4.7309,-4.7309,-4.7309,-4.7309,-4.7309,-4.7309,-4.7309,-4.7309,-4.7309,-4.7309,-4.7309,-4.7309,-4.7309,-4.7309,-4.7309,-4.7309,-4.7309,-4.7309,-4.7309,-4.7309,-4.7309,-4.7309,-4.7309,-4.7309,-4.7309,-4.7294,-4.7279,-4.7234,-4.7249,-4.7309,-4.7164,-4.7062,-4.6299,-4.5528,-4.478,-4.3004,-4.0935,-3.872,-3.7657,-3.7186,-3.6923,-3.6757,-3.6694,-3.648,-3.6455,-3.6417,-3.6417,-3.6417,-3.6417,-3.6417,-3.6417,-3.6417,-3.6417,-3.6417,-3.6417,-3.6417,-3.6417,-3.6417,-3.6417,-3.6417,-3.6417,-3.6417,-3.6417,-3.6417,-3.637,-3.6358,-3.5918,-3.5114,-3.3712,-3.2241,-3.0968,-2.9807,-2.8847,-2.8291,-2.8291,-2.8281,-2.8291,-2.8252,-2.8213,-2.8193,-2.8291,-2.8281,-2.8203,-2.8174,-2.8144,-2.8008,-2.7803,-2.7559,-2.7285,-2.7275,-2.751,-2.7432,-2.7266,-2.7117,-2.7078,-2.697,-2.6824,-2.6992,-2.7041,-2.6894,-2.6738,-2.6572]},{"header":{"parameterUnit":"m.s-1","parameterCategory":1,"la1":31.0,"la2":29.5877,"lo1":-88.7671,"lo2":-86.6584,"dy":0.0162,"dx":0.0185,"nx":115,"ny":88,"refTime":"2023-08-04T00:00:00:Z","depth":0,"parameterNumber":3,"parameterNumberName":"V-component_of_WINDS"},"data":[0.0,0.0,0.0,0.0,0.0,0.0,0.0,0.0,0.0,0.0,0.0,0.0,0.0,0.0,0.0,0.0,0.0,0.0,0.0,0.0,0.0,0.0,0.0,0.0,0.0,0.0,0.0,0.0,0.0,0.0,0.0,0.0,0.0,0.0,0.0,0.0,0.0,0.0,0.0,0.0,0.0,0.0,0.0,0.0,0.0,0.0,0.0,0.0,0.0,0.0,0.0,0.0,0.0,0.0,0.0,0.0,0.0,0.0,0.0,0.0,0.0,0.0,0.0,0.0,0.0,0.0,0.0,0.0,0.0,0.0,0.0,0.0,0.0,0.0,0.0,0.0,0.0,0.0,0.0,0.0,0.0,0.0,0.0,0.0,0.0,0.0,0.0,0.0,0.0,0.0,0.0,0.0,0.0,0.0,0.0,0.0,0.0,0.0,0.0,0.0,0.0,0.0,0.0,0.0,0.0,0.0,0.0,0.0,0.0,0.0,0.0,0.0,0.0,0.0,0.0,0.0,0.0,0.0,0.0,0.0,0.0,0.0,0.0,0.0,0.0,0.0,0.0,0.0,0.0,0.0,0.0,0.0,0.0,0.0,0.0,0.0,0.0,0.0,0.0,0.0,0.0,0.0,0.0,0.0,0.0,0.0,0.0,0.0,0.0,0.0,0.0,0.0,0.0,0.0,0.0,0.0,0.0,0.0,0.0,0.0,0.0,0.0,0.0,0.0,0.0,0.0,0.0,0.0,0.0,0.0,0.0,0.0,0.0,0.0,0.0,0.0,0.0,0.0,0.0,0.0,0.0,0.0,0.0,0.0,0.0,0.0,0.0,0.0,0.0,0.0,0.0,0.0,0.0,0.0,0.0,0.0,0.0,0.0,0.0,0.0,0.0,0.0,0.0,0.0,0.0,0.0,0.0,0.0,0.0,0.0,0.0,0.0,0.0,0.0,0.0,0.0,0.0,0.0,0.0,0.0,0.0,0.0,0.0,0.0,0.0,0.0,0.0,0.0,0.0,0.0,0.0,0.0,0.0,0.0,0.0,0.0,0.0,0.0,0.0,0.0,0.0,0.0,0.0,0.0,0.0,0.0,0.0,0.0,0.0,0.0,0.0,0.0,0.0,0.0,0.0,0.0,0.0,0.0,0.0,0.0,0.0,0.0,0.0,0.0,0.0,0.0,0.0,0.0,0.0,0.0,0.0,0.0,0.0,0.0,0.0,0.0,0.0,0.0,0.0,0.0,0.0,0.0,0.0,0.0,0.0,0.0,0.0,0.0,0.0,0.0,0.0,0.0,0.0,0.0,0.0,0.0,0.0,0.0,0.0,0.0,0.0,0.0,0.0,0.0,0.0,0.0,0.0,0.0,0.0,0.0,0.0,0.0,0.0,0.0,0.0,0.0,0.0,0.0,0.0,0.0,0.0,0.0,0.0,0.0,0.0,0.0,0.0,0.0,0.0,0.0,0.0,0.0,0.0,0.0,0.0,0.0,0.0,0.0,0.0,0.0,0.0,0.0,0.0,0.0,0.0,0.0,0.0,0.0,0.0,0.0,0.0,0.0,0.0,0.0,0.0,0.0,0.0,0.0,0.0,0.0,0.0,0.0,0.0,0.0,0.0,0.0,0.0,0.0,0.0,0.0,0.0,0.0,0.0,0.0,0.0,0.0,0.0,0.0,0.0,0.0,0.0,0.0,0.0,0.0,0.0,0.0,0.0,0.0,0.0,0.0,0.0,0.0,0.0,0.0,0.0,0.0,0.0,0.0,0.0,0.0,0.0,0.0,0.0,0.0,0.0,0.0,0.0,0.0,0.0,0.0,0.0,0.0,0.0,0.0,0.0,0.0,0.0,0.0,0.0,0.0,0.0,0.0,0.0,0.0,0.0,0.0,0.0,0.0,0.0,0.0,0.0,0.0,0.0,0.0,0.0,0.0,0.0,0.0,0.0,0.0,0.0,0.0,0.0,0.0,0.0,0.0,0.0,0.0,0.0,0.0,0.0,0.0,0.0,0.0,0.0,0.0,0.0,0.0,0.0,0.0,0.0,0.0,0.0,0.0,0.0,0.0,0.0,0.0,0.0,0.0,0.0,0.0,0.0,0.0,0.0,0.0,0.0,0.0,0.0,0.0,0.0,0.0,0.0,0.0,0.0,0.0,0.0,0.0,0.0,0.0,0.0,0.0,0.0,0.0,0.0,0.0,0.0,0.0,0.0,0.0,0.0,0.0,0.0,0.0,0.0,0.0,0.0,0.0,0.0,0.0,0.0,0.0,0.0,0.0,0.0,0.0,0.0,0.0,0.0,0.0,0.0,0.0,0.0,0.0,0.0,0.0,0.0,0.0,0.0,0.0,0.0,0.0,0.0,0.0,0.0,0.0,0.0,0.0,0.0,0.0,0.0,0.0,0.0,0.0,0.0,0.0,0.0,0.0,0.0,0.0,0.0,0.0,0.0,0.0,0.0,0.0,0.0,0.0,0.0,0.0,0.0,0.0,0.0,0.0,0.0,0.0,0.0,0.0,0.0,0.0,0.0,0.0,0.0,0.0,0.0,0.0,0.0,0.0,0.0,0.0,0.0,0.0,0.0,0.0,0.0,0.0,0.0,0.0,0.0,0.0,0.0,0.0,0.0,0.0,0.0,0.0,0.0,0.0,0.0,0.0,0.0,0.0,0.0,0.0,0.0,0.0,0.0,0.0,0.0,0.0,0.0,0.0,0.0,0.0,0.0,0.0,0.0,0.0,0.0,0.0,0.0,0.0,0.0,0.0,0.0,0.0,0.0,0.0,0.0,0.0,0.0,0.0,0.0,0.0,0.0,0.0,0.0,0.0,0.0,0.0,0.0,0.0,0.0,0.0,0.0,0.0,0.0,0.0,0.0,0.0,0.0,0.0,0.0,0.0,0.0,0.0,0.0,0.0,0.0,0.0,0.0,0.0,0.0,0.0,0.0,0.0,0.0,0.0,0.0,0.0,0.0,0.0,0.0,0.0,0.0,0.0,0.0,0.0,0.0,0.0,0.0,0.0,0.0,0.0,0.0,0.0,0.0,0.0,0.0,0.0,0.0,0.0,0.0,0.0,0.0,0.0,0.0,0.0,0.0,0.0,0.0,0.0,0.0,0.0,0.0,0.0,0.0,0.0,0.0,0.0,0.0,0.0,0.0,0.0,0.0,0.0,0.0,0.0,0.0,0.0,0.0,0.0,0.0,0.0,0.0,0.0,0.0,0.0,0.0,0.0,0.0,0.0,0.0,0.0,0.0,0.0,0.0,0.0,0.0,0.0,0.0,0.0,0.0,0.0,0.0,0.0,0.0,0.0,0.0,0.0,0.0,0.0,0.0,0.0,0.0,0.0,0.0,0.0,0.0,0.0,0.0,0.0,0.0,0.0,0.0,0.0,0.0,0.0,0.0,0.0,0.0,0.0,0.0,0.0,0.0,0.0,0.0,0.0,0.0,0.0,0.0,0.0,0.0,0.0,0.0,0.0,0.0,0.0,0.0,0.0,0.0,0.0,0.0,0.0,0.0,0.0,0.0,0.0,0.0,0.0,0.0,0.0,0.0,0.0,0.0,0.0,0.0,0.0,0.0,0.0,0.0,0.0,0.0,0.0,0.0,0.0,0.0,0.0,0.0,0.0,0.0,0.0,0.0,0.0,0.0,0.0,0.0,0.0,0.0,0.0,0.0,0.0,0.0,0.0,0.0,0.0,0.0,0.0,0.0,0.0,0.0,0.0,0.0,0.0,0.0,0.0,0.0,0.0,0.0,0.0,0.0,0.0,0.0,0.0,0.0,0.0,0.0,0.0,0.0,0.0,0.0,0.0,0.0,0.0,0.0,0.0,0.0,0.0,0.0,0.0,0.0,0.0,0.0,0.0,0.0,0.0,0.0,0.0,0.0,0.0,0.0,0.0,0.0,0.0,0.0,0.0,0.0,0.0,0.0,0.0,0.0,0.0,0.0,0.0,0.0,0.0,0.0,0.0,0.0,0.0,0.0,0.0,0.0,0.0,0.0,0.0,0.0,0.0,0.0,0.0,0.0,0.0,0.0,0.0,0.0,0.0,0.0,0.0,0.0,0.0,0.0,0.0,0.0,0.0,0.0,0.0,0.0,0.0,0.0,0.0,0.0,0.0,0.0,0.0,0.0,0.0,0.0,0.0,0.0,0.0,0.0,0.0,0.0,0.0,0.0,0.0,0.0,0.0,0.0,0.0,0.0,0.0,0.0,0.0,0.0,0.0,0.0,0.0,0.0,0.0,0.0,0.0,0.0,0.0,0.0,0.0,-1.9363,0.0,0.0,0.0,0.0,0.0,0.0,0.0,0.0,0.0,0.0,0.0,0.0,0.0,0.0,0.0,0.0,0.0,0.0,0.0,0.0,0.0,0.0,0.0,0.0,0.0,0.0,0.0,0.0,0.0,0.0,0.0,0.0,0.0,0.0,0.0,0.0,0.0,0.0,0.0,0.0,0.0,0.0,0.0,0.0,0.0,0.0,0.0,0.0,0.0,0.0,0.0,0.0,0.0,0.0,0.0,0.0,0.0,0.0,0.0,0.0,0.0,0.0,0.0,0.0,0.0,0.0,0.0,0.0,0.0,0.0,0.0,0.0,0.0,0.0,0.0,0.0,0.0,0.0,0.0,0.0,0.0,0.0,0.0,0.0,0.0,0.0,0.0,0.0,0.0,0.0,0.0,0.0,0.0,0.0,0.0,0.0,0.0,0.0,0.0,0.0,0.0,0.0,0.0,0.0,0.0,0.0,0.0,0.0,0.0,0.0,-1.8868,-1.8875,-1.9212,-1.9424,-1.9424,0.0,0.0,0.0,0.0,0.0,0.0,0.0,0.0,0.0,0.0,0.0,0.0,0.0,0.0,0.0,0.0,0.0,0.0,0.0,0.0,0.0,0.0,0.0,0.0,0.0,0.0,0.0,0.0,0.0,0.0,0.0,0.0,0.0,0.0,0.0,0.0,0.0,0.0,0.0,0.0,0.0,0.0,0.0,0.0,0.0,0.0,0.0,0.0,0.0,0.0,0.0,0.0,0.0,0.0,0.0,0.0,0.0,0.0,0.0,0.0,0.0,0.0,0.0,0.0,0.0,0.0,0.0,0.0,0.0,0.0,0.0,0.0,0.0,0.0,0.0,0.0,0.0,0.0,0.0,0.0,0.0,0.0,0.0,0.0,0.0,0.0,0.0,0.0,0.0,0.0,0.0,0.0,0.0,0.0,0.0,0.0,0.0,0.0,0.0,0.0,0.0,0.0,0.0,0.0,0.0,0.0,0.0,0.0,0.0,0.0,0.0,0.0,-1.9245,-1.9424,-1.9424,0.0,0.0,0.0,0.0,0.0,0.0,0.0,0.0,0.0,0.0,0.0,0.0,0.0,0.0,0.0,0.0,0.0,0.0,0.0,0.0,0.0,0.0,0.0,0.0,0.0,0.0,0.0,0.0,0.0,0.0,0.0,0.0,0.0,0.0,0.0,0.0,0.0,0.0,0.0,0.0,0.0,0.0,0.0,0.0,0.0,0.0,0.0,0.0,0.0,0.0,0.0,0.0,0.0,0.0,0.0,0.0,0.0,0.0,0.0,0.0,0.0,0.0,0.0,0.0,0.0,0.0,0.0,0.0,0.0,0.0,0.0,0.0,0.0,0.0,0.0,0.0,0.0,0.0,0.0,0.0,0.0,0.0,0.0,0.0,0.0,0.0,0.0,0.0,0.0,0.0,0.0,0.0,0.0,0.0,0.0,0.0,0.0,0.0,0.0,0.0,0.0,0.0,0.0,0.0,0.0,0.0,0.0,0.0,0.0,0.0,-1.939,-1.9332,-1.941,0.0,-1.9424,0.0,0.0,0.0,0.0,0.0,0.0,0.0,0.0,0.0,0.0,0.0,0.0,0.0,0.0,0.0,0.0,0.0,0.0,0.0,0.0,0.0,0.0,0.0,0.0,0.0,0.0,0.0,0.0,0.0,0.0,0.0,0.0,0.0,0.0,0.0,0.0,0.0,0.0,0.0,0.0,0.0,0.0,0.0,0.0,0.0,0.0,0.0,0.0,0.0,0.0,0.0,0.0,0.0,0.0,0.0,0.0,0.0,0.0,0.0,0.0,0.0,0.0,0.0,0.0,0.0,0.0,0.0,0.0,0.0,0.0,0.0,0.0,0.0,0.0,0.0,0.0,0.0,0.0,0.0,0.0,0.0,0.0,0.0,0.0,0.0,0.0,0.0,0.0,0.0,0.0,0.0,0.0,0.0,0.0,0.0,0.0,0.0,0.0,0.0,0.0,0.0,0.0,0.0,0.0,0.0,0.0,0.0,0.0,0.0,0.0,-1.9424,-1.9424,-1.9424,-1.9424,0.0,0.0,0.0,0.0,0.0,0.0,0.0,0.0,0.0,0.0,0.0,0.0,0.0,0.0,0.0,0.0,0.0,0.0,0.0,0.0,0.0,0.0,0.0,0.0,0.0,0.0,0.0,0.0,0.0,0.0,0.0,0.0,0.0,0.0,0.0,0.0,0.0,0.0,0.0,0.0,0.0,0.0,0.0,0.0,0.0,0.0,0.0,0.0,0.0,0.0,0.0,0.0,0.0,0.0,0.0,0.0,0.0,0.0,0.0,0.0,0.0,0.0,0.0,0.0,0.0,0.0,0.0,0.0,0.0,0.0,0.0,0.0,0.0,0.0,0.0,0.0,0.0,0.0,0.0,0.0,0.0,0.0,0.0,0.0,0.0,0.0,0.0,0.0,0.0,0.0,0.0,0.0,0.0,0.0,0.0,0.0,0.0,0.0,0.0,0.0,0.0,0.0,0.0,0.0,0.0,0.0,0.0,0.0,0.0,0.0,-1.9424,-1.9424,-1.9424,-1.9424,-1.9591,-1.9982,0.0,0.0,0.0,0.0,0.0,0.0,0.0,0.0,0.0,0.0,0.0,0.0,0.0,0.0,0.0,0.0,0.0,0.0,0.0,0.0,0.0,0.0,0.0,0.0,0.0,0.0,0.0,0.0,0.0,0.0,0.0,0.0,0.0,0.0,0.0,0.0,0.0,0.0,0.0,0.0,0.0,0.0,0.0,0.0,0.0,0.0,0.0,0.0,0.0,0.0,0.0,0.0,0.0,0.0,0.0,0.0,0.0,0.0,0.0,0.0,0.0,0.0,0.0,0.0,0.0,0.0,0.0,0.0,0.0,0.0,0.0,0.0,0.0,0.0,0.0,0.0,0.0,0.0,0.0,0.0,0.0,0.0,0.0,0.0,0.0,0.0,0.0,0.0,0.0,0.0,0.0,0.0,0.0,0.0,0.0,0.0,0.0,0.0,0.0,0.0,0.0,0.0,0.0,0.0,0.0,0.0,0.0,0.0,-1.9424,-1.9424,-1.9424,-1.9424,-1.9424,-2.0033,0.0,0.0,0.0,0.0,0.0,0.0,0.0,0.0,0.0,0.0,0.0,0.0,0.0,0.0,0.0,0.0,0.0,0.0,0.0,0.0,0.0,0.0,0.0,0.0,0.0,0.0,0.0,0.0,0.0,0.0,0.0,0.0,0.0,0.0,0.0,0.0,0.0,0.0,0.0,0.0,0.0,0.0,0.0,0.0,0.0,0.0,0.0,0.0,0.0,0.0,0.0,0.0,0.0,0.0,0.0,0.0,0.0,0.0,0.0,0.0,0.0,0.0,0.0,0.0,0.0,0.0,0.0,0.0,0.0,0.0,0.0,0.0,0.0,0.0,0.0,0.0,0.0,0.0,0.0,0.0,0.0,0.0,0.0,0.0,0.0,0.0,0.0,0.0,0.0,0.0,0.0,0.0,0.0,0.0,0.0,0.0,0.0,0.0,0.0,0.0,0.0,0.0,0.0,0.0,0.0,0.0,0.0,0.0,0.0,-1.9424,-1.9424,-1.9424,-1.943,-2.0307,-2.1031,0.0,0.0,0.0,0.0,0.0,0.0,0.0,0.0,0.0,0.0,0.0,0.0,0.0,0.0,0.0,0.0,0.0,0.0,0.0,0.0,0.0,0.0,0.0,0.0,0.0,0.0,0.0,0.0,0.0,0.0,0.0,0.0,0.0,0.0,0.0,0.0,0.0,0.0,0.0,0.0,0.0,0.0,0.0,0.0,0.0,0.0,0.0,0.0,0.0,0.0,0.0,0.0,0.0,0.0,0.0,0.0,0.0,0.0,0.0,0.0,0.0,0.0,0.0,0.0,0.0,0.0,0.0,0.0,0.0,0.0,0.0,0.0,0.0,0.0,0.0,0.0,0.0,0.0,0.0,0.0,0.0,0.0,0.0,0.0,0.0,0.0,0.0,0.0,0.0,0.0,0.0,0.0,0.0,0.0,0.0,0.0,0.0,0.0,0.0,0.0,0.0,0.0,0.0,0.0,0.0,0.0,0.0,0.0,0.0,-1.9424,0.0,-1.9424,-1.9482,-2.0809,-2.1805,0.0,0.0,0.0,0.0,0.0,0.0,0.0,0.0,0.0,0.0,0.0,0.0,0.0,0.0,0.0,0.0,0.0,0.0,0.0,0.0,0.0,0.0,0.0,0.0,0.0,0.0,0.0,0.0,0.0,0.0,0.0,0.0,0.0,0.0,0.0,0.0,0.0,0.0,0.0,0.0,0.0,0.0,0.0,0.0,0.0,0.0,0.0,0.0,0.0,0.0,0.0,0.0,0.0,0.0,0.0,0.0,0.0,0.0,0.0,0.0,0.0,0.0,0.0,0.0,0.0,0.0,0.0,0.0,0.0,0.0,0.0,0.0,0.0,0.0,0.0,0.0,0.0,0.0,0.0,0.0,0.0,0.0,0.0,0.0,0.0,0.0,0.0,0.0,0.0,0.0,0.0,0.0,0.0,0.0,0.0,0.0,0.0,0.0,0.0,0.0,0.0,0.0,0.0,0.0,0.0,0.0,0.0,0.0,-1.9482,-1.9482,-1.954,-1.9649,-1.9475,-2.0981,-2.2363,0.0,0.0,0.0,0.0,0.0,0.0,0.0,0.0,0.0,0.0,0.0,0.0,0.0,0.0,0.0,0.0,0.0,0.0,0.0,0.0,0.0,0.0,0.0,0.0,0.0,0.0,0.0,0.0,0.0,0.0,0.0,0.0,0.0,0.0,0.0,0.0,0.0,0.0,0.0,0.0,0.0,0.0,0.0,0.0,0.0,0.0,0.0,0.0,0.0,0.0,0.0,0.0,0.0,0.0,0.0,0.0,0.0,0.0,0.0,0.0,0.0,0.0,0.0,0.0,0.0,0.0,0.0,0.0,0.0,0.0,0.0,0.0,0.0,0.0,0.0,0.0,0.0,0.0,0.0,0.0,0.0,0.0,0.0,0.0,0.0,0.0,0.0,0.0,0.0,0.0,0.0,0.0,0.0,0.0,0.0,0.0,0.0,0.0,0.0,0.0,0.0,0.0,0.0,0.0,0.0,0.0,0.0,0.0,0.0,-2.2435,-2.2435,-2.2435,-2.2484,-2.3933,-2.4931,0.0,0.0,0.0,0.0,0.0,0.0,0.0,0.0,0.0,0.0,0.0,0.0,0.0,0.0,0.0,0.0,0.0,0.0,0.0,0.0,0.0,0.0,0.0,0.0,0.0,0.0,0.0,0.0,0.0,0.0,0.0,0.0,0.0,0.0,0.0,0.0,0.0,0.0,0.0,0.0,0.0,0.0,0.0,0.0,0.0,0.0,0.0,0.0,0.0,0.0,0.0,0.0,0.0,0.0,0.0,0.0,0.0,0.0,0.0,0.0,0.0,0.0,0.0,0.0,0.0,0.0,0.0,0.0,0.0,0.0,0.0,0.0,0.0,0.0,0.0,0.0,0.0,0.0,0.0,0.0,0.0,0.0,0.0,0.0,0.0,0.0,0.0,0.0,0.0,0.0,0.0,0.0,0.0,0.0,0.0,0.0,0.0,0.0,0.0,0.0,0.0,0.0,0.0,0.0,0.0,0.0,0.0,0.0,0.0,-2.5434,-2.4386,-2.3822,-2.3822,-2.5316,-2.6091,-2.6145,0.0,0.0,0.0,0.0,0.0,0.0,0.0,0.0,0.0,0.0,0.0,0.0,0.0,0.0,0.0,0.0,0.0,0.0,0.0,0.0,0.0,0.0,0.0,0.0,0.0,0.0,0.0,0.0,0.0,0.0,0.0,0.0,0.0,0.0,0.0,0.0,0.0,0.0,0.0,0.0,0.0,0.0,0.0,0.0,0.0,0.0,0.0,0.0,0.0,0.0,0.0,0.0,0.0,0.0,0.0,0.0,0.0,0.0,0.0,0.0,0.0,0.0,0.0,0.0,0.0,0.0,0.0,0.0,0.0,0.0,0.0,0.0,0.0,0.0,0.0,0.0,0.0,0.0,0.0,0.0,0.0,0.0,0.0,0.0,0.0,0.0,0.0,0.0,0.0,0.0,0.0,0.0,0.0,0.0,0.0,0.0,0.0,0.0,0.0,0.0,0.0,0.0,0.0,0.0,0.0,0.0,0.0,0.0,-2.8291,-2.5544,-2.41,-2.4156,-2.5489,-2.6209,0.0,0.0,0.0,0.0,0.0,0.0,0.0,0.0,0.0,0.0,0.0,0.0,0.0,0.0,0.0,0.0,0.0,0.0,0.0,0.0,0.0,0.0,0.0,0.0,0.0,0.0,0.0,0.0,0.0,0.0,0.0,0.0,0.0,0.0,0.0,0.0,0.0,0.0,0.0,0.0,0.0,0.0,0.0,0.0,0.0,0.0,0.0,0.0,0.0,0.0,0.0,0.0,0.0,0.0,0.0,0.0,0.0,0.0,0.0,0.0,0.0,0.0,0.0,0.0,0.0,0.0,0.0,0.0,0.0,0.0,0.0,0.0,0.0,0.0,0.0,0.0,0.0,0.0,0.0,0.0,0.0,0.0,0.0,0.0,0.0,0.0,0.0,0.0,0.0,0.0,0.0,0.0,0.0,0.0,0.0,0.0,0.0,0.0,0.0,0.0,0.0,0.0,0.0,0.0,0.0,0.0,0.0,0.0,0.0,-2.8237,-2.7511,-2.7124,-2.7114,-2.7501,-2.7726,0.0,0.0,0.0,0.0,0.0,0.0,0.0,0.0,0.0,0.0,0.0,0.0,0.0,0.0,0.0,0.0,0.0,0.0,0.0,0.0,0.0,0.0,0.0,0.0,0.0,0.0,0.0,0.0,0.0,0.0,0.0,0.0,0.0,0.0,0.0,0.0,0.0,0.0,0.0,0.0,0.0,0.0,0.0,0.0,0.0,0.0,0.0,0.0,0.0,0.0,0.0,0.0,0.0,0.0,0.0,0.0,0.0,0.0,0.0,0.0,0.0,0.0,0.0,0.0,0.0,0.0,0.0,0.0,0.0,0.0,0.0,0.0,0.0,0.0,0.0,0.0,0.0,0.0,0.0,0.0,0.0,0.0,0.0,0.0,0.0,0.0,0.0,0.0,0.0,0.0,0.0,0.0,0.0,0.0,0.0,0.0,0.0,0.0,0.0,0.0,0.0,0.0,0.0,0.0,0.0,0.0,0.0,0.0,-2.8301,-2.8301,-2.8301,-2.8301,-2.8301,-2.8301,-2.8301,0.0,0.0,0.0,0.0,0.0,0.0,0.0,0.0,0.0,0.0,0.0,0.0,0.0,0.0,0.0,0.0,0.0,0.0,0.0,0.0,0.0,0.0,0.0,0.0,0.0,0.0,0.0,0.0,0.0,0.0,0.0,0.0,0.0,0.0,0.0,0.0,0.0,0.0,0.0,0.0,0.0,0.0,0.0,0.0,0.0,0.0,0.0,0.0,0.0,0.0,0.0,0.0,0.0,0.0,0.0,0.0,0.0,0.0,0.0,0.0,0.0,0.0,0.0,0.0,0.0,0.0,0.0,0.0,0.0,0.0,0.0,0.0,0.0,0.0,0.0,0.0,0.0,0.0,0.0,0.0,0.0,0.0,0.0,0.0,0.0,0.0,0.0,0.0,0.0,0.0,0.0,0.0,0.0,0.0,0.0,0.0,0.0,0.0,0.0,0.0,0.0,0.0,0.0,0.0,0.0,0.0,0.0,0.0,-2.8301,-2.8301,-2.8301,-2.8301,-2.8301,-2.8301,-2.8301,0.0,0.0,0.0,0.0,0.0,0.0,0.0,0.0,0.0,0.0,0.0,0.0,0.0,0.0,0.0,0.0,0.0,0.0,0.0,0.0,0.0,0.0,0.0,0.0,0.0,0.0,0.0,0.0,0.0,0.0,0.0,0.0,0.0,0.0,0.0,0.0,0.0,0.0,0.0,0.0,0.0,0.0,0.0,0.0,0.0,0.0,0.0,0.0,0.0,0.0,0.0,0.0,0.0,0.0,0.0,0.0,0.0,0.0,0.0,0.0,0.0,0.0,0.0,0.0,0.0,0.0,0.0,0.0,0.0,0.0,0.0,0.0,0.0,0.0,0.0,0.0,0.0,0.0,0.0,0.0,0.0,0.0,0.0,0.0,0.0,0.0,0.0,0.0,0.0,0.0,0.0,0.0,0.0,0.0,0.0,0.0,0.0,0.0,0.0,0.0,0.0,0.0,0.0,0.0,0.0,0.0,0.0,0.0,-2.8301,-2.8301,-2.8301,-2.8301,-2.8301,-2.8301,-2.8301,0.0,0.0,0.0,0.0,0.0,0.0,0.0,0.0,0.0,0.0,0.0,0.0,0.0,0.0,0.0,0.0,0.0,0.0,0.0,0.0,0.0,0.0,0.0,0.0,0.0,0.0,0.0,0.0,0.0,0.0,0.0,0.0,0.0,0.0,0.0,0.0,0.0,0.0,0.0,0.0,0.0,0.0,0.0,0.0,0.0,0.0,0.0,0.0,-3.3124,0.0,0.0,0.0,0.0,0.0,0.0,0.0,0.0,0.0,0.0,0.0,0.0,0.0,0.0,0.0,0.0,0.0,0.0,0.0,0.0,0.0,0.0,0.0,0.0,0.0,0.0,0.0,0.0,0.0,0.0,0.0,0.0,0.0,0.0,0.0,0.0,0.0,0.0,0.0,0.0,0.0,0.0,0.0,0.0,0.0,0.0,0.0,0.0,0.0,0.0,0.0,0.0,0.0,0.0,0.0,0.0,0.0,0.0,0.0,-2.8301,-2.8301,-2.8301,-2.8301,-2.8301,-2.8301,-2.8301,0.0,0.0,0.0,0.0,0.0,0.0,0.0,0.0,0.0,0.0,0.0,0.0,0.0,0.0,0.0,0.0,0.0,0.0,0.0,0.0,0.0,0.0,0.0,0.0,0.0,0.0,0.0,0.0,0.0,0.0,0.0,0.0,0.0,0.0,0.0,0.0,0.0,0.0,0.0,0.0,0.0,0.0,0.0,0.0,0.0,0.0,0.0,0.0,0.0,0.0,0.0,0.0,0.0,0.0,0.0,0.0,0.0,0.0,0.0,0.0,0.0,0.0,0.0,0.0,0.0,0.0,0.0,0.0,0.0,0.0,0.0,0.0,0.0,0.0,0.0,0.0,0.0,0.0,0.0,0.0,0.0,0.0,0.0,0.0,0.0,0.0,0.0,0.0,0.0,0.0,0.0,0.0,0.0,0.0,0.0,0.0,0.0,0.0,0.0,0.0,0.0,0.0,0.0,0.0,0.0,0.0,0.0,-2.8301,-2.8301,-2.8301,-2.8301,-2.8301,-2.8301,-2.8301,-2.8301,-2.8301,0.0,0.0,0.0,0.0,0.0,0.0,0.0,0.0,0.0,0.0,0.0,0.0,0.0,0.0,0.0,0.0,0.0,0.0,0.0,0.0,0.0,0.0,0.0,0.0,0.0,0.0,0.0,0.0,0.0,0.0,0.0,0.0,0.0,0.0,0.0,0.0,0.0,0.0,-3.1436,-3.2416,0.0,0.0,0.0,0.0,0.0,0.0,0.0,0.0,-3.3144,0.0,0.0,0.0,0.0,0.0,0.0,0.0,0.0,0.0,0.0,0.0,0.0,0.0,0.0,0.0,0.0,0.0,0.0,0.0,0.0,0.0,0.0,0.0,0.0,0.0,0.0,0.0,0.0,0.0,0.0,0.0,0.0,0.0,0.0,0.0,0.0,0.0,0.0,0.0,0.0,0.0,0.0,0.0,0.0,0.0,0.0,0.0,0.0,0.0,0.0,0.0,0.0,0.0,0.0,0.0,0.0,-2.8301,-2.8301,-2.8301,-2.8301,-2.8301,-2.8301,-2.8301,-2.8301,-2.8301,-2.8301,0.0,0.0,0.0,0.0,0.0,0.0,0.0,0.0,0.0,0.0,0.0,0.0,0.0,0.0,0.0,0.0,0.0,0.0,0.0,0.0,0.0,0.0,0.0,0.0,0.0,0.0,0.0,0.0,0.0,0.0,0.0,0.0,0.0,0.0,0.0,0.0,0.0,0.0,0.0,-3.2654,-3.3124,0.0,0.0,0.0,0.0,0.0,0.0,0.0,0.0,-3.3771,0.0,0.0,0.0,0.0,0.0,0.0,0.0,0.0,0.0,0.0,0.0,0.0,0.0,0.0,0.0,0.0,0.0,0.0,0.0,0.0,0.0,0.0,0.0,0.0,0.0,0.0,0.0,0.0,0.0,0.0,0.0,0.0,0.0,0.0,0.0,0.0,0.0,0.0,0.0,0.0,0.0,0.0,0.0,0.0,0.0,0.0,0.0,0.0,0.0,0.0,0.0,0.0,0.0,0.0,0.0,-2.8301,-2.8301,-2.8301,-2.8301,-2.8301,-2.8301,-2.8301,-2.8301,-2.8301,0.0,0.0,0.0,0.0,0.0,0.0,0.0,0.0,0.0,0.0,0.0,0.0,0.0,0.0,0.0,0.0,0.0,0.0,0.0,0.0,0.0,0.0,0.0,0.0,0.0,0.0,0.0,0.0,0.0,0.0,0.0,0.0,0.0,0.0,0.0,0.0,0.0,0.0,0.0,0.0,-3.2905,-3.3124,-3.3124,0.0,0.0,0.0,0.0,0.0,0.0,-3.3721,-3.4098,0.0,0.0,0.0,0.0,0.0,0.0,0.0,0.0,0.0,0.0,0.0,0.0,0.0,0.0,0.0,0.0,0.0,0.0,0.0,0.0,0.0,0.0,0.0,0.0,0.0,0.0,0.0,0.0,0.0,0.0,0.0,0.0,0.0,0.0,0.0,0.0,0.0,0.0,0.0,0.0,0.0,0.0,0.0,0.0,0.0,0.0,0.0,0.0,0.0,0.0,0.0,0.0,0.0,0.0,0.0,-2.8301,-2.8301,-2.8301,-2.8301,-2.8301,-2.8301,-2.8301,-2.8301,-2.8441,0.0,0.0,0.0,0.0,0.0,0.0,0.0,0.0,0.0,0.0,0.0,0.0,0.0,0.0,0.0,0.0,0.0,0.0,0.0,0.0,0.0,0.0,0.0,0.0,0.0,0.0,0.0,0.0,0.0,0.0,0.0,0.0,0.0,0.0,0.0,0.0,0.0,0.0,0.0,0.0,0.0,-3.3124,-3.3124,-3.3124,0.0,0.0,0.0,0.0,-3.3671,-3.3909,0.0,0.0,0.0,0.0,0.0,0.0,0.0,0.0,0.0,0.0,0.0,0.0,0.0,0.0,0.0,0.0,0.0,0.0,0.0,0.0,0.0,0.0,0.0,0.0,0.0,0.0,0.0,0.0,0.0,0.0,0.0,0.0,0.0,0.0,0.0,0.0,0.0,0.0,0.0,0.0,0.0,0.0,0.0,0.0,0.0,0.0,0.0,0.0,0.0,0.0,0.0,0.0,0.0,0.0,0.0,0.0,-2.8301,-2.8301,-2.8301,-2.8301,-2.8301,-2.8301,-2.8301,-2.8301,-2.8847,0.0,0.0,0.0,0.0,0.0,0.0,0.0,0.0,0.0,0.0,0.0,0.0,0.0,0.0,0.0,0.0,0.0,0.0,0.0,0.0,0.0,0.0,0.0,0.0,0.0,0.0,0.0,0.0,0.0,0.0,0.0,0.0,0.0,0.0,0.0,0.0,0.0,0.0,0.0,0.0,0.0,-3.3124,-3.3124,-3.3124,-3.3124,0.0,0.0,-3.3093,-3.3156,-3.3985,0.0,0.0,0.0,0.0,0.0,0.0,0.0,0.0,0.0,0.0,0.0,0.0,0.0,0.0,0.0,0.0,0.0,0.0,0.0,0.0,0.0,0.0,0.0,0.0,0.0,0.0,0.0,0.0,0.0,0.0,0.0,0.0,0.0,0.0,0.0,0.0,0.0,0.0,0.0,0.0,0.0,0.0,0.0,0.0,0.0,0.0,0.0,0.0,0.0,0.0,0.0,0.0,0.0,0.0,0.0,-2.8301,-2.8301,-2.8301,-2.8301,-2.8301,-2.8301,-2.8301,-2.8291,-2.9059,-2.9713,0.0,0.0,0.0,0.0,0.0,0.0,0.0,0.0,0.0,0.0,0.0,0.0,0.0,0.0,0.0,0.0,0.0,0.0,0.0,0.0,0.0,0.0,0.0,0.0,0.0,0.0,0.0,0.0,0.0,0.0,0.0,0.0,0.0,0.0,0.0,0.0,0.0,0.0,0.0,0.0,0.0,0.0,-3.4802,-3.4843,0.0,0.0,0.0,-3.4962,-3.5294,0.0,0.0,0.0,0.0,0.0,0.0,0.0,0.0,0.0,0.0,0.0,0.0,0.0,0.0,0.0,0.0,0.0,0.0,0.0,0.0,0.0,0.0,0.0,0.0,0.0,0.0,0.0,0.0,0.0,0.0,0.0,0.0,0.0,0.0,0.0,0.0,0.0,0.0,0.0,0.0,0.0,0.0,0.0,0.0,0.0,0.0,0.0,0.0,0.0,0.0,0.0,0.0,0.0,0.0,0.0,0.0,0.0,-2.8301,-2.8301,-2.8301,-2.8301,-2.8301,-2.8451,-2.8804,-2.9765,0.0,0.0,0.0,0.0,0.0,0.0,0.0,0.0,0.0,0.0,0.0,0.0,0.0,0.0,0.0,0.0,0.0,0.0,0.0,0.0,0.0,0.0,0.0,0.0,0.0,0.0,0.0,-3.3513,0.0,0.0,0.0,0.0,0.0,0.0,0.0,0.0,0.0,0.0,0.0,0.0,0.0,0.0,-3.5359,-3.6079,-3.6198,-3.6198,0.0,0.0,-3.6419,-3.7054,-3.7662,-3.838,0.0,0.0,0.0,0.0,0.0,0.0,0.0,0.0,0.0,0.0,0.0,0.0,0.0,0.0,0.0,0.0,0.0,0.0,0.0,0.0,0.0,0.0,0.0,0.0,0.0,0.0,0.0,0.0,0.0,0.0,0.0,0.0,0.0,0.0,0.0,0.0,0.0,0.0,0.0,0.0,0.0,0.0,0.0,0.0,0.0,0.0,0.0,0.0,0.0,0.0,0.0,0.0,0.0,0.0,0.0,-2.8301,-2.8291,-2.8291,-2.8291,-2.8301,-2.89,-3.011,-3.0266,-3.1542,0.0,0.0,0.0,0.0,0.0,0.0,0.0,0.0,0.0,0.0,0.0,0.0,0.0,0.0,0.0,0.0,0.0,0.0,0.0,0.0,0.0,0.0,0.0,0.0,0.0,0.0,0.0,0.0,0.0,0.0,0.0,0.0,0.0,0.0,0.0,0.0,0.0,0.0,0.0,0.0,0.0,-3.6119,-3.6198,-3.6198,-3.6198,0.0,0.0,-3.6419,-3.7094,-3.7662,-3.8629,-4.0373,0.0,0.0,0.0,0.0,0.0,0.0,0.0,0.0,0.0,0.0,0.0,0.0,0.0,0.0,0.0,0.0,0.0,0.0,0.0,0.0,0.0,0.0,0.0,0.0,0.0,0.0,0.0,0.0,0.0,0.0,0.0,0.0,0.0,0.0,0.0,0.0,0.0,0.0,0.0,0.0,0.0,0.0,0.0,0.0,0.0,0.0,0.0,0.0,0.0,0.0,0.0,0.0,0.0,-2.8301,-2.8301,-2.9112,-2.9565,-2.9565,-3.0307,-3.103,-3.1531,-3.2353,-3.3315,0.0,0.0,0.0,0.0,0.0,0.0,0.0,0.0,0.0,0.0,0.0,0.0,0.0,0.0,0.0,0.0,0.0,0.0,0.0,0.0,0.0,0.0,0.0,0.0,0.0,0.0,0.0,0.0,-3.6041,-3.6027,-3.706,0.0,0.0,0.0,0.0,0.0,0.0,0.0,0.0,0.0,0.0,-3.7562,-3.8652,-3.8801,0.0,0.0,-3.9406,-3.9508,-3.9731,-4.0299,-4.0967,-4.1681,-4.2256,0.0,0.0,0.0,0.0,0.0,0.0,0.0,0.0,0.0,0.0,0.0,0.0,0.0,0.0,0.0,0.0,0.0,0.0,0.0,0.0,0.0,0.0,0.0,0.0,0.0,0.0,0.0,0.0,0.0,0.0,0.0,0.0,0.0,0.0,0.0,0.0,0.0,0.0,0.0,0.0,0.0,0.0,0.0,0.0,0.0,0.0,0.0,0.0,0.0,0.0,0.0,0.0,-2.891,-2.891,-3.0214,-3.0876,-3.0916,-3.1825,-3.2493,-3.2944,-3.3871,-3.4581,0.0,0.0,0.0,0.0,0.0,0.0,0.0,0.0,0.0,0.0,0.0,0.0,0.0,0.0,0.0,0.0,0.0,0.0,0.0,0.0,0.0,0.0,0.0,0.0,0.0,0.0,0.0,0.0,-3.742,-3.7458,-3.8182,0.0,0.0,0.0,0.0,0.0,0.0,0.0,0.0,0.0,0.0,-3.9,-4.0211,-4.0576,-4.0846,-4.1309,-4.1422,-4.1497,-4.1692,-4.2111,-4.2455,-4.2665,0.0,0.0,0.0,0.0,0.0,0.0,0.0,0.0,0.0,0.0,0.0,0.0,0.0,0.0,0.0,0.0,0.0,0.0,0.0,0.0,0.0,0.0,0.0,0.0,0.0,0.0,0.0,0.0,0.0,0.0,-2.345,0.0,0.0,0.0,0.0,0.0,0.0,0.0,0.0,0.0,0.0,0.0,0.0,0.0,0.0,0.0,0.0,0.0,0.0,0.0,0.0,0.0,0.0,-3.0224,-3.0276,-3.1593,-3.2303,-3.2303,-3.2342,-3.3028,-3.4311,-3.4397,-3.503,-3.6263,0.0,0.0,0.0,0.0,0.0,0.0,0.0,0.0,0.0,0.0,0.0,0.0,0.0,0.0,0.0,0.0,0.0,0.0,0.0,0.0,0.0,0.0,0.0,0.0,0.0,0.0,-3.7738,-3.8708,-3.9301,0.0,0.0,0.0,0.0,0.0,0.0,0.0,0.0,0.0,0.0,-3.9941,-4.0345,-4.0427,-4.0965,-4.1384,-4.1414,-4.1467,-4.1624,-4.2291,-4.2396,-4.262,0.0,0.0,0.0,0.0,0.0,0.0,0.0,0.0,0.0,0.0,0.0,0.0,0.0,0.0,0.0,0.0,0.0,0.0,0.0,0.0,0.0,0.0,0.0,0.0,0.0,0.0,0.0,-2.216,-2.1355,0.0,0.0,0.0,0.0,0.0,0.0,0.0,0.0,0.0,0.0,0.0,-3.0644,-3.0342,0.0,0.0,0.0,0.0,0.0,0.0,0.0,0.0,0.0,0.0,0.0,0.0,-3.0464,-3.0906,-3.3068,-3.4404,-3.4782,-3.5635,-3.6319,-3.6788,-3.6443,-3.629,-3.637,0.0,0.0,0.0,0.0,0.0,0.0,0.0,0.0,0.0,0.0,0.0,0.0,0.0,0.0,0.0,0.0,0.0,0.0,0.0,0.0,0.0,0.0,0.0,0.0,0.0,-3.7701,0.0,0.0,0.0,0.0,0.0,0.0,0.0,0.0,0.0,0.0,0.0,-4.0068,-4.0068,-4.0636,-4.1205,-4.1677,-4.1931,-4.2177,0.0,0.0,0.0,0.0,0.0,0.0,0.0,0.0,0.0,0.0,0.0,0.0,0.0,0.0,-4.3305,-4.3305,-4.3305,-4.3305,-4.3305,0.0,0.0,0.0,0.0,0.0,0.0,0.0,0.0,0.0,0.0,0.0,0.0,0.0,0.0,-2.2959,0.0,-2.4832,0.0,0.0,0.0,0.0,0.0,0.0,0.0,0.0,-3.0898,-3.0898,-3.0879,-3.0576,-3.0439,0.0,-3.0,-2.9648,0.0,0.0,0.0,0.0,0.0,0.0,0.0,0.0,-3.1566,-3.2113,-3.4766,-3.6328,-3.6719,-3.7581,-3.8002,-3.8002,-3.7475,-3.701,-3.6707,-3.6505,-3.6417,0.0,0.0,0.0,0.0,0.0,0.0,0.0,0.0,0.0,0.0,0.0,0.0,0.0,0.0,0.0,0.0,0.0,0.0,0.0,0.0,0.0,0.0,0.0,-3.862,0.0,0.0,0.0,0.0,0.0,0.0,0.0,0.0,0.0,-3.9753,-4.0127,-4.0487,-4.0711,-4.1347,-4.1916,-4.2336,0.0,0.0,0.0,0.0,0.0,0.0,0.0,-4.3305,-4.3305,-4.3305,-4.3305,-4.3305,-4.3305,-4.3305,-4.3305,0.0,0.0,-4.3305,-4.3305,-4.3305,-4.3305,-4.3,-4.2821,-4.32,-4.2985,-4.2821,0.0,0.0,0.0,0.0,0.0,0.0,0.0,0.0,-2.3021,-2.3698,0.0,-2.5497,0.0,0.0,0.0,0.0,0.0,-3.0889,0.0,0.0,-3.0898,-3.0898,-3.0898,-3.0889,-3.0889,-3.0859,-3.043,-3.0205,-3.0137,-2.9355,0.0,0.0,0.0,0.0,0.0,0.0,-3.3402,-3.3862,-3.6553,-3.799,-3.8028,-3.8078,-3.8052,-3.8027,-3.7538,-3.7236,-3.7161,-3.6732,-3.643,-3.6417,-3.6417,0.0,0.0,0.0,0.0,0.0,0.0,0.0,0.0,0.0,0.0,0.0,0.0,0.0,0.0,0.0,0.0,0.0,0.0,0.0,0.0,-3.9388,0.0,0.0,0.0,0.0,0.0,0.0,0.0,0.0,0.0,0.0,-4.0487,-4.0487,-4.0696,-4.1324,0.0,0.0,0.0,0.0,-4.3319,-4.3349,-4.3349,-4.3364,-4.3379,-4.3379,-4.3379,-4.3379,0.0,0.0,-4.3305,-4.3305,-4.3305,-4.3305,-4.3305,-4.3305,-4.3305,-4.3305,-4.3305,-4.3305,-4.3275,-4.329,-4.329,-4.3379,-4.3403,-2.1102,0.0,0.0,0.0,0.0,-2.1102,-2.179,-2.3021,-2.4594,-2.5314,-2.5505,-2.8247,0.0,0.0,0.0,0.0,0.0,0.0,-3.0898,-3.0898,-3.0898,-3.0898,-3.0898,-3.0898,-3.0898,-3.0889,-3.0762,-3.0527,-3.0195,-2.9951,-2.9619,-2.9209,0.0,0.0,0.0,0.0,-3.3843,-3.4516,-3.7173,-3.8818,-3.9207,-3.9207,-3.9019,-3.863,-3.8467,-3.8015,-3.726,-3.7036,-3.6807,-3.643,-3.6417,0.0,0.0,0.0,0.0,0.0,0.0,0.0,0.0,0.0,0.0,0.0,0.0,0.0,0.0,0.0,0.0,0.0,0.0,0.0,-3.9301,-3.9388,-3.9388,0.0,0.0,0.0,0.0,0.0,0.0,0.0,0.0,0.0,-4.1782,-4.1803,-4.1901,0.0,0.0,-4.306,-4.306,-4.3614,-4.3992,-4.4032,-4.4421,0.0,0.0,-4.4721,-4.4736,-4.4736,-4.4347,-4.3883,-4.3379,-4.3305,-4.3305,-4.3305,-4.3305,-4.3305,-4.3305,-4.3305,-4.3305,-4.3305,-4.3305,-4.3305,-4.3344,-4.3849,-4.4373,-2.1223,-2.1102,-2.1102,-2.1102,-2.1102,-2.1102,-2.2034,-2.369,-2.5322,-2.634,-2.7134,-2.9726,-3.0333,-2.9462,-3.046,0.0,0.0,0.0,-3.0898,-3.0898,-3.0898,-3.0898,-3.0898,-3.0898,-3.0898,-3.0898,-3.0898,-3.0752,-3.0469,-3.0478,-3.0342,-3.0135,0.0,0.0,-3.0727,-3.2976,-3.4656,-3.5787,-3.8054,-3.9358,-3.9697,-3.9697,-3.9534,-3.9207,-3.8981,-3.8542,-3.7877,-3.7412,-3.7071,-3.6757,-3.6531,-3.6417,0.0,0.0,0.0,0.0,0.0,0.0,0.0,0.0,0.0,0.0,0.0,-3.4428,0.0,0.0,0.0,0.0,-3.7829,-3.8708,-3.9352,-3.9388,0.0,0.0,0.0,0.0,0.0,0.0,0.0,-4.0591,-4.128,-4.2051,-4.2695,-4.297,-4.3174,-4.3135,-4.3479,-4.3783,-4.4037,0.0,-4.4706,-4.4706,-4.505,-4.5289,-4.5289,-4.5289,-4.5289,-4.5289,-4.4975,-4.4601,-4.4197,-4.4107,-4.4067,-4.4107,-4.4107,-4.4213,-4.4661,-4.474,-4.4346,-4.3513,-4.3305,-4.3409,-4.3825,-4.4412,-4.4887,-2.1423,-2.1182,-2.1176,-2.1149,-2.1109,-2.1102,-2.2034,-2.369,-2.5314,-2.6893,-2.8486,-3.0147,-3.0898,-3.0889,-3.0898,0.0,-3.0898,-3.0898,-3.0898,-3.0898,-3.0898,-3.0898,-3.0898,-3.0898,-3.0898,-3.0898,-3.0898,-3.0898,-3.0889,-3.0889,-3.0898,-3.0869,-3.0239,-3.0731,-3.2461,-3.3901,-3.5585,-3.7506,-3.8961,-3.9697,-3.9697,-3.9697,-3.9697,-3.9685,-3.9195,-3.8906,-3.8894,-3.7877,-3.7287,-3.7236,-3.6769,-3.648,-3.6455,0.0,0.0,0.0,0.0,0.0,0.0,0.0,0.0,0.0,0.0,0.0,0.0,0.0,0.0,0.0,-3.8826,0.0,-3.9574,-3.9538,0.0,0.0,0.0,-4.0726,-4.1347,-4.1452,-4.1722,-4.2336,0.0,0.0,-4.329,-4.3888,-4.4347,-4.4466,-4.4421,-4.4601,-4.52,-4.5319,-4.5379,-4.5379,-4.5439,-4.5469,-4.5589,-4.5559,-4.5544,-4.5454,-4.5379,-4.5349,-4.5229,-4.5229,-4.5274,-4.52,-4.5274,-4.5518,-4.6559,-4.6537,-4.6126,-4.4052,-4.3786,-4.4055,-4.4969,-4.536,-4.573,-2.1844,-2.1777,-2.1777,-2.1516,-2.1109,-2.1102,-2.2034,-2.369,-2.5314,-2.6893,-2.8477,-3.0157,-3.0898,-3.0898,-3.0898,-3.0898,-3.0898,-3.0898,-3.0898,-3.0898,-3.0898,-3.0898,-3.0898,-3.0898,-3.0898,-3.0898,-3.0898,-3.0898,-3.0898,-3.0898,-3.0898,-3.0937,-3.1822,-3.2477,-3.2966,-3.4395,-3.5928,-3.7518,-3.8973,-3.9697,-3.9697,-3.9697,-3.9697,-3.9697,-3.9572,-3.9308,-3.8932,-3.8655,-3.8266,-3.7826,-3.7287,-3.6998,-3.6985,-3.6069,0.0,0.0,0.0,0.0,0.0,0.0,0.0,0.0,0.0,-3.4718,-3.4718,0.0,-3.7805,0.0,-3.9239,-4.0382,-4.0861,-4.092,0.0,0.0,-4.1145,-4.1205,-4.1369,-4.1871,-4.2231,-4.2366,-4.2791,-4.3344,-4.3988,-4.4172,-4.4691,-4.5622,-4.5394,-4.511,-4.5289,-4.5753,-4.6082,-4.6112,-4.6486,-4.683,-4.677,-4.683,-4.6636,-4.6157,-4.6082,-4.5903,-4.5379,-4.5289,-4.5289,-4.5289,-4.5289,-4.5413,-4.5716,-4.5686,-4.5905,-4.6032,-4.6646,-4.7257,-4.7532,-4.8099,-4.8632,-2.2098,-2.1984,-2.1984,-2.1804,-2.1561,-2.2311,-2.3627,-2.5235,-2.6736,-2.8318,-2.9843,-3.0547,-3.0898,-3.0898,-3.0898,-3.0898,-3.0898,-3.0898,-3.0898,-3.0898,-3.0898,-3.0898,-3.0898,-3.0898,-3.0898,-3.0898,-3.0898,-3.0898,-3.0898,-3.0898,-3.0898,-3.0937,-3.2369,-3.3417,-3.4136,-3.5551,-3.7037,-3.8465,-3.9297,-3.9697,-3.9697,-3.9697,-3.9697,-3.9697,-3.9697,-3.9546,-3.9245,-3.8994,-3.873,-3.8391,-3.7613,-3.7186,-3.7174,-3.637,-3.5906,0.0,0.0,0.0,0.0,0.0,0.0,0.0,0.0,0.0,0.0,0.0,-3.9396,-3.9411,-4.0293,-4.098,-4.1392,-4.1422,-4.1527,-4.1826,-4.1856,-4.1938,-4.2207,-4.2566,-4.2895,-4.3195,-4.3554,-4.4018,-4.4661,-4.502,-4.5427,-4.619,-4.6247,-4.6187,-4.6217,-4.6531,-4.6756,-4.6743,-4.707,-4.7309,-4.7309,-4.7309,-4.7189,-4.6817,-4.6756,-4.6621,-4.6262,-4.6187,-4.6187,-4.6187,-4.6187,-4.6341,-4.6754,-4.7282,-4.7893,-4.891,-4.9969,-5.0189,-4.9248,-4.9436,-4.9885,-2.2331,-2.2098,-2.2356,-2.2481,-2.2606,-2.4528,-2.5952,-2.6876,-2.8492,-3.0093,-3.1582,-3.1211,-3.1055,-3.1055,-3.1055,-3.1055,-3.1055,-3.1045,-3.1055,-3.1055,-3.1055,-3.1055,-3.1055,-3.1055,-3.1055,-3.1055,-3.1055,-3.1055,-3.1055,-3.1055,-3.1162,-3.1445,-3.2809,-3.4309,-3.581,-3.7167,-3.8473,-3.9697,-3.9697,-3.9697,-3.9697,-3.9697,-3.9697,-3.9697,-3.9697,-3.9697,-3.9685,-3.9233,-3.8969,-3.8944,-3.7977,-3.74,-3.7374,-3.6857,-3.6518,0.0,-3.5956,0.0,0.0,0.0,0.0,0.0,0.0,0.0,0.0,-4.079,-4.1414,-4.1527,-4.1504,-4.1534,-4.1662,-4.1639,-4.1863,-4.2455,-4.2605,-4.2875,-4.3374,-4.3484,-4.3793,-4.4377,-4.4436,-4.4691,-4.5349,-4.5963,-4.6279,-4.6459,-4.6905,-4.716,-4.7264,-4.7249,-4.7249,-4.7309,-4.7309,-4.7309,-4.7309,-4.7309,-4.7309,-4.7294,-4.7264,-4.7352,-4.7478,-4.7321,-4.7351,-4.7606,-4.7588,-4.7816,-4.8841,-4.9742,-5.0617,-5.1463,-5.2319,-5.235,-5.087,-5.0469,-5.0541,-2.2746,-2.2903,-2.4273,-2.487,-2.5063,-2.8267,-2.786,-2.5296,-2.8256,-3.0512,-3.2041,-3.2023,-3.1994,-3.1984,-3.1924,-3.1934,-3.1984,-3.1924,-3.1934,-3.1984,-3.1934,-3.1934,-3.1924,-3.1924,-3.1924,-3.1924,-3.1924,-3.1984,-3.1924,-3.1934,-3.2605,-3.3848,-3.5262,-3.6805,-3.8371,0.0,0.0,0.0,-3.9697,-3.9697,-3.9697,-3.9697,-3.9697,-3.9697,-3.9697,0.0,-3.9697,-3.9597,-3.9546,-3.9521,-3.8906,0.0,0.0,0.0,0.0,0.0,0.0,0.0,0.0,0.0,0.0,0.0,-4.0196,-4.0576,-3.991,-4.0805,-4.1609,-4.2156,-4.2216,-4.2402,-4.291,-4.2916,-4.3015,-4.311,-4.3629,-4.3988,-4.4122,-4.4586,-4.499,-4.508,-4.5095,-4.5379,-4.6007,-4.6204,-4.6488,-4.6995,-4.7219,-4.7294,-4.7309,-4.7309,-4.7309,-4.7309,-4.7309,-4.7309,-4.7309,-4.7309,-4.7309,-4.7309,-4.7309,-4.7624,-4.8168,-4.7792,-4.8003,-4.9287,-4.911,-4.8841,-4.9836,-5.0281,-5.0741,-5.1724,-5.2065,-5.2316,-5.2706,-5.2792,-5.2842,-2.322,0.0,-2.5023,-2.5667,0.0,-2.9327,-2.9629,-2.7844,-3.0238,-3.1589,-3.2168,-3.2229,-3.2229,-3.2229,-3.2229,-3.2229,-3.2229,-3.2229,-3.2229,-3.2229,-3.2229,-3.2229,-3.2229,-3.2229,-3.2229,-3.2229,-3.2229,-3.2229,-3.2229,-3.2955,-3.3762,-3.456,-3.6791,-3.8286,-3.9133,-4.0318,-4.0473,-3.9697,-3.9697,-3.9697,-3.9697,-3.9697,-3.9697,-3.9697,0.0,0.0,0.0,0.0,0.0,0.0,0.0,0.0,0.0,0.0,0.0,-3.7588,-3.7324,-3.7096,-3.6893,-3.8405,-3.9526,-3.9869,-4.1491,-4.2188,-4.1582,-4.204,-4.2491,-4.2791,-4.2851,-4.312,-4.3693,-4.3783,-4.3902,-4.4272,-4.4601,-4.4796,-4.4825,-4.5095,-4.5424,-4.5753,-4.5798,-4.6052,-4.6711,-4.68,-4.6935,-4.7249,-4.7309,-4.7309,-4.7309,-4.7309,-4.7309,-4.7309,-4.7309,-4.7309,-4.7309,-4.7309,-4.7309,-4.7309,-4.7309,-4.7495,-4.7946,-4.8072,-4.8418,-4.9432,-4.9575,-4.9813,-5.0281,-5.0779,-5.1303,-5.1796,-5.2312,-5.28,-5.3433,-5.3518,-5.3518,-2.4307,-2.456,-2.6299,-2.6949,-2.6953,-3.0044,-3.1368,-3.1341,0.0,0.0,0.0,-3.2393,-3.2393,-3.2393,-3.2393,-3.2393,-3.2393,-3.2393,-3.2402,-3.2393,-3.2393,-3.2393,-3.2393,-3.2393,-3.2383,-3.2383,-3.2393,-3.2393,-3.2444,-3.3998,-3.491,-3.5371,-3.7964,-3.9471,-3.9744,-4.0847,-4.099,-4.0036,-3.9885,-3.9785,-3.9697,-3.9697,-3.9697,-3.9697,-3.9697,-3.9697,-3.9697,-3.9697,-3.9697,-3.9685,-3.9258,-3.907,-3.9057,-3.8479,-3.8153,-3.8153,-3.8065,-3.7814,-3.741,-3.9342,-4.0536,-4.0507,-4.2476,-4.3589,-4.3484,-4.3469,-4.3529,-4.3633,-4.3633,-4.3858,-4.4421,-4.4481,-4.4691,-4.5244,-4.5409,-4.5484,-4.5484,-4.5603,-4.5933,-4.6381,-4.6501,-4.6696,-4.7189,-4.7279,-4.7309,-4.7309,-4.7309,-4.7309,-4.7309,-4.7309,-4.7309,-4.7309,-4.7309,-4.7309,-4.7309,-4.7309,-4.7309,-4.7309,-4.7309,-4.7352,-4.7651,-4.8252,-4.8866,-4.956,-5.0126,-5.0665,-5.1,-5.1667,-5.2153,-5.2189,-5.287,-5.3518,-5.3518,-5.3518,-5.3518,-2.7085,-2.8676,-3.0469,-3.1193,-3.1314,-3.2926,-3.3367,-3.3019,-3.3223,-3.3301,-3.3242,-3.3252,-3.3242,-3.3242,-3.3252,-3.3242,-3.3242,-3.3242,-3.3242,0.0,-3.3252,-3.3252,-3.3242,-3.3242,-3.3252,-3.3242,-3.3242,-3.3242,-3.343,-3.4831,-3.6324,-3.7692,-3.9488,-4.0846,-4.1716,-4.1978,-4.1731,-4.1062,-4.0639,-4.0174,-3.971,-3.9697,-3.9697,-3.9697,-3.9697,-3.9697,-3.9697,-3.9697,-3.9697,-3.9697,-3.9634,-3.9572,-3.9559,-3.9044,-3.8793,-3.8781,-3.8278,-3.7965,-3.7902,-3.9151,-4.0798,-4.2736,-4.4211,-4.4781,-4.4242,-4.4167,-4.4407,-4.493,-4.496,-4.5035,-4.5155,-4.5155,-4.5214,-4.5349,-4.5843,-4.6187,-4.6145,-4.6636,-4.698,-4.71,-4.7174,-4.716,-4.7264,-4.7309,-4.7309,-4.7309,-4.7309,-4.7309,-4.7309,-4.7309,-4.7309,-4.7309,-4.7309,-4.7309,-4.7309,-4.7309,-4.7309,-4.7309,-4.7309,-4.7581,-4.8377,-4.8702,-4.948,-5.1101,-5.1504,-5.1974,-5.2731,-5.3144,-5.3195,-5.3144,-5.3382,-5.3518,-5.3518,-5.3518,-5.3518,-2.9002,-2.9879,-3.1608,-3.2254,-3.2238,-3.3754,-3.4307,-3.4092,-3.3877,-3.3643,-3.3428,-3.3418,-3.3418,-3.3418,-3.3418,-3.3418,-3.3418,-3.3418,-3.3418,-3.3418,-3.3418,-3.3418,-3.3418,-3.3418,-3.3418,-3.3418,-3.3418,-3.3418,-3.3597,-3.5878,-3.7495,-3.8342,-4.065,-4.2139,-4.2622,-4.2665,-4.2321,-4.1781,-4.1241,-4.0648,-4.0162,-4.0136,-3.9998,-3.971,-3.9697,-3.9697,-3.9697,-3.9697,-3.9697,-3.9697,-3.9697,-3.9697,-3.9685,-3.9446,-3.9308,-3.9308,-3.9069,-3.8781,-3.8479,-3.9952,-4.1544,-4.3241,-4.456,-4.5349,-4.5409,-4.5065,-4.4975,-4.5244,-4.5289,-4.5454,-4.5798,-4.5858,-4.5992,-4.6352,-4.6681,-4.6845,-4.6832,-4.71,-4.7309,-4.7309,-4.7309,-4.7309,-4.7309,-4.7309,-4.7309,-4.7309,-4.7309,-4.7309,-4.7309,-4.7309,-4.7309,-4.7309,-4.7309,-4.7309,-4.7309,-4.7309,-4.7309,-4.7309,-4.7309,-4.7737,-4.8636,-4.9175,-5.0265,-5.1578,-5.2329,-5.2904,-5.3467,-5.3518,-5.3518,-5.3518,-5.3518,-5.3518,-5.3518,-5.3518,-5.3518,-3.1067,-3.1444,-3.2701,-3.3114,-3.2957,-3.4316,-3.4795,-3.4668,-3.4355,-3.3975,-3.3594,-3.3467,-3.3418,-3.3418,-3.3418,-3.3418,-3.3418,-3.3418,-3.3418,-3.3418,-3.3418,-3.3418,-3.3418,-3.3418,-3.3418,-3.3418,-3.3418,-3.3418,-3.3776,-3.666,-3.8569,-3.9464,-4.1785,-4.2986,-4.2986,-4.2986,-4.276,-4.2401,-4.1919,-4.1326,-4.0674,-4.0588,-4.03,-3.991,-3.976,-3.9697,-3.9697,-3.9697,-3.9697,-3.9697,-3.9697,-3.9697,-3.9697,-3.9697,-3.9697,-3.9697,-3.9697,-3.9509,-3.9234,-4.0715,-4.2187,-4.3361,-4.4602,-4.5637,-4.6369,-4.6067,-4.5753,-4.5753,-4.5798,-4.6007,-4.6441,-4.6546,-4.6756,-4.7249,-4.7309,-4.7279,-4.7294,-4.7309,-4.7309,-4.7309,-4.7309,-4.7309,-4.7309,-4.7309,-4.7309,-4.7309,-4.7309,-4.7309,-4.7309,-4.7309,-4.7309,-4.7309,-4.7309,-4.7309,-4.7309,-4.7309,-4.7309,-4.7309,-4.7538,-4.803,-4.8825,-4.9797,-5.0892,-5.1849,-5.2749,-5.3314,-5.3467,-5.3518,-5.3518,-5.3518,-5.3518,-5.3518,-5.3518,-5.3518,-5.3518,-3.3854,-3.5325,-3.552,-3.5433,-3.5074,-3.5255,-3.5107,-3.4746,-3.4658,-3.4404,-3.4023,-3.3594,-3.3437,-3.3418,-3.3418,-3.3418,-3.3418,-3.3418,-3.3418,-3.3418,-3.3418,-3.3418,-3.3418,-3.3418,-3.3418,-3.3418,-3.3418,-3.3418,-3.3597,-3.666,-3.9651,-4.2263,-4.2862,-4.2986,-4.2986,-4.2986,-4.3004,-4.2911,-4.2861,-4.2308,-4.125,-4.0777,-4.0488,-4.045,-3.9948,-3.9697,-3.9697,-3.9697,-3.9697,-3.9697,-3.9697,-3.9697,-3.9697,-3.9697,-3.9697,-3.9697,-3.9697,-3.9659,-3.9712,-4.0865,-4.2197,-4.3432,-4.4721,-4.5932,-4.703,-4.713,-4.7115,-4.7055,-4.707,-4.707,-4.7204,-4.7189,-4.7189,-4.7279,-4.7309,-4.7309,-4.7309,-4.7309,-4.7309,-4.7309,-4.7309,-4.7309,-4.7309,-4.7309,-4.7309,-4.7309,-4.7309,-4.7309,-4.7309,-4.7309,-4.7309,-4.7309,-4.7309,-4.7309,-4.7309,-4.7309,-4.7309,-4.7396,-4.8072,-4.8594,-4.9215,-5.0403,-5.1849,-5.2153,-5.2784,-5.3433,-5.3518,-5.3518,-5.3518,-5.3518,-5.3518,-5.3518,-5.3518,-5.3518,-5.3518,-3.5304,-3.6025,-3.6025,-3.5918,-3.5771,-3.5762,-3.5654,-3.5469,-3.5215,-3.5019,-3.4814,-3.4375,-3.3906,-3.3428,-3.3418,-3.3418,-3.3418,-3.3418,-3.3418,-3.3418,-3.3418,-3.3418,-3.3418,-3.3418,-3.3418,-3.3418,-3.3418,-3.3418,-3.3955,-3.6671,-3.9826,-4.2681,-4.2986,-4.2986,-4.2986,-4.2986,-4.2986,-4.2986,-4.2986,-4.276,-4.2308,-4.1781,-4.1178,-4.0576,-4.0287,-4.0011,-3.9735,-3.9697,-3.9697,-3.9697,-3.9697,-3.9697,-3.9697,-3.9697,-3.9697,-3.9697,-3.9697,-4.0019,-4.0781,-4.2035,-4.3266,-4.4549,-4.5764,-4.6785,-4.7222,-4.7309,-4.7309,-4.7309,-4.7309,-4.7309,-4.7309,-4.7309,-4.7309,-4.7309,-4.7309,-4.7309,-4.7309,-4.7309,-4.7309,-4.7309,-4.7309,-4.7309,-4.7309,-4.7309,-4.7309,-4.7309,-4.7309,-4.7309,-4.7309,-4.7309,-4.7309,-4.7309,-4.7309,-4.7309,-4.7309,-4.7309,-4.7309,-4.7467,-4.8141,-4.8866,-4.9797,-5.0838,-5.2029,-5.2662,-5.3144,-5.3467,-5.3518,-5.3518,-5.3518,-5.3518,-5.3518,-5.3518,-5.3518,-5.3518,-5.3518,-3.6025,-3.6025,-3.6025,-3.6025,-3.6025,-3.6025,-3.6025,-3.5996,-3.5684,-3.5508,-3.5361,-3.5029,-3.4473,-3.3818,-3.3662,-3.3545,-3.3428,-3.3418,-3.3418,-3.3418,-3.3418,-3.3418,-3.3418,-3.3418,-3.3418,-3.3418,-3.3418,-3.3849,-3.486,-3.7435,-4.0291,-4.2625,-4.2986,-4.2986,-4.2986,-4.2986,-4.2986,-4.2986,-4.2986,-4.2986,-4.2911,-4.264,-4.1856,-4.0852,-4.0588,-4.0262,-3.9722,-3.9697,-3.9697,-3.9697,-3.9697,-3.9697,-3.9697,-3.9697,-3.9697,-3.9697,-3.9697,-4.007,-4.1032,-4.2266,-4.3551,-4.478,-4.6062,-4.6931,-4.7207,-4.7309,-4.7309,-4.7309,-4.7309,-4.7309,-4.7309,-4.7309,-4.7309,-4.7309,-4.7309,-4.7309,-4.7309,-4.7309,-4.7309,-4.7309,-4.7309,-4.7309,-4.7309,-4.7309,-4.7309,-4.7309,-4.7309,-4.7309,-4.7309,-4.7309,-4.7309,-4.7309,-4.7309,-4.7309,-4.7309,-4.7309,-4.7309,-4.7624,-4.8309,-4.9575,-5.0397,-5.1394,-5.2383,-5.3144,-5.3399,-5.3518,-5.3518,-5.3518,-5.3518,-5.3518,-5.3518,-5.3518,-5.3518,-5.3518,-5.3518,-3.6025,-3.6025,-3.6025,-3.6025,-3.6025,-3.6025,-3.6025,-3.6016,-3.5986,-3.5762,-3.5439,-3.5381,-3.5098,-3.4609,-3.4248,-3.3828,-3.3467,-3.3447,-3.3437,-3.3428,-3.3418,-3.3418,-3.3418,-3.3418,-3.3418,-3.3418,-3.3597,-3.5036,-3.7865,-3.9581,-4.1362,-4.2918,-4.2986,-4.2986,-4.2986,-4.2986,-4.2986,-4.2986,-4.2986,-4.2986,-4.2986,-4.3004,-4.2371,-4.1288,-4.0802,-4.03,-3.9772,-3.9697,-3.9697,-3.9697,-3.9697,-3.9697,-3.9697,-3.9697,-3.9697,-3.9697,-3.9697,-3.9736,-4.0032,-4.1169,-4.2461,-4.3646,-4.5055,-4.6062,-4.7164,-4.7309,-4.7309,-4.7309,-4.7309,-4.7309,-4.7309,-4.7309,-4.7309,-4.7309,-4.7309,-4.7309,-4.7309,-4.7309,-4.7309,-4.7309,-4.7309,-4.7309,-4.7309,-4.7309,-4.7309,-4.7309,-4.7309,-4.7309,-4.7309,-4.7309,-4.7309,-4.7309,-4.7309,-4.7309,-4.7309,-4.7309,-4.7309,-4.7807,-4.8922,-5.0281,-5.1059,-5.1829,-5.28,-5.3467,-5.3467,-5.3518,-5.3518,-5.3518,-5.3518,-5.3518,-5.3518,-5.3518,-5.3518,-5.3518,-5.3518,-3.6025,-3.6025,-3.6025,-3.6025,-3.6025,-3.6025,-3.6025,-3.6025,-3.6025,-3.5937,-3.581,-3.5791,-3.5557,-3.5127,-3.499,-3.4521,-3.3877,-3.3838,-3.3691,-3.3447,-3.3418,-3.3418,-3.3418,-3.3418,-3.3418,-3.3534,-3.4425,-3.6578,-3.9464,-4.0361,-4.1431,-4.2737,-4.2986,-4.2986,-4.2986,-4.2986,-4.2986,-4.2986,-4.2986,-4.2986,-4.2986,-4.2986,-4.2459,-4.1363,-4.1087,-4.0614,-3.9722,-3.9697,-3.9697,-3.9697,-3.9697,-3.9697,-3.9697,-3.9697,-3.9697,-3.9697,-3.9697,-4.0032,-4.0895,-4.2084,-4.3361,-4.4642,-4.5869,-4.6741,-4.7207,-4.7309,-4.7309,-4.7309,-4.7309,-4.7309,-4.7309,-4.7309,-4.7309,-4.7309,-4.7309,-4.7309,-4.7309,-4.7309,-4.7309,-4.7309,-4.7309,-4.7309,-4.7309,-4.7309,-4.7309,-4.7309,-4.7309,-4.7309,-4.7309,-4.7309,-4.7309,-4.7309,-4.7309,-4.7309,-4.7309,-4.7309,-4.7495,-4.8392,-4.9416,-5.0534,-5.1431,-5.2416,-5.3382,-5.3467,-5.3518,-5.3518,-5.3518,-5.3518,-5.3518,-5.3518,-5.3518,-5.3518,-5.3518,-5.3518,-5.3518,-3.6025,-3.6025,-3.6025,-3.6025,-3.6025,-3.6025,-3.6025,-3.6025,-3.6025,-3.6025,-3.6025,-3.6025,-3.5859,-3.5625,-3.5605,-3.5205,-3.4502,-3.4219,-3.3916,-3.3643,-3.3486,-3.3418,-3.3418,-3.3418,-3.3418,-3.3776,-3.5571,-3.8022,-4.0407,-4.1133,-4.1955,-4.2918,-4.2986,-4.2986,-4.2986,-4.2986,-4.2986,-4.2986,-4.2986,-4.2986,-4.2986,-4.2986,-4.2459,-4.1463,-4.1275,-4.0827,-3.976,-3.9697,-3.9697,-3.9697,-3.9697,-3.9697,-3.9697,-3.9697,-3.9697,-3.9697,-3.9697,-4.007,-4.1032,-4.2558,-4.3821,-4.478,-4.6358,-4.7309,-4.7309,-4.7309,-4.7309,-4.7309,-4.7309,-4.7309,-4.7309,-4.7309,-4.7309,-4.7309,-4.7309,-4.7309,-4.7309,-4.7309,-4.7309,-4.7309,-4.7309,-4.7309,-4.7309,-4.7309,-4.7309,-4.7309,-4.7309,-4.7309,-4.7309,-4.7309,-4.7309,-4.7309,-4.7309,-4.7309,-4.7467,-4.7651,-4.7919,-4.8759,-5.0071,-5.108,-5.1865,-5.287,-5.3433,-5.3467,-5.3518,-5.3518,-5.3518,-5.3518,-5.3518,-5.3518,-5.3518,-5.3518,-5.3518,-5.3518,-5.3518,-3.6025,-3.6025,-3.6025,-3.6025,-3.6025,-3.6025,-3.6025,-3.6025,-3.6025,-3.6025,-3.6025,-3.6025,-3.6006,-3.5996,-3.5947,-3.5742,-3.5205,-3.4482,-3.4156,-3.3984,-3.3603,-3.3418,-3.3418,-3.3418,-3.366,-3.4017,-3.6731,-3.8994,-4.0777,-4.2081,-4.2862,-4.2986,-4.2986,-4.2986,-4.2986,-4.2986,-4.2986,-4.2986,-4.2986,-4.2986,-4.2986,-4.2986,-4.2459,-4.1413,-4.1275,-4.0827,-3.9747,-3.9697,-3.9697,-3.9697,-3.9697,-3.9697,-3.9697,-3.9697,-3.9697,-3.9697,-3.9697,-3.9749,-4.0134,-4.2168,-4.3537,-4.421,-4.5928,-4.7309,-4.7309,-4.7309,-4.7309,-4.7309,-4.7309,-4.7309,-4.7309,-4.7309,-4.7309,-4.7309,-4.7309,-4.7309,-4.7309,-4.7309,-4.7309,-4.7309,-4.7309,-4.7309,-4.7309,-4.7309,-4.7309,-4.7309,-4.7309,-4.7309,-4.7309,-4.7309,-4.7309,-4.7309,-4.7309,-4.7309,-4.7651,-4.8057,-4.8512,-4.9135,-5.0595,-5.1849,-5.2277,-5.3076,-5.3399,-5.3518,-5.3518,-5.3518,-5.3518,-5.3518,-5.3518,-5.3518,-5.3518,-5.3518,-5.3518,-5.3518,-5.3518,-3.6025,-3.6025,-3.6025,-3.6025,-3.6025,-3.6025,-3.6025,-3.6025,-3.6025,-3.6025,-3.6025,-3.6025,-3.6025,-3.6025,-3.6016,-3.5781,-3.5351,-3.4766,-3.4355,-3.4033,-3.3623,-3.3418,-3.3418,-3.3418,-3.456,-3.6478,-3.7686,-3.9639,-4.1899,-4.2737,-4.2986,-4.2986,-4.2986,-4.2986,-4.2986,-4.2986,-4.2986,-4.2986,-4.2986,-4.2986,-4.2986,-4.2974,-4.2434,-4.1426,-4.1275,-4.0814,-3.9785,-3.9697,-3.9697,-3.9697,-3.9697,-3.9697,-3.9697,-3.9697,-3.9697,-3.9697,-3.9697,-4.0173,-4.1069,-4.2509,-4.3868,-4.4826,-4.6358,-4.7164,-4.7309,-4.7309,-4.7309,-4.7309,-4.7309,-4.7309,-4.7309,-4.7309,-4.7309,-4.7309,-4.7309,-4.7309,-4.7309,-4.7309,-4.7309,-4.7309,-4.7309,-4.7309,-4.7309,-4.7309,-4.7309,-4.7309,-4.7309,-4.7309,-4.7309,-4.7309,-4.7309,-4.7309,-4.7309,-4.7352,-4.7609,-4.8418,-4.9376,-4.9876,-5.1117,-5.2312,-5.2749,-5.3041,-5.3348,-5.3518,-5.3518,-5.3518,-5.3518,-5.3518,-5.3518,-5.3518,-5.3518,-5.3518,-5.3518,-5.3518,-5.3518,-3.6025,-3.6025,-3.6025,-3.6025,-3.6025,-3.6025,-3.6025,-3.6025,-3.6025,-3.6025,-3.6025,-3.6025,-3.6025,-3.6025,-3.6025,-3.5781,-3.5361,-3.4912,-3.4473,-3.4053,-3.3623,-3.3418,-3.3418,-3.3418,-3.5046,-3.7686,-3.8223,-3.9884,-4.2862,-4.2986,-4.2986,-4.2986,-4.2986,-4.2986,-4.2986,-4.2986,-4.2986,-4.2986,-4.2986,-4.2986,-4.2936,-4.2841,-4.2258,-4.1401,-4.1087,-4.0523,-3.9772,-3.9697,-3.9697,-3.9697,-3.9697,-3.9697,-3.9697,-3.9697,-3.9697,-3.9697,-3.9788,-4.0262,-4.1505,-4.2738,-4.4069,-4.5312,-4.658,-4.7251,-4.7309,-4.7309,-4.7309,-4.7309,-4.7309,-4.7309,-4.7309,-4.7309,-4.7309,-4.7309,-4.7309,-4.7309,-4.7309,-4.7309,-4.7309,-4.7309,-4.7309,-4.7309,-4.7309,-4.7309,-4.7309,-4.7309,-4.7309,-4.7309,-4.7309,-4.7309,-4.7309,-4.7309,-4.7309,-4.7381,-4.751,-4.8625,-5.0126,-5.0855,-5.1594,-5.2557,-5.323,-5.3314,-5.3518,-5.3518,-5.3518,-5.3518,-5.3518,-5.3518,-5.3518,-5.3518,-5.3518,-5.3518,-5.3518,-5.3518,-5.3518,-3.6025,-3.6025,-3.6025,-3.6025,-3.6025,-3.6025,-3.6025,-3.6025,-3.6025,-3.6025,-3.6025,-3.6025,-3.5996,-3.5976,-3.5918,-3.5654,-3.5283,-3.4824,-3.4375,-3.3975,-3.3613,-3.3481,-3.3786,-3.3839,-3.5581,-3.8164,-3.8521,-4.0117,-4.2862,-4.2986,-4.2986,-4.2986,-4.2986,-4.2986,-4.2986,-4.2986,-4.2986,-4.2986,-4.2986,-4.2974,-4.2929,-4.2514,-4.1869,-4.1225,-4.0814,-4.03,-3.9798,-3.9697,-3.9697,-3.9697,-3.9697,-3.9697,-3.9697,-3.9697,-3.9697,-3.9697,-3.9697,-4.0503,-4.1604,-4.2834,-4.4163,-4.5598,-4.6624,-4.7309,-4.7309,-4.7309,-4.7309,-4.7309,-4.7309,-4.7309,-4.7309,-4.7309,-4.7309,-4.7309,-4.7309,-4.7309,-4.7309,-4.7309,-4.7309,-4.7309,-4.7309,-4.7309,-4.7309,-4.7309,-4.7309,-4.7309,-4.7309,-4.7309,-4.7309,-4.7309,-4.7309,-4.7309,-4.7309,-4.7352,-4.7424,-4.8979,-5.032,-5.0871,-5.1756,-5.2852,-5.3433,-5.3467,-5.3518,-5.3518,-5.3518,-5.3518,-5.3518,-5.3518,-5.3518,-5.3518,-5.3518,-5.3518,-5.3518,-5.3518,-5.3518,-3.6025,-3.6025,-3.6025,-3.6025,-3.6025,-3.6025,-3.6016,-3.6016,-3.6016,-3.5996,-3.6016,-3.6025,-3.582,-3.5576,-3.5547,-3.5146,-3.458,-3.4326,-3.4014,-3.3633,-3.3496,-3.4133,-3.4964,-3.5201,-3.676,-3.9522,-3.9884,-4.1007,-4.2862,-4.2986,-4.2986,-4.2986,-4.2986,-4.2986,-4.2986,-4.2986,-4.2986,-4.2986,-4.2974,-4.2816,-4.2464,-4.2288,-4.1735,-4.0802,-4.0576,-4.0224,-3.976,-3.9697,-3.9697,-3.9697,-3.9697,-3.9697,-3.9697,-3.9697,-3.9697,-3.9697,-3.9839,-4.0743,-4.2509,-4.3313,-4.4549,-4.6506,-4.7062,-4.7309,-4.7309,-4.7309,-4.7309,-4.7309,-4.7309,-4.7309,-4.7309,-4.7309,-4.7309,-4.7309,-4.7309,-4.7309,-4.7309,-4.7309,-4.7309,-4.7309,-4.7309,-4.7309,-4.7309,-4.7309,-4.7309,-4.7309,-4.7309,-4.7309,-4.7309,-4.7309,-4.7309,-4.7309,-4.7309,-4.7309,-4.7779,-4.9287,-5.0358,-5.0757,-5.1756,-5.3161,-5.3467,-5.3467,-5.3518,-5.3518,-5.3518,-5.3518,-5.3518,-5.3518,-5.3518,-5.3518,-5.3518,-5.3518,-5.3518,-5.3518,-5.3518,-3.5644,-3.5469,-3.5469,-3.5469,-3.5459,-3.5469,-3.5566,-3.5732,-3.5762,-3.5762,-3.5752,-3.5762,-3.5517,-3.5137,-3.5098,-3.4736,-3.4131,-3.4062,-3.3838,-3.3603,-3.4143,-3.4974,-3.5622,-3.5867,-3.7484,-4.0291,-4.0592,-4.1476,-4.2737,-4.2986,-4.2986,-4.2986,-4.2986,-4.2986,-4.2986,-4.2986,-4.2974,-4.2936,-4.2828,-4.2514,-4.2225,-4.1681,-4.1204,-4.0538,-4.0325,-3.9986,-3.9735,-3.9697,-3.9697,-3.9697,-3.9697,-3.9697,-3.9697,-3.9697,-3.9697,-3.9736,-4.0173,-4.1455,-4.3122,-4.3975,-4.5207,-4.6829,-4.7309,-4.7309,-4.7309,-4.7309,-4.7309,-4.7309,-4.7309,-4.7309,-4.7309,-4.7309,-4.7309,-4.7309,-4.7309,-4.7309,-4.7309,-4.7309,-4.7309,-4.7309,-4.7309,-4.7309,-4.7309,-4.7309,-4.7309,-4.7309,-4.7309,-4.7309,-4.7309,-4.7309,-4.7309,-4.7309,-4.7309,-4.7352,-4.7892,-4.9287,-5.0528,-5.0908,-5.199,-5.3382,-5.3518,-5.3518,-5.3518,-5.3518,-5.3518,-5.3518,-5.3518,-5.3518,-5.3518,-5.3518,-5.3518,-5.3518,-5.3518,-5.3518,-5.3518,-3.5078,-3.4697,-3.4697,-3.4697,-3.4736,-3.4717,-3.499,-3.5264,-3.5312,-3.5312,-3.5312,-3.5322,-3.5059,-3.4648,-3.4639,-3.4394,-3.3984,-3.3926,-3.3995,-3.4223,-3.4964,-3.5979,-3.682,-3.6941,-3.8439,-4.0765,-4.0892,-4.1728,-4.275,-4.2986,-4.2986,-4.2986,-4.2986,-4.2986,-4.2936,-4.2898,-4.2886,-4.2735,-4.2308,-4.2037,-4.1706,-4.1103,-4.0614,-4.0337,-3.9986,-3.9785,-3.971,-3.9697,-3.9697,-3.9697,-3.9697,-3.9697,-3.9697,-3.9697,-3.9697,-3.9942,-4.0794,-4.2035,-4.3409,-4.4595,-4.5883,-4.7019,-4.7309,-4.7309,-4.7309,-4.7309,-4.7309,-4.7309,-4.7309,-4.7309,-4.7309,-4.7309,-4.7309,-4.7309,-4.7309,-4.7309,-4.7309,-4.7309,-4.7309,-4.7309,-4.7309,-4.7309,-4.7309,-4.7309,-4.7309,-4.7309,-4.7309,-4.7309,-4.7309,-4.7309,-4.7309,-4.7309,-4.7352,-4.7396,-4.8198,-4.9166,-5.0336,-5.1225,-5.2451,-5.3501,-5.3501,-5.3518,-5.3518,-5.3518,-5.3518,-5.3518,-5.3518,-5.3518,-5.3518,-5.3518,-5.3518,-5.3518,-5.3518,-5.3518,-5.3518,-3.4785,-3.4697,-3.4697,-3.4697,-3.4697,-3.4697,-3.4746,-3.4844,-3.4853,-3.4853,-3.4853,-3.4853,-3.46,-3.4209,-3.4189,-3.3965,-3.3623,-3.3711,-3.4087,-3.5366,-3.5571,-3.7424,-3.8912,-3.9394,-4.0592,-4.2081,-4.2444,-4.2681,-4.2986,-4.2986,-4.2986,-4.2986,-4.2986,-4.2974,-4.2954,-4.2615,-4.2376,-4.2288,-4.1794,-4.1317,-4.1003,-4.0689,-4.0287,-3.9961,-3.9772,-3.971,-3.9697,-3.9697,-3.9697,-3.9697,-3.9697,-3.9697,-3.9697,-3.9697,-3.9697,-4.0032,-4.0932,-4.2217,-4.3442,-4.4734,-4.5973,-4.7121,-4.7309,-4.7309,-4.7309,-4.7309,-4.7309,-4.7309,-4.7309,-4.7309,-4.7309,-4.7309,-4.7309,-4.7309,-4.7309,-4.7309,-4.7309,-4.7309,-4.7309,-4.7309,-4.7309,-4.7309,-4.7309,-4.7309,-4.7309,-4.7309,-4.7309,-4.7309,-4.7309,-4.7309,-4.7309,-4.7309,-4.7309,-4.7467,-4.8501,-4.9575,-5.0908,-5.1756,-5.2835,-5.3467,-5.3501,-5.3518,-5.3518,-5.3518,-5.3518,-5.3518,-5.3518,-5.3518,-5.3518,-5.3518,-5.3518,-5.3518,-5.3518,-5.3518,-5.3518,-3.4277,-3.4101,-3.4101,-3.4101,-3.4101,-3.4111,-3.4219,-3.4375,-3.4404,-3.4404,-3.4414,-3.4414,-3.417,-3.3779,-3.376,-3.3623,-3.3646,-3.4258,-3.4974,-3.6112,-3.7183,-3.9041,-4.0349,-4.1362,-4.2263,-4.2974,-4.2986,-4.2986,-4.2986,-4.2986,-4.2986,-4.2986,-4.2974,-4.2785,-4.2678,-4.2313,-4.2032,-4.1706,-4.1241,-4.0789,-4.0551,-4.0237,-4.0049,-3.976,-3.9697,-3.9697,-3.9697,-3.9697,-3.9697,-3.9697,-3.9697,-3.9697,-3.9697,-3.9697,-3.9697,-3.9929,-4.1555,-4.2606,-4.3693,-4.5207,-4.658,-4.7207,-4.7309,-4.7309,-4.7309,-4.7309,-4.7309,-4.7309,-4.7309,-4.7309,-4.7309,-4.7309,-4.7309,-4.7309,-4.7309,-4.7309,-4.7309,-4.7309,-4.7309,-4.7309,-4.7309,-4.7309,-4.7309,-4.7309,-4.7309,-4.7309,-4.7309,-4.7309,-4.7309,-4.7309,-4.7309,-4.7309,-4.7309,-4.7737,-4.88,-5.0071,-5.1667,-5.2487,-5.3161,-5.3501,-5.3518,-5.3518,-5.3518,-5.3518,-5.3518,-5.3518,-5.3518,-5.3518,-5.3501,-5.3501,-5.3501,-5.3501,-5.3467,-5.3382,-5.3416,-3.376,-3.3418,-3.3418,-3.3418,-3.3418,-3.3447,-3.3662,-3.3945,-3.3975,-3.3975,-3.3975,-3.3984,-3.3779,-3.3496,-3.3457,-3.3491,-3.4133,-3.5026,-3.5918,-3.7303,-3.91,-4.0419,-4.1305,-4.2263,-4.2793,-4.2986,-4.2986,-4.2986,-4.2986,-4.2961,-4.2886,-4.2861,-4.2836,-4.2497,-4.2133,-4.1894,-4.1605,-4.1178,-4.0676,-4.0375,-4.03,-3.9948,-3.9747,-3.971,-3.9697,-3.9697,-3.9697,-3.9697,-3.9697,-3.9697,-3.9697,-3.9697,-3.9697,-3.9697,-3.989,-4.0032,-4.2168,-4.3409,-4.427,-4.5838,-4.7207,-4.7309,-4.7309,-4.7309,-4.7309,-4.7309,-4.7309,-4.7309,-4.7309,-4.7309,-4.7309,-4.7309,-4.7309,-4.7309,-4.7309,-4.7309,-4.7309,-4.7309,-4.7309,-4.7309,-4.7309,-4.7309,-4.7309,-4.7309,-4.7309,-4.7309,-4.7309,-4.7309,-4.7309,-4.7309,-4.7309,-4.7538,-4.7651,-4.8774,-4.9915,-5.0881,-5.2437,-5.2736,-5.3382,-5.3382,-5.3348,-5.3179,-5.3145,-5.3467,-5.3518,-5.345,-5.345,-5.3518,-5.3501,-5.3501,-5.3281,-5.3061,-5.3078,-5.3196,-5.3129,-3.3486,-3.3418,-3.3418,-3.3418,-3.3418,-3.3418,-3.3467,-3.3516,-3.3564,-3.3525,-3.3545,-3.3535,-3.3516,-3.3428,-3.3418,-3.408,-3.5088,-3.604,-3.7424,-3.9089,-4.0592,-4.1248,-4.2331,-4.2681,-4.2986,-4.2986,-4.2936,-4.2911,-4.2974,-4.2961,-4.271,-4.2451,-4.2351,-4.2007,-4.148,-4.1065,-4.0877,-4.0639,-4.0174,-3.9936,-3.9873,-3.9785,-3.9697,-3.9697,-3.9697,-3.9697,-3.9697,-3.9697,-3.9697,-3.9697,-3.9697,-3.9697,-3.9697,-3.9697,-4.0121,-4.1082,-4.235,-4.3598,-4.4734,-4.6211,-4.7164,-4.7309,-4.7309,-4.7309,-4.7309,-4.7309,-4.7309,-4.7309,-4.7309,-4.7309,-4.7309,-4.7309,-4.7309,-4.7309,-4.7309,-4.7309,-4.7309,-4.7309,-4.7309,-4.7309,-4.7309,-4.7309,-4.7309,-4.7309,-4.7309,-4.7309,-4.7309,-4.7309,-4.7309,-4.7337,-4.7337,-4.7679,-4.8099,-4.9599,-5.1213,-5.2123,-5.3129,-5.2825,-5.3095,-5.3078,-5.2976,-5.2689,-5.2723,-5.2858,-5.3095,-5.3145,-5.323,-5.3264,-5.3196,-5.2959,-5.2739,-5.252,-5.2452,-5.2384,-5.2029,-3.3418,-3.3418,-3.3418,-3.3418,-3.3418,-3.3418,-3.3418,-3.3418,-3.3418,-3.3418,-3.3418,-3.3418,-3.3418,-3.3418,-3.3418,-3.431,-3.5745,-3.7772,-3.91,-4.0592,-4.1488,-4.2137,-4.2986,-4.2986,-4.2986,-4.2898,-4.2778,-4.2791,-4.2924,-4.2715,-4.2451,-4.2238,-4.1907,-4.1455,-4.099,-4.0689,-4.0362,-4.0124,-3.9848,-3.9697,-3.9697,-3.9697,-3.9697,-3.9697,-3.9697,-3.9697,-3.9697,-3.9697,-3.9697,-3.9697,-3.9697,-3.9697,-3.9697,-3.9788,-3.9968,-4.0743,-4.1887,-4.3122,-4.4349,-4.5584,-4.6491,-4.7222,-4.7309,-4.7309,-4.7309,-4.7309,-4.7309,-4.7309,-4.7309,-4.7309,-4.7309,-4.7309,-4.7309,-4.7309,-4.7309,-4.7309,-4.7309,-4.7309,-4.7309,-4.7309,-4.7309,-4.7309,-4.7309,-4.7309,-4.7309,-4.7309,-4.7309,-4.7309,-4.7309,-4.7362,-4.7415,-4.8322,-4.8863,-4.9933,-5.1339,-5.2113,-5.2791,-5.2689,-5.2621,-5.2604,-5.2384,-5.2012,-5.1928,-5.2012,-5.2283,-5.2334,-5.23,-5.2114,-5.2249,-5.2367,-5.2012,-5.1742,-5.1657,-5.1455,-5.1117,-3.3902,-3.3839,-3.3534,-3.3418,-3.3418,-3.3418,-3.3418,-3.3418,-3.3418,-3.3418,-3.3418,-3.3418,-3.3418,-3.3418,-3.3597,-3.4435,-3.6356,-3.9041,-4.0117,-4.1362,-4.2263,-4.2974,-4.2974,-4.2961,-4.2898,-4.2703,-4.2502,-4.2439,-4.2559,-4.2246,-4.1957,-4.1643,-4.1304,-4.0849,-4.0438,-4.0287,-4.0011,-3.9848,-3.9697,-3.9697,-3.9697,-3.9697,-3.9697,-3.9697,-3.9697,-3.9697,-3.9697,-3.9697,-3.9697,-3.9697,-3.9697,-3.9697,-3.9697,-3.9697,-3.9697,-3.9942,-4.1132,-4.2509,-4.3882,-4.5192,-4.6535,-4.7207,-4.7309,-4.7309,-4.7309,-4.7309,-4.7309,-4.7309,-4.7309,-4.7309,-4.7309,-4.7309,-4.7309,-4.7309,-4.7309,-4.7309,-4.7309,-4.7309,-4.7309,-4.7309,-4.7309,-4.7264,-4.7219,-4.7309,-4.7309,-4.7309,-4.7309,-4.7309,-4.7307,-4.7431,-4.7766,-4.8922,-4.9764,-5.0435,-5.1202,-5.1547,-5.193,-5.1826,-5.1792,-5.1792,-5.1522,-5.1183,-5.1183,-5.1133,-5.0777,-5.0794,-5.0862,-5.12,-5.1572,-5.164,-5.1217,-5.098,-5.093,-5.0676,-5.0321,-3.5499,-3.5376,-3.4017,-3.3418,-3.3481,-3.3418,-3.3418,-3.3418,-3.3418,-3.3418,-3.3418,-3.3418,-3.3418,-3.3597,-3.366,-3.5283,-3.7374,-3.8864,-4.0476,-4.2263,-4.2806,-4.2949,-4.2949,-4.2986,-4.2597,-4.2338,-4.2162,-4.2238,-4.2125,-4.1643,-4.1216,-4.0877,-4.0714,-4.0362,-3.9961,-3.9923,-3.976,-3.971,-3.9697,-3.9697,-3.9697,-3.9697,-3.9697,-3.9697,-3.9697,-3.9697,-3.9697,-3.9697,-3.9697,-3.9697,-3.9697,-3.9697,-3.9697,-3.9697,-3.9697,-4.0415,-4.1838,-4.3821,-4.4872,-4.5913,-4.6814,-4.7164,-4.7309,-4.7309,-4.7309,-4.7309,-4.7309,-4.7309,-4.7309,-4.7309,-4.7309,-4.7309,-4.7309,-4.7309,-4.7309,-4.7264,-4.7249,-4.7025,-4.7055,-4.689,-4.6756,-4.695,-4.704,-4.7189,-4.7309,-4.7309,-4.7279,-4.7204,-4.7325,-4.7444,-4.78,-4.8856,-4.9988,-5.0685,-5.076,-5.1157,-5.1019,-5.0914,-5.0896,-5.0896,-5.0676,-5.0405,-5.0287,-5.0152,-4.9779,-4.9847,-5.0371,-5.0777,-5.1082,-5.0896,-5.0456,-5.0287,-5.0202,-4.9898,-4.961,-3.7963,-3.7002,-3.5396,-3.4788,-3.4612,-3.3839,-3.3418,-3.3418,-3.3418,-3.3418,-3.3418,-3.3418,-3.3902,-3.455,-3.5643,-3.7374,-3.9347,-4.0291,-4.1488,-4.2656,-4.2936,-4.2798,-4.2602,-4.2539,-4.2221,-4.1743,-4.1392,-4.1153,-4.1128,-4.1028,-4.0714,-4.0513,-4.0212,-3.9986,-3.9697,-3.9697,-3.9697,-3.9697,-3.9697,-3.9697,-3.9697,-3.9697,-3.9697,-3.9697,-3.9697,-3.9697,-3.9697,-3.9697,-3.9697,-3.9697,-3.9697,-3.9697,-3.9942,-4.0313,-4.0781,-4.0982,-4.317,-4.441,-4.4456,-4.5629,-4.6491,-4.7164,-4.7309,-4.7309,-4.7309,-4.7309,-4.7309,-4.7309,-4.7309,-4.7294,-4.7279,-4.7309,-4.7309,-4.7279,-4.71,-4.692,-4.6815,-4.6741,-4.6606,-4.6396,-4.6232,-4.6367,-4.6486,-4.6516,-4.6591,-4.6666,-4.6484,-4.6199,-4.6715,-4.7384,-4.7876,-4.8599,-4.9672,-5.0709,-5.0521,-5.0526,-5.0156,-5.0016,-4.9813,-4.9813,-4.9796,-4.9644,-4.9627,-4.9543,-4.9357,-4.9576,-5.0016,-5.005,-5.0067,-4.9898,-4.9695,-4.9661,-4.9644,-4.9492,-4.9255,-4.0476,-3.9229,-3.7243,-3.6162,-3.5673,-3.4487,-3.3776,-3.3418,-3.3418,-3.3418,-3.3418,-3.3418,-3.408,-3.5273,-3.6589,-3.7974,-3.9884,-4.1672,-4.2457,-4.2699,-4.271,-4.2421,-4.2108,-4.1919,-4.1668,-4.1087,-4.0852,-4.0563,-4.0375,-4.03,-4.03,-4.0287,-3.9948,-3.9747,-3.971,-3.9697,-3.9697,-3.9697,-3.9697,-3.9697,-3.9697,-3.9697,-3.9697,-3.9697,-3.9697,-3.9697,-3.9697,-3.9697,-3.9697,-3.9697,-3.9697,-3.9839,-4.0364,-4.0982,-4.169,-4.2266,-4.4163,-4.4886,-4.4886,-4.5448,-4.6255,-4.6931,-4.7309,-4.7309,-4.7309,-4.7309,-4.7309,-4.7309,-4.7309,-4.7219,-4.7085,-4.7025,-4.6815,-4.6711,-4.6636,-4.6426,-4.6217,-4.6112,-4.6022,-4.5888,-4.5708,-4.5559,-4.5648,-4.5693,-4.5798,-4.5948,-4.572,-4.5368,-4.6049,-4.6995,-4.7638,-4.8252,-4.9159,-5.0062,-4.9989,-4.9746,-4.939,-4.9272,-4.9086,-4.9052,-4.9255,-4.9255,-4.9221,-4.9086,-4.9018,-4.9154,-4.9526,-4.9255,-4.9018,-4.9204,-4.9323,-4.9187,-4.9086,-4.9018,-4.9018,-4.2793,-4.2432,-3.9347,-3.7243,-3.5928,-3.5673,-3.4736,-3.3597,-3.3471,-3.3418,-3.3418,-3.3534,-3.3776,-3.4373,-3.6112,-3.7544,-3.8698,-4.0071,-4.1379,-4.2138,-4.2213,-4.1882,-4.1568,-4.1317,-4.1116,-4.0664,-4.04,-4.0149,-3.9898,-3.9898,-3.9823,-3.9735,-3.9747,-3.971,-3.9697,-3.9697,-3.9697,-3.9697,-3.9697,-3.9697,-3.9697,-3.9697,-3.9697,-3.9697,-3.9697,-3.9697,-3.9697,-3.9697,-3.9697,-3.9697,-3.9697,-4.0083,-4.0706,-4.1555,-4.2266,-4.3204,-4.4734,-4.5403,-4.5584,-4.6151,-4.6975,-4.7266,-4.7309,-4.7309,-4.7309,-4.7309,-4.7309,-4.7219,-4.7115,-4.6875,-4.6606,-4.6352,-4.6157,-4.6007,-4.5918,-4.5723,-4.5529,-4.5424,-4.5349,-4.5304,-4.5125,-4.487,-4.4766,-4.4796,-4.508,-4.5244,-4.5076,-4.4764,-4.554,-4.6469,-4.7171,-4.7846,-4.8592,-4.9131,-4.9207,-4.9086,-4.9137,-4.9154,-4.9052,-4.9018,-4.9069,-4.9018,-4.9018,-4.9018,-4.9018,-4.9018,-4.9018,-4.9018,-4.9018,-4.9018,-4.9018,-4.9018,-4.9018,-4.9018,-4.9018,-4.2986,-4.2862,-4.1602,-4.0233,-3.8616,-3.6639,-3.5448,-3.4736,-3.3839,-3.3418,-3.3481,-3.4435,-3.5458,-3.6478,-3.8033,-3.9628,-4.1016,-4.1281,-4.1811,-4.1863,-4.1819,-4.1354,-4.1003,-4.0752,-4.0563,-4.0149,-4.0011,-3.9961,-3.9747,-3.9697,-3.9697,-3.9697,-3.9697,-3.9697,-3.9697,-3.9697,-3.9697,-3.9697,-3.9697,-3.9697,-3.9697,-3.9697,-3.9697,-3.9697,-3.9697,-3.9697,-3.9697,-3.9697,-3.9697,-3.9697,-3.9697,-4.0121,-4.0895,-4.1874,-4.2869,-4.3726,-4.5358,-4.6299,-4.6447,-4.696,-4.7266,-4.7309,-4.7309,-4.7294,-4.7249,-4.7279,-4.704,-4.689,-4.6696,-4.6411,-4.5843,-4.5693,-4.5589,-4.5364,-4.517,-4.4975,-4.484,-4.4736,-4.4571,-4.4481,-4.4227,-4.3917,-4.3883,-4.3828,-4.4227,-4.4526,-4.4338,-4.4378,-4.5195,-4.6066,-4.6811,-4.7653,-4.8468,-4.8909,-4.9001,-4.9018,-4.9018,-4.9018,-4.9018,-4.9018,-4.9018,-4.9018,-4.9018,-4.9018,-4.9018,-4.9018,-4.9018,-4.9018,-4.9018,-4.9018,-4.9018,-4.9018,-4.9018,-4.9018,-4.9018,-4.2986,-4.2986,-4.2986,-4.2081,-4.0291,-3.7664,-3.6223,-3.556,-3.408,-3.3776,-3.4195,-3.5806,-3.7073,-3.8427,-3.9628,-4.064,-4.1413,-4.1705,-4.1722,-4.1543,-4.1204,-4.0764,-4.045,-4.0237,-4.0099,-3.9747,-3.9697,-3.9697,-3.9697,-3.9697,-3.9697,-3.9697,-3.9697,-3.9697,-3.9697,-3.9697,-3.9697,-3.9697,-3.9697,-3.9697,-3.9697,-3.9697,-3.9697,-3.9697,-3.9697,-3.9697,-3.9697,-3.9697,-3.9697,-3.9697,-3.9749,-3.9942,-4.0895,-4.2084,-4.3456,-4.4642,-4.5824,-4.7207,-4.7309,-4.7309,-4.7309,-4.7309,-4.7309,-4.7204,-4.707,-4.6995,-4.6666,-4.6112,-4.5992,-4.5738,-4.511,-4.5005,-4.4781,-4.4526,-4.4407,-4.4242,-4.4137,-4.3977,-4.3768,-4.3604,-4.3439,-4.3469,-4.3484,-4.3514,-4.3663,-4.3932,-4.3838,-4.4095,-4.4939,-4.5803,-4.6652,-4.7505,-4.8418,-4.8767,-4.9018,-4.9018,-4.9018,-4.9018,-4.9018,-4.9018,-4.9018,-4.9018,-4.9018,-4.9018,-4.9018,-4.9018,-4.9018,-4.9018,-4.9018,-4.9018,-4.9018,-4.9018,-4.9018,-4.9018,-4.9018,-4.2986,-4.2986,-4.2986,-4.2081,-4.065,-3.8876,-3.7303,-3.599,-3.4373,-3.4435,-3.5867,-3.7435,-3.8119,-3.8669,-3.9738,-4.0503,-4.0646,-4.1092,-4.1178,-4.0814,-4.0626,-4.0212,-3.9961,-3.9798,-3.9835,-3.9735,-3.9697,-3.9697,-3.9697,-3.9697,-3.9697,-3.9697,-3.9697,-3.9697,-3.9697,-3.9697,-3.9697,-3.9697,-3.9697,-3.9697,-3.9697,-3.9697,-3.9697,-3.9697,-3.9697,-3.9697,-3.9697,-3.9697,-3.9697,-3.9697,-3.9697,-4.0173,-4.1369,-4.2593,-4.3929,-4.5161,-4.6447,-4.7207,-4.7279,-4.7279,-4.7204,-4.716,-4.707,-4.689,-4.6486,-4.6277,-4.6052,-4.5439,-4.5319,-4.5005,-4.4616,-4.4302,-4.3962,-4.3813,-4.3738,-4.3678,-4.3589,-4.3544,-4.3409,-4.3349,-4.3319,-4.3319,-4.3319,-4.3319,-4.3334,-4.3394,-4.3334,-4.3873,-4.4871,-4.585,-4.6884,-4.7688,-4.8608,-4.8767,-4.9018,-4.9018,-4.9018,-4.9018,-4.9018,-4.9018,-4.9018,-4.9018,-4.9018,-4.9018,-4.9018,-4.9018,-4.9018,-4.9018,-4.9018,-4.9018,-4.9018,-4.9018,-4.9018,-4.9018,-4.9018,-4.2986,-4.2986,-4.2986,-4.2681,-4.1968,-4.0476,-3.8864,-3.7254,-3.5867,-3.5867,-3.7484,-3.91,-3.9535,-3.9807,-4.0499,-4.1035,-4.0787,-4.0492,-4.0576,-4.0501,-4.0187,-3.9923,-3.9722,-3.9697,-3.9697,-3.9697,-3.9697,-3.9697,-3.9697,-3.9697,-3.9697,-3.9697,-3.9697,-3.9697,-3.9697,-3.9697,-3.9697,-3.9697,-3.9697,-3.9697,-3.9697,-3.9697,-3.9697,-3.9697,-3.9697,-3.9697,-3.9697,-3.9697,-3.9697,-3.9749,-3.9749,-4.0402,-4.1604,-4.2834,-4.4116,-4.5358,-4.6565,-4.7027,-4.6815,-4.6636,-4.6651,-4.6636,-4.6606,-4.6337,-4.5768,-4.5663,-4.5274,-4.484,-4.4661,-4.4287,-4.3798,-4.3663,-4.3484,-4.3469,-4.3424,-4.3424,-4.3364,-4.3364,-4.3305,-4.3319,-4.3305,-4.3305,-4.3305,-4.3369,-4.3369,-4.381,-4.395,-4.4615,-4.5561,-4.6574,-4.7572,-4.8208,-4.8861,-4.894,-4.9018,-4.9018,-4.9018,-4.9018,-4.9018,-4.9018,-4.9018,-4.9018,-4.9018,-4.9018,-4.9018,-4.9018,-4.9018,-4.9018,-4.9018,-4.9018,-4.9018,-4.9018,-4.9018,-4.9018,-4.9018,-4.2986,-4.2986,-4.2986,-4.2986,-4.275,-4.1305,-3.9698,-3.8331,-3.7664,-3.8004,-3.8988,-4.0421,-4.0849,-4.0727,-4.1062,-4.1467,-4.0937,-4.0488,-4.0224,-4.0187,-3.9898,-3.9747,-3.971,-3.9697,-3.9697,-3.9697,-3.9697,-3.9697,-3.9697,-3.9697,-3.9697,-3.9697,-3.9697,-3.9697,-3.9697,-3.9697,-3.9697,-3.9697,-3.9697,-3.9697,-3.9697,-3.9697,-3.9697,-3.9697,-3.9697,-3.9697,-3.9697,-3.9697,-3.9697,-3.9788,-4.0224,-4.068,-4.1838,-4.3218,-4.4396,-4.5539,-4.6197,-4.6627,-4.6429,-4.6022,-4.5903,-4.5589,-4.5798,-4.5618,-4.5125,-4.4975,-4.4586,-4.4212,-4.3992,-4.3753,-4.3424,-4.3305,-4.3305,-4.3305,-4.3305,-4.3305,-4.3305,-4.3305,-4.3305,-4.3305,-4.3305,-4.3305,-4.3344,-4.3409,-4.3448,-4.4066,-4.4684,-4.5452,-4.6224,-4.7122,-4.7966,-4.8576,-4.897,-4.9001,-4.9018,-4.9018,-4.9018,-4.9018,-4.9018,-4.9018,-4.9018,-4.9018,-4.9018,-4.9018,-4.9018,-4.9018,-4.9018,-4.9018,-4.9018,-4.9018,-4.9018,-4.9018,-4.9018,-4.9018,-4.9018,-4.303,-4.2961,-4.2961,-4.2898,-4.2662,-4.125,-3.9837,-3.8557,-3.9849,-4.0156,-4.0025,-4.1416,-4.1534,-4.1118,-4.0802,-4.0576,-4.045,-3.9973,-3.9848,-3.9785,-3.9722,-3.9697,-3.9697,-3.9697,-3.9697,-3.9697,-3.9697,-3.9697,-3.9697,-3.9697,-3.9697,-3.9697,-3.9697,-3.9697,-3.9697,-3.9697,-3.9697,-3.9697,-3.9697,-3.9697,-3.9697,-3.9697,-3.9697,-3.9697,-3.9697,-3.9697,-3.9697,-3.9697,-3.9788,-4.0173,-4.0882,-4.1442,-4.2496,-4.4102,-4.4918,-4.562,-4.6119,-4.6183,-4.592,-4.5454,-4.499,-4.4646,-4.487,-4.4736,-4.4511,-4.4231,-4.3977,-4.3693,-4.3514,-4.3439,-4.3305,-4.3305,-4.3305,-4.3305,-4.3305,-4.3305,-4.3305,-4.3305,-4.3305,-4.3305,-4.3305,-4.3305,-4.3369,-4.3448,-4.3989,-4.4571,-4.5285,-4.6083,-4.6781,-4.7423,-4.8193,-4.8719,-4.9001,-4.9001,-4.9018,-4.9018,-4.9018,-4.9018,-4.9018,-4.9018,-4.9018,-4.9018,-4.9018,-4.9018,-4.9018,-4.9018,-4.9018,-4.9018,-4.9018,-4.9018,-4.9018,-4.9018,-4.9018,-4.9018,-4.9018,-4.2748,-4.2451,-4.2451,-4.2183,-4.1777,-4.1303,-4.1243,-4.1517,-4.0703,-4.0447,-4.1545,-4.1513,-4.1266,-4.0752,-4.0576,-4.0287,-4.0011,-3.9785,-3.9735,-3.9697,-3.9697,-3.9697,-3.9697,-3.9697,-3.9697,-3.9697,-3.9697,-3.9697,-3.9697,-3.9697,-3.9697,-3.9697,-3.9697,-3.9697,-3.9697,-3.9697,-3.9697,-3.9697,-3.9697,-3.9697,-3.9697,-3.9697,-3.9697,-3.9697,-3.9697,-3.9697,-3.9697,-3.9788,-4.0134,-4.1032,-4.1356,-4.2119,-4.4442,-4.5041,-4.5483,-4.6032,-4.6122,-4.5935,-4.5053,-4.4721,-4.4347,-4.3853,-4.3873,-4.3768,-4.3618,-4.3604,-4.3529,-4.3394,-4.3305,-4.3305,-4.3305,-4.3305,-4.3305,-4.3305,-4.3305,-4.3305,-4.3305,-4.3305,-4.3305,-4.3344,-4.3344,-4.3591,-4.3591,-4.4167,-4.4759,-4.5227,-4.585,-4.6678,-4.734,-4.7982,-4.837,-4.8861,-4.9018,-4.9018,-4.9018,-4.9018,-4.9018,-4.9018,-4.9018,-4.9018,-4.9018,-4.9018,-4.9018,-4.9018,-4.9018,-4.9018,-4.9018,-4.9018,-4.9018,-4.9018,-4.9018,-4.9018,-4.9018,-4.9018,-4.9018,-4.2145,-4.1844,-4.1831,-4.163,-4.1313,-4.1275,-4.1756,-4.2031,-4.093,-4.093,-4.1413,-4.1166,-4.0661,-4.0237,-4.0149,-4.0011,-3.9747,-3.9722,-3.9697,-3.9697,-3.9697,-3.9697,-3.9697,-3.9697,-3.9697,-3.9697,-3.9697,-3.9697,-3.9697,-3.9697,-3.9697,-3.9697,-3.9697,-3.9697,-3.9697,-3.9697,-3.9697,-3.9697,-3.9697,-3.9697,-3.9697,-3.9697,-3.9697,-3.9697,-3.9697,-3.9697,-3.9788,-3.9981,-4.0831,-4.1838,-4.2133,-4.3693,-4.5407,-4.5561,-4.5815,-4.6149,-4.5607,-4.5158,-4.4485,-4.4037,-4.3693,-4.3424,-4.3305,-4.3334,-4.3364,-4.3379,-4.3364,-4.3305,-4.3305,-4.3305,-4.3305,-4.3305,-4.3305,-4.3305,-4.3305,-4.3305,-4.3305,-4.3305,-4.3344,-4.3369,-4.3591,-4.3888,-4.4282,-4.493,-4.5613,-4.624,-4.6797,-4.7373,-4.7966,-4.8465,-4.8688,-4.894,-4.9018,-4.9018,-4.9018,-4.9018,-4.9018,-4.9018,-4.9018,-4.9018,-4.9018,-4.9018,-4.9018,-4.9018,-4.9018,-4.9018,-4.9018,-4.9018,-4.9018,-4.9018,-4.9018,-4.9018,-4.9018,-4.9018,-4.9018,-4.1275,-4.1213,-4.1175,-4.1153,-4.115,-4.1128,-4.1112,-4.115,-4.0993,-4.0912,-4.0614,-4.0488,-4.0187,-3.9873,-3.981,-3.9798,-3.9697,-3.9697,-3.9697,-3.9697,-3.9697,-3.9697,-3.9697,-3.9697,-3.9697,-3.9697,-3.9697,-3.9697,-3.9697,-3.9697,-3.9697,-3.9697,-3.9697,-3.9697,-3.9697,-3.9697,-3.9697,-3.9697,-3.9697,-3.9697,-3.9697,-3.9697,-3.9697,-3.9697,-3.9697,-3.9749,-3.9981,-4.0605,-4.1541,-4.2509,-4.3504,-4.4872,-4.5593,-4.577,-4.6049,-4.5744,-4.5024,-4.4515,-4.4067,-4.3678,-4.3469,-4.3334,-4.3305,-4.3305,-4.3305,-4.3305,-4.3305,-4.3305,-4.3305,-4.3305,-4.3305,-4.3305,-4.3305,-4.3305,-4.3305,-4.3305,-4.3305,-4.3305,-4.3305,-4.3409,-4.3591,-4.3927,-4.4608,-4.5227,-4.6083,-4.7036,-4.777,-4.8208,-4.8465,-4.8892,-4.897,-4.9018,-4.9018,-4.9018,-4.9018,-4.9018,-4.9018,-4.9018,-4.9018,-4.9018,-4.9018,-4.9018,-4.9018,-4.9018,-4.9018,-4.9018,-4.9018,-4.9001,-4.9001,-4.9018,-4.9018,-4.9018,-4.8984,-4.8866,-4.8951,-4.1037,-4.0676,-4.0262,-4.0086,-4.0086,-4.0086,-4.0111,-4.0086,-4.0086,-4.0287,-4.04,-4.0099,-3.986,-3.9735,-3.9697,-3.9697,-3.9697,-3.9697,-3.9697,-3.9697,-3.9697,-3.9697,-3.9697,-3.9697,-3.9697,-3.9697,-3.9697,-3.9697,-3.9697,-3.9697,-3.9697,-3.9697,-3.9697,-3.9697,-3.9697,-3.9697,-3.9697,-3.9697,-3.9697,-3.9697,-3.9697,-3.9697,-3.9697,-3.9736,-3.9736,-3.9826,-3.9968,-4.0121,-4.1505,-4.2834,-4.3409,-4.463,-4.5973,-4.5719,-4.5293,-4.484,-4.4511,-4.4037,-4.3693,-4.3439,-4.3334,-4.3305,-4.3305,-4.3305,-4.3305,-4.3305,-4.3305,-4.3305,-4.3305,-4.3305,-4.3305,-4.3305,-4.3305,-4.3305,-4.3305,-4.3305,-4.3305,-4.3305,-4.3305,-4.3448,-4.3591,-4.4182,-4.4871,-4.567,-4.6539,-4.7406,-4.8289,-4.875,-4.875,-4.897,-4.897,-4.9018,-4.9018,-4.9018,-4.9018,-4.9018,-4.9018,-4.9018,-4.9018,-4.9018,-4.9001,-4.9018,-4.9018,-4.9018,-4.9018,-4.8951,-4.8917,-4.8968,-4.8968,-4.8748,-4.8646,-4.8494,-4.8477,-4.8409,-4.8646,-4.0438,-4.0124,-3.9823,-3.9697,-3.9697,-3.9697,-3.9697,-3.9697,-3.9697,-3.986,-4.0086,-3.9848,-3.9697,-3.9697,-3.9697,-3.9697,-3.9697,-3.9697,-3.9697,-3.9697,-3.9697,-3.9697,-3.9697,-3.9697,-3.9697,-3.9697,-3.9697,-3.9697,-3.9697,-3.9697,-3.9697,-3.9697,-3.9697,-3.9697,-3.9697,-3.9697,-3.9697,-3.9697,-3.9697,-3.9697,-3.9697,-3.9697,-3.9697,-3.9736,-4.0109,-4.03,-4.0781,-4.0993,-4.232,-4.3561,-4.4191,-4.4675,-4.5444,-4.5173,-4.4751,-4.4392,-4.4062,-4.3678,-4.3409,-4.3305,-4.3305,-4.3305,-4.3305,-4.3305,-4.3305,-4.3305,-4.3305,-4.3305,-4.3305,-4.3305,-4.3305,-4.3305,-4.3305,-4.3305,-4.3305,-4.3305,-4.3305,-4.3305,-4.3305,-4.3329,-4.3834,-4.4706,-4.5504,-4.6435,-4.7273,-4.808,-4.8892,-4.897,-4.9001,-4.9018,-4.9018,-4.9018,-4.9018,-4.9018,-4.9018,-4.9018,-4.9018,-4.9018,-4.8984,-4.8934,-4.89,-4.8968,-4.9018,-4.8832,-4.8748,-4.8748,-4.8748,-4.8578,-4.8173,-4.7767,-4.78,-4.7868,-4.7868,-4.7834,-4.7817,-3.9735,-3.9697,-3.9697,-3.9697,-3.9697,-3.9697,-3.9697,-3.9697,-3.9697,-3.9697,-3.9735,-3.9722,-3.9697,-3.9697,-3.9697,-3.9697,-3.9697,-3.9697,-3.9697,-3.9697,-3.9697,-3.9697,-3.9697,-3.9697,-3.9697,-3.9697,-3.9697,-3.9697,-3.9697,-3.9697,-3.9697,-3.9697,-3.9697,-3.9697,-3.9697,-3.9697,-3.9697,-3.9697,-3.9697,-3.9697,-3.9697,-3.9697,-3.9697,-4.0121,-4.0693,-4.1356,-4.1887,-4.2382,-4.3343,-4.4215,-4.463,-4.4845,-4.484,-4.4571,-4.4302,-4.3958,-4.3663,-4.3439,-4.3305,-4.3305,-4.3305,-4.3305,-4.3305,-4.3305,-4.3305,-4.3305,-4.3305,-4.3305,-4.3305,-4.3305,-4.3305,-4.3305,-4.3305,-4.3305,-4.3305,-4.3305,-4.3305,-4.3305,-4.3329,-4.3329,-4.4167,-4.5079,-4.6048,-4.6986,-4.7836,-4.8656,-4.9018,-4.9018,-4.9018,-4.9018,-4.9018,-4.9018,-4.9018,-4.9018,-4.9001,-4.8951,-4.8934,-4.8883,-4.8832,-4.8798,-4.8663,-4.8325,-4.8223,-4.8426,-4.8359,-4.8156,-4.7986,-4.7797,-4.7357,-4.6984,-4.7175,-4.7344,-4.7158,-4.7073,-4.6802,-3.9697,-3.9697,-3.9697,-3.9697,-3.9697,-3.9697,-3.9697,-3.9697,-3.9697,-3.9697,-3.9697,-3.9697,-3.9697,-3.9697,-3.9697,-3.9697,-3.9697,-3.9697,-3.9697,-3.9697,-3.9697,-3.9697,-3.9697,-3.9697,-3.9697,-3.9697,-3.9697,-3.9697,-3.9697,-3.9697,-3.9697,-3.9697,-3.9697,-3.9697,-3.9697,-3.9697,-3.9697,-3.9697,-3.9685,-3.9672,-3.9634,-3.9647,-3.9697,-3.9839,-3.9929,-4.0693,-4.1264,-4.1214,-4.2538,-4.3706,-4.4444,-4.4482,-4.4317,-4.4003,-4.3708,-4.3633,-4.3379,-4.3349,-4.3305,-4.3305,-4.3305,-4.3305,-4.3305,-4.3305,-4.3305,-4.3305,-4.3305,-4.3305,-4.3305,-4.3305,-4.3305,-4.3305,-4.3305,-4.3305,-4.3305,-4.3305,-4.3305,-4.3344,-4.3329,-4.3669,-4.4243,-4.5248,-4.626,-4.7122,-4.7933,-4.8608,-4.9001,-4.9001,-4.8984,-4.9001,-4.8934,-4.8866,-4.8832,-4.9001,-4.8984,-4.8849,-4.8798,-4.8748,-4.8511,-4.8156,-4.7733,-4.7259,-4.7242,-4.7648,-4.7513,-4.7225,-4.7086,-4.7018,-4.6832,-4.6578,-4.6752,-4.6836,-4.6583,-4.6312,-4.6024]}]]